[[{"header":{"parameterUnit":"m.s-1","parameterCategory":1,"la1":30.6,"la2":28.766,"lo1":-90.7593,"lo2":-88.6598,"dy":0.0162,"dx":0.0183,"nx":116,"ny":114,"refTime":"2023-11-13T06:00:00:Z","depth":0,"parameterNumber":2,"parameterNumberName":"U-component_of_WINDS"},"data":[0.0,0.0,0.0,0.0,0.0,0.0,0.0,0.0,0.0,0.0,0.0,0.0,0.0,0.0,0.0,0.0,0.0,0.0,0.0,0.0,0.0,0.0,0.0,0.0,0.0,0.0,0.0,0.0,0.0,0.0,0.0,0.0,0.0,0.0,0.0,0.0,0.0,0.0,0.0,0.0,0.0,0.0,0.0,0.0,0.0,0.0,0.0,0.0,0.0,0.0,0.0,0.0,0.0,0.0,0.0,0.0,0.0,0.0,0.0,0.0,0.0,0.0,0.0,0.0,0.0,0.0,0.0,0.0,0.0,0.0,0.0,0.0,0.0,0.0,0.0,0.0,0.0,0.0,0.0,0.0,0.0,0.0,0.0,0.0,0.0,0.0,0.0,0.0,0.0,0.0,0.0,0.0,0.0,0.0,0.0,0.0,0.0,0.0,0.0,0.0,0.0,0.0,0.0,0.0,0.0,0.0,0.0,0.0,0.0,0.0,0.0,0.0,0.0,0.0,0.0,0.0,0.0,0.0,0.0,0.0,0.0,0.0,0.0,0.0,0.0,0.0,0.0,0.0,0.0,0.0,0.0,0.0,0.0,0.0,0.0,0.0,0.0,0.0,0.0,0.0,0.0,0.0,0.0,0.0,0.0,0.0,0.0,0.0,0.0,0.0,0.0,0.0,0.0,0.0,0.0,0.0,0.0,0.0,0.0,0.0,0.0,0.0,0.0,0.0,0.0,0.0,0.0,0.0,0.0,0.0,0.0,0.0,0.0,0.0,0.0,0.0,0.0,0.0,0.0,0.0,0.0,0.0,0.0,0.0,0.0,0.0,0.0,0.0,0.0,0.0,0.0,0.0,0.0,0.0,0.0,0.0,0.0,0.0,0.0,0.0,0.0,0.0,0.0,0.0,0.0,0.0,0.0,0.0,0.0,0.0,0.0,0.0,0.0,0.0,0.0,0.0,0.0,0.0,0.0,0.0,0.0,0.0,0.0,0.0,0.0,0.0,0.0,0.0,0.0,0.0,0.0,0.0,0.0,0.0,0.0,0.0,0.0,0.0,0.0,0.0,0.0,0.0,0.0,0.0,0.0,0.0,0.0,0.0,0.0,0.0,0.0,0.0,0.0,0.0,0.0,0.0,0.0,0.0,0.0,0.0,0.0,0.0,0.0,0.0,0.0,0.0,0.0,0.0,0.0,0.0,0.0,0.0,0.0,0.0,0.0,0.0,0.0,0.0,0.0,0.0,0.0,0.0,0.0,0.0,0.0,0.0,0.0,0.0,0.0,0.0,0.0,0.0,0.0,0.0,0.0,0.0,0.0,0.0,0.0,0.0,0.0,0.0,0.0,0.0,0.0,0.0,0.0,0.0,0.0,0.0,0.0,0.0,0.0,0.0,0.0,0.0,0.0,0.0,0.0,0.0,0.0,0.0,0.0,0.0,0.0,0.0,0.0,0.0,0.0,0.0,0.0,0.0,0.0,0.0,0.0,0.0,0.0,0.0,0.0,0.0,0.0,0.0,0.0,0.0,0.0,0.0,0.0,0.0,0.0,0.0,0.0,0.0,0.0,0.0,0.0,0.0,0.0,0.0,0.0,0.0,0.0,0.0,0.0,0.0,0.0,0.0,0.0,0.0,0.0,0.0,0.0,0.0,0.0,0.0,0.0,0.0,0.0,0.0,0.0,0.0,0.0,0.0,0.0,0.0,0.0,0.0,0.0,0.0,0.0,0.0,0.0,0.0,0.0,0.0,0.0,0.0,0.0,0.0,0.0,0.0,0.0,0.0,0.0,0.0,0.0,0.0,0.0,0.0,0.0,0.0,0.0,0.0,0.0,0.0,0.0,0.0,0.0,0.0,0.0,0.0,0.0,0.0,0.0,0.0,0.0,0.0,0.0,0.0,0.0,0.0,0.0,0.0,0.0,0.0,0.0,0.0,0.0,0.0,0.0,0.0,0.0,0.0,0.0,0.0,0.0,0.0,0.0,0.0,0.0,0.0,0.0,0.0,0.0,0.0,0.0,0.0,0.0,0.0,0.0,0.0,0.0,0.0,0.0,0.0,0.0,0.0,0.0,0.0,0.0,0.0,0.0,0.0,0.0,0.0,0.0,0.0,0.0,0.0,0.0,0.0,0.0,0.0,0.0,0.0,0.0,0.0,0.0,0.0,0.0,0.0,0.0,0.0,0.0,0.0,0.0,0.0,0.0,0.0,0.0,0.0,0.0,0.0,0.0,0.0,0.0,0.0,0.0,0.0,0.0,0.0,0.0,0.0,0.0,0.0,0.0,0.0,0.0,0.0,0.0,0.0,0.0,0.0,0.0,0.0,0.0,0.0,0.0,0.0,0.0,0.0,0.0,0.0,0.0,0.0,0.0,0.0,0.0,0.0,0.0,0.0,0.0,0.0,0.0,0.0,0.0,0.0,0.0,0.0,0.0,0.0,0.0,0.0,0.0,0.0,0.0,0.0,0.0,0.0,0.0,0.0,0.0,0.0,0.0,0.0,0.0,0.0,0.0,0.0,0.0,0.0,0.0,0.0,0.0,0.0,0.0,0.0,0.0,0.0,0.0,0.0,0.0,0.0,0.0,0.0,0.0,0.0,0.0,0.0,0.0,0.0,0.0,0.0,0.0,0.0,0.0,0.0,0.0,0.0,0.0,0.0,0.0,0.0,0.0,0.0,0.0,0.0,0.0,0.0,0.0,0.0,0.0,0.0,0.0,0.0,0.0,0.0,0.0,0.0,0.0,0.0,0.0,0.0,0.0,0.0,0.0,0.0,0.0,0.0,0.0,0.0,0.0,0.0,0.0,0.0,0.0,0.0,0.0,0.0,0.0,0.0,0.0,0.0,0.0,0.0,0.0,0.0,0.0,0.0,0.0,0.0,0.0,0.0,0.0,0.0,0.0,0.0,0.0,0.0,0.0,0.0,0.0,0.0,0.0,0.0,0.0,0.0,0.0,0.0,0.0,0.0,0.0,0.0,0.0,0.0,0.0,0.0,0.0,0.0,0.0,0.0,0.0,0.0,0.0,0.0,0.0,0.0,0.0,0.0,0.0,0.0,0.0,0.0,0.0,0.0,0.0,0.0,0.0,0.0,0.0,0.0,0.0,0.0,0.0,0.0,0.0,0.0,0.0,0.0,0.0,0.0,0.0,0.0,0.0,0.0,0.0,0.0,0.0,0.0,0.0,0.0,0.0,0.0,0.0,0.0,0.0,0.0,0.0,0.0,0.0,0.0,0.0,0.0,0.0,0.0,0.0,0.0,0.0,0.0,0.0,0.0,0.0,0.0,0.0,0.0,0.0,0.0,0.0,0.0,0.0,0.0,0.0,0.0,0.0,0.0,0.0,0.0,0.0,0.0,0.0,0.0,0.0,0.0,0.0,0.0,0.0,0.0,0.0,0.0,0.0,0.0,0.0,0.0,0.0,0.0,0.0,0.0,0.0,0.0,0.0,0.0,0.0,0.0,0.0,0.0,0.0,0.0,0.0,0.0,0.0,0.0,0.0,0.0,0.0,0.0,0.0,0.0,0.0,0.0,0.0,0.0,0.0,0.0,0.0,0.0,0.0,0.0,0.0,0.0,0.0,0.0,0.0,0.0,0.0,0.0,0.0,0.0,0.0,0.0,0.0,0.0,0.0,0.0,0.0,0.0,0.0,0.0,0.0,0.0,0.0,0.0,0.0,0.0,0.0,0.0,0.0,0.0,0.0,0.0,0.0,0.0,0.0,0.0,0.0,0.0,0.0,0.0,0.0,0.0,0.0,0.0,0.0,0.0,0.0,0.0,0.0,0.0,0.0,0.0,0.0,0.0,0.0,0.0,0.0,0.0,0.0,0.0,0.0,0.0,0.0,0.0,0.0,0.0,0.0,0.0,0.0,0.0,0.0,0.0,0.0,0.0,0.0,0.0,0.0,0.0,0.0,0.0,0.0,0.0,0.0,0.0,0.0,0.0,0.0,0.0,0.0,0.0,0.0,0.0,0.0,0.0,0.0,0.0,0.0,0.0,0.0,0.0,0.0,0.0,0.0,0.0,0.0,0.0,0.0,0.0,0.0,0.0,0.0,0.0,0.0,0.0,0.0,0.0,0.0,0.0,0.0,0.0,0.0,0.0,0.0,0.0,0.0,0.0,0.0,0.0,0.0,0.0,0.0,0.0,0.0,0.0,0.0,0.0,0.0,0.0,0.0,0.0,0.0,0.0,0.0,0.0,0.0,0.0,0.0,0.0,0.0,0.0,0.0,0.0,0.0,0.0,0.0,0.0,0.0,0.0,0.0,0.0,0.0,0.0,0.0,0.0,0.0,0.0,0.0,0.0,0.0,0.0,0.0,0.0,0.0,0.0,0.0,0.0,0.0,0.0,0.0,0.0,0.0,0.0,0.0,0.0,0.0,0.0,0.0,0.0,0.0,0.0,0.0,0.0,0.0,0.0,0.0,0.0,0.0,0.0,0.0,0.0,0.0,0.0,0.0,0.0,0.0,0.0,0.0,0.0,0.0,0.0,0.0,0.0,0.0,0.0,0.0,0.0,0.0,0.0,0.0,0.0,0.0,0.0,0.0,0.0,0.0,0.0,0.0,0.0,0.0,0.0,0.0,0.0,0.0,0.0,0.0,0.0,0.0,0.0,0.0,0.0,0.0,0.0,0.0,0.0,0.0,0.0,0.0,0.0,0.0,0.0,0.0,0.0,0.0,0.0,0.0,0.0,0.0,0.0,0.0,0.0,0.0,0.0,0.0,0.0,0.0,0.0,0.0,0.0,0.0,0.0,0.0,0.0,0.0,0.0,0.0,0.0,0.0,0.0,0.0,0.0,0.0,0.0,0.0,0.0,0.0,0.0,0.0,0.0,0.0,0.0,0.0,0.0,0.0,0.0,0.0,0.0,0.0,0.0,0.0,0.0,0.0,0.0,0.0,0.0,0.0,0.0,0.0,0.0,0.0,0.0,0.0,0.0,0.0,0.0,0.0,0.0,0.0,0.0,0.0,0.0,0.0,0.0,0.0,0.0,0.0,0.0,0.0,0.0,0.0,0.0,0.0,0.0,0.0,0.0,0.0,0.0,0.0,0.0,0.0,0.0,0.0,0.0,0.0,0.0,0.0,0.0,0.0,0.0,0.0,0.0,0.0,0.0,0.0,0.0,0.0,0.0,0.0,0.0,0.0,0.0,0.0,0.0,0.0,0.0,0.0,0.0,0.0,0.0,0.0,0.0,0.0,0.0,0.0,0.0,0.0,0.0,0.0,0.0,0.0,0.0,0.0,0.0,0.0,0.0,0.0,0.0,0.0,0.0,0.0,0.0,0.0,0.0,0.0,0.0,0.0,0.0,0.0,0.0,0.0,0.0,0.0,0.0,0.0,0.0,0.0,0.0,0.0,0.0,0.0,0.0,0.0,0.0,0.0,0.0,0.0,0.0,0.0,0.0,0.0,0.0,0.0,0.0,0.0,0.0,0.0,0.0,0.0,0.0,0.0,0.0,0.0,0.0,0.0,0.0,0.0,0.0,0.0,0.0,0.0,0.0,0.0,0.0,0.0,0.0,0.0,0.0,0.0,0.0,0.0,0.0,0.0,0.0,0.0,0.0,0.0,0.0,0.0,0.0,0.0,0.0,0.0,0.0,0.0,0.0,0.0,0.0,0.0,0.0,0.0,0.0,0.0,0.0,0.0,0.0,0.0,0.0,0.0,0.0,0.0,0.0,0.0,0.0,0.0,0.0,0.0,0.0,0.0,0.0,0.0,0.0,0.0,0.0,0.0,0.0,0.0,0.0,0.0,0.0,0.0,0.0,0.0,0.0,0.0,0.0,0.0,0.0,0.0,0.0,0.0,0.0,0.0,0.0,0.0,0.0,0.0,0.0,0.0,0.0,0.0,0.0,0.0,0.0,0.0,0.0,0.0,0.0,0.0,0.0,0.0,0.0,0.0,0.0,0.0,0.0,0.0,0.0,0.0,0.0,0.0,0.0,0.0,0.0,0.0,0.0,0.0,0.0,0.0,0.0,0.0,0.0,0.0,0.0,0.0,0.0,0.0,0.0,0.0,0.0,0.0,0.0,0.0,0.0,0.0,0.0,0.0,0.0,0.0,0.0,0.0,0.0,0.0,0.0,0.0,0.0,4.2109,4.1855,0.0,0.0,0.0,0.0,0.0,0.0,0.0,0.0,0.0,0.0,0.0,0.0,0.0,0.0,0.0,0.0,0.0,0.0,0.0,0.0,0.0,0.0,0.0,4.315,4.3329,4.3329,4.3658,4.3988,4.4287,4.5274,4.5963,4.6322,4.695,4.7309,4.7309,4.7309,4.7309,4.7309,4.7309,4.7459,4.7758,4.7459,4.7309,4.7279,0.0,0.0,0.0,0.0,0.0,0.0,0.0,0.0,0.0,0.0,0.0,0.0,0.0,0.0,0.0,0.0,0.0,0.0,0.0,0.0,0.0,0.0,0.0,0.0,0.0,0.0,0.0,0.0,0.0,0.0,0.0,0.0,0.0,0.0,0.0,0.0,0.0,0.0,0.0,0.0,0.0,0.0,0.0,0.0,0.0,0.0,0.0,0.0,0.0,0.0,0.0,0.0,0.0,0.0,0.0,0.0,0.0,0.0,0.0,0.0,0.0,0.0,0.0,0.0,0.0,0.0,0.0,0.0,0.0,0.0,4.3281,4.2715,0.0,0.0,0.0,0.0,0.0,0.0,0.0,0.0,0.0,0.0,0.0,0.0,0.0,0.0,0.0,0.0,0.0,0.0,0.0,0.0,0.0,4.294,4.2402,4.294,4.3329,4.3329,4.3329,4.3569,4.4107,4.4855,4.5544,4.6112,4.689,4.7309,4.7309,4.7309,4.7309,4.7309,4.7549,4.7997,4.8626,4.8297,4.8087,4.7967,4.7519,0.0,0.0,0.0,0.0,0.0,0.0,0.0,0.0,0.0,0.0,0.0,0.0,0.0,0.0,0.0,0.0,0.0,0.0,0.0,0.0,0.0,0.0,0.0,0.0,0.0,0.0,0.0,0.0,0.0,0.0,0.0,0.0,0.0,0.0,0.0,0.0,0.0,0.0,0.0,0.0,0.0,0.0,0.0,0.0,0.0,0.0,0.0,0.0,0.0,0.0,0.0,0.0,0.0,0.0,0.0,0.0,0.0,0.0,0.0,0.0,0.0,0.0,0.0,4.4726,4.5215,4.6113,4.5742,4.582,4.6172,4.5,4.4121,4.3516,4.3457,0.0,0.0,0.0,0.0,0.0,0.0,0.0,0.0,0.0,0.0,0.0,0.0,0.0,0.0,0.0,0.0,0.0,0.0,0.0,4.2462,4.2372,4.294,4.3329,4.3329,4.3329,4.3359,4.3449,4.4616,4.5334,4.5424,4.6621,4.7309,4.7309,4.7309,4.7309,4.7309,4.8446,4.9344,5.0002,5.105,5.1259,5.0601,4.8327,4.8267,4.9733,0.0,0.0,0.0,0.0,0.0,0.0,0.0,0.0,0.0,0.0,0.0,0.0,0.0,0.0,0.0,0.0,0.0,0.0,0.0,0.0,0.0,0.0,0.0,0.0,0.0,0.0,0.0,0.0,0.0,0.0,0.0,0.0,0.0,0.0,0.0,0.0,0.0,0.0,0.0,0.0,0.0,4.856,4.9188,0.0,0.0,0.0,0.0,0.0,0.0,0.0,0.0,0.0,0.0,0.0,0.0,0.0,4.3223,4.4043,4.4473,4.5137,4.6055,4.6055,4.6699,4.7871,4.7812,4.8027,4.8398,4.7851,0.0,4.5312,4.4922,0.0,0.0,0.0,0.0,0.0,0.0,0.0,0.0,0.0,0.0,0.0,0.0,0.0,0.0,0.0,0.0,0.0,0.0,0.0,0.0,0.0,4.306,4.3898,4.3898,4.4586,4.4706,4.3928,4.5484,4.6082,4.5334,4.6591,4.7309,4.7309,4.7309,4.7848,4.8955,5.0272,5.1439,5.2486,5.2665,5.2995,5.3354,5.1468,5.0481,5.0152,4.8925,0.0,0.0,0.0,0.0,0.0,0.0,0.0,0.0,0.0,0.0,0.0,0.0,0.0,0.0,0.0,0.0,0.0,0.0,0.0,0.0,0.0,0.0,0.0,0.0,0.0,0.0,0.0,0.0,0.0,0.0,0.0,0.0,0.0,0.0,0.0,0.0,0.0,0.0,0.0,4.9314,5.0268,5.0519,5.1096,5.1222,0.0,0.0,0.0,0.0,0.0,0.0,0.0,0.0,0.0,4.3867,4.4316,4.4844,4.5469,4.6133,4.6894,4.7773,4.8242,4.8769,4.9316,4.9551,4.9648,4.959,4.9394,4.8613,4.7383,4.6211,4.4339,4.2292,0.0,0.0,0.0,0.0,3.4596,3.2865,0.0,0.0,0.0,0.0,0.0,0.0,0.0,0.0,0.0,0.0,0.0,0.0,4.2319,4.4126,4.5221,4.5011,4.6018,4.6117,4.4646,4.6142,4.6621,4.5603,4.6681,4.7309,4.7309,4.7638,4.8775,5.075,5.1887,5.3234,5.47,5.4341,5.473,5.5628,5.482,5.3443,5.1678,5.0331,4.9583,4.9194,0.0,0.0,0.0,0.0,0.0,0.0,0.0,0.0,0.0,0.0,0.0,0.0,0.0,0.0,0.0,0.0,0.0,0.0,0.0,0.0,0.0,0.0,0.0,0.0,0.0,0.0,0.0,0.0,0.0,0.0,0.0,0.0,0.0,0.0,0.0,0.0,0.0,5.1247,5.2026,5.1724,5.3055,5.3078,0.0,0.0,0.0,0.0,0.0,0.0,4.6685,4.5483,4.5019,4.5664,4.6211,4.6758,4.7285,4.8144,4.9004,4.9883,5.0527,5.0879,5.0996,5.1328,5.123,5.082,5.0586,4.9738,4.8401,4.6715,4.437,4.1706,4.0702,3.8585,3.581,3.423,3.3514,3.2799,0.0,0.0,0.0,0.0,0.0,0.0,0.0,0.0,0.0,0.0,0.0,4.3262,4.4607,4.6771,4.7775,4.6843,4.7494,4.7169,4.5357,4.5963,4.6352,4.6262,4.692,4.7309,4.7309,4.8536,5.0122,5.2097,5.2785,5.4132,5.6077,5.6645,5.6944,5.7034,5.7603,5.7124,5.5658,5.2486,5.1468,5.1768,4.9254,0.0,0.0,0.0,0.0,0.0,0.0,0.0,0.0,0.0,0.0,0.0,0.0,0.0,0.0,0.0,0.0,0.0,0.0,0.0,0.0,0.0,0.0,0.0,0.0,0.0,0.0,0.0,0.0,0.0,0.0,0.0,0.0,0.0,0.0,0.0,0.0,0.0,0.0,5.298,5.5189,0.0,0.0,0.0,0.0,4.8982,4.8233,4.7963,4.8421,4.6726,4.6172,4.7422,4.8262,4.9101,4.998,5.082,5.168,5.2519,5.2558,5.2793,5.3203,5.3223,5.2988,5.2539,5.1719,4.9926,4.7328,4.5716,4.4191,4.2765,4.0159,3.7533,3.5234,3.5048,3.36,3.1826,0.0,0.0,0.0,0.0,0.0,0.0,4.0309,4.0239,4.0304,4.0381,4.2199,4.3873,4.4837,4.6747,4.8075,4.8146,4.8201,4.7764,4.6621,4.683,4.677,4.6352,4.6561,4.7279,4.8536,4.9853,5.1498,5.3503,5.4581,5.5688,5.6765,5.7453,5.7752,5.7782,5.8441,5.874,5.8471,5.5179,5.3414,5.2665,5.09,4.9523,0.0,0.0,0.0,0.0,0.0,0.0,0.0,0.0,0.0,0.0,0.0,0.0,0.0,0.0,0.0,0.0,0.0,0.0,0.0,0.0,0.0,0.0,0.0,0.0,0.0,0.0,0.0,0.0,0.0,0.0,0.0,0.0,0.0,0.0,0.0,0.0,0.0,5.6093,5.6486,0.0,5.3921,5.192,5.0348,4.9182,4.8237,4.7854,4.8293,4.8193,4.8613,4.9629,5.0488,5.1211,5.1797,5.2676,5.3262,5.3555,5.3848,5.3906,5.3808,5.4082,5.3808,5.3105,5.2812,5.0697,4.749,4.5049,4.2157,3.9228,3.8037,3.5868,3.3545,3.3545,3.2982,3.2251,0.0,0.0,0.0,0.0,0.0,4.133,4.0826,4.069,4.0824,4.1134,4.3301,4.5239,4.6253,4.8022,4.9363,4.9658,4.9197,4.8546,4.788,4.7452,4.71,4.6681,4.686,4.7818,4.9553,5.087,5.2516,5.4551,5.5418,5.6376,5.7453,5.7663,5.8022,5.8471,5.9129,5.9668,5.9967,5.8022,5.6166,5.4341,5.2606,5.1349,5.0361,0.0,0.0,0.0,0.0,0.0,0.0,0.0,0.0,0.0,0.0,0.0,0.0,0.0,0.0,0.0,0.0,0.0,0.0,0.0,0.0,0.0,0.0,0.0,0.0,0.0,0.0,0.0,0.0,0.0,0.0,0.0,0.0,0.0,0.0,5.6043,5.76,5.8353,5.82,5.7385,5.5509,5.2625,5.0404,4.9433,4.9148,4.9277,4.9707,5.043,5.1152,5.1875,5.2578,5.3086,5.3379,5.4238,5.4746,5.4902,5.5332,5.539,5.5117,5.5254,5.4487,5.2721,5.2436,4.9804,4.5393,4.3263,4.0091,3.6392,3.596,3.4506,3.2986,3.2879,3.2839,3.2826,0.0,0.0,0.0,0.0,0.0,4.0758,4.069,4.069,4.1186,4.2621,4.4973,4.7272,4.917,5.0847,5.1745,5.1467,5.0461,4.9605,4.8821,4.7819,4.7279,4.7309,4.7967,4.8955,5.0272,5.1558,5.3204,5.5179,5.5179,5.6166,5.8052,5.7393,5.7812,5.9129,5.9787,6.0116,6.0176,6.0835,5.9608,5.7034,5.4401,5.3324,5.2995,0.0,0.0,0.0,0.0,0.0,0.0,0.0,0.0,0.0,0.0,0.0,0.0,0.0,0.0,0.0,0.0,0.0,0.0,0.0,0.0,0.0,0.0,0.0,0.0,0.0,0.0,0.0,0.0,0.0,0.0,0.0,0.0,0.0,5.5516,5.7851,5.9583,5.9503,6.012,5.8958,5.4974,5.4294,5.2927,4.9914,5.1211,5.2324,5.2754,5.3164,5.3613,5.4082,5.4512,5.4746,5.4765,5.5586,5.6211,5.664,5.7031,5.7226,5.7226,5.6816,5.4813,5.1496,5.0525,4.6717,4.1168,4.0525,3.8039,3.4723,3.4135,3.3895,3.3841,3.3521,3.3414,3.3374,0.0,0.0,0.0,0.0,0.0,4.2141,4.0894,4.069,4.1186,4.2621,4.491,4.729,4.9393,5.1021,5.1745,5.1467,5.0021,4.8912,4.846,4.7272,4.68,4.7279,4.8386,4.9823,5.1618,5.2486,5.3653,5.5179,5.5179,5.5718,5.6705,5.6974,5.7812,5.9129,5.9787,6.0625,6.1523,6.1224,6.0954,6.0535,5.8351,5.6615,5.5179,0.0,0.0,0.0,0.0,0.0,0.0,0.0,0.0,0.0,0.0,0.0,0.0,0.0,0.0,0.0,0.0,0.0,0.0,0.0,0.0,0.0,0.0,0.0,0.0,0.0,0.0,0.0,0.0,0.0,0.0,0.0,5.5968,5.6997,5.8202,6.006,6.1222,6.1039,6.0481,5.9189,5.6607,5.4862,5.3607,5.2812,5.3223,5.3691,5.4121,5.4258,5.4648,5.539,5.584,5.6211,5.6523,5.7051,5.7383,5.7519,5.7637,5.7676,5.7676,5.7558,5.5516,5.1929,5.1712,4.764,4.1183,4.0765,3.8354,3.5017,3.4429,3.3935,3.3534,3.344,3.3414,3.34,0.0,0.0,0.0,0.0,0.0,4.2395,4.1396,4.1198,4.1901,4.3699,4.5721,4.7756,4.9941,5.0576,5.1048,5.1357,4.9128,4.792,4.845,4.7387,4.716,4.8087,4.9134,5.0601,5.2576,5.3264,5.4132,5.5179,5.5478,5.5927,5.6585,5.7214,5.8082,5.9129,5.9787,6.0685,6.1672,6.1583,6.1912,6.2421,6.1224,5.9757,5.8052,5.6137,5.5119,5.4361,5.2034,5.2408,5.3644,5.112,0.0,0.0,0.0,0.0,0.0,0.0,0.0,0.0,0.0,0.0,0.0,0.0,0.0,0.0,0.0,0.0,0.0,0.0,0.0,0.0,0.0,0.0,0.0,0.0,5.7399,5.8823,5.9747,6.0654,6.1473,6.2374,6.0465,5.8794,5.7718,5.5666,5.4492,5.4316,5.4805,5.5215,5.5469,5.582,5.623,5.6719,5.6992,5.7246,5.748,5.791,5.8144,5.8144,5.832,5.8437,5.8437,5.8203,5.5464,5.079,5.0459,4.6339,3.9843,3.9284,3.7526,3.5311,0.0,0.0,0.0,0.0,3.3414,3.3414,0.0,0.0,0.0,4.3323,4.252,4.1885,4.1981,4.1949,4.2751,4.517,4.6812,4.8464,5.0443,4.9985,4.9973,5.1101,4.8317,4.7068,4.8656,4.7946,4.8117,4.9434,5.0242,5.1528,5.3354,5.4132,5.479,5.5299,5.5957,5.6555,5.7094,5.7812,5.853,5.9249,5.9817,6.0505,6.1253,6.1852,6.248,6.3079,6.3079,6.2331,6.0954,5.8501,5.7872,5.8112,5.6196,5.5658,5.5718,5.4619,0.0,0.0,0.0,0.0,0.0,0.0,0.0,0.0,0.0,0.0,0.0,0.0,0.0,0.0,0.0,0.0,0.0,0.0,0.0,0.0,0.0,0.0,0.0,0.0,5.8873,6.0365,6.0757,6.0007,6.0333,6.2777,6.0001,5.8105,5.8162,5.6669,5.539,5.5058,5.6094,5.6758,5.6797,5.7519,0.0,0.0,0.0,5.8027,5.8027,5.8418,5.8594,5.8594,5.9004,5.8956,5.8693,5.8267,5.4576,4.8244,4.7749,4.3682,3.7702,3.6874,3.6112,3.5444,3.4603,3.4095,3.3801,3.3521,3.3414,3.3414,0.0,0.0,0.0,4.3323,4.1981,4.1198,4.1853,4.1396,4.2034,4.5074,4.6812,4.8364,5.0051,5.0488,5.0399,4.9801,4.834,4.7721,4.8317,4.8743,4.9464,5.078,5.2516,5.3862,5.479,5.5927,5.6346,5.5987,5.6615,5.6974,5.7094,5.7812,5.877,5.9907,6.0027,6.0775,6.1912,6.2032,6.248,6.3079,6.3079,6.26,6.1792,6.0745,6.0086,5.9518,5.8082,5.859,5.9389,5.5721,5.4766,5.445,5.0793,4.8212,0.0,0.0,0.0,0.0,0.0,0.0,0.0,0.0,0.0,0.0,0.0,0.0,0.0,0.0,0.0,0.0,0.0,0.0,0.0,5.9257,5.9487,5.9976,6.2197,5.9837,5.8256,5.8706,5.9148,5.8727,5.719,5.6796,5.6953,5.7226,5.748,5.7793,5.8125,5.8301,5.8555,5.8906,5.8945,5.8945,5.8945,5.9004,5.9062,5.9062,5.9121,0.0,5.5401,5.4998,5.1381,4.5056,4.4613,4.1792,3.7422,3.6767,3.5885,3.487,3.4215,3.3774,3.3494,3.3427,3.3414,3.3414,0.0,0.0,0.0,0.0,4.1917,4.133,4.133,4.1028,4.1574,4.401,4.5172,4.6403,4.8034,4.8291,4.8339,4.8117,4.7472,4.7425,4.8295,4.8895,5.0301,5.2606,5.3683,5.482,5.6107,5.6765,5.6944,5.6645,5.7304,5.7603,5.7633,5.8291,5.8979,5.9608,5.9937,6.0655,6.1613,6.1972,6.248,6.3079,6.3079,6.2869,6.254,6.2211,6.1882,6.1493,6.0835,6.0743,6.0442,5.7859,5.6604,5.5634,5.2359,5.0435,4.9127,0.0,0.0,0.0,0.0,0.0,0.0,0.0,0.0,0.0,0.0,0.0,0.0,0.0,0.0,5.4486,5.5591,0.0,5.8905,6.0839,6.0747,6.0887,6.1649,6.0006,5.851,5.8712,5.8519,5.8172,5.7384,5.7402,5.7637,5.7851,5.8086,5.8379,5.8828,5.9062,5.9277,5.9473,5.9512,5.9414,5.918,5.918,5.9062,5.8867,5.7432,5.5692,5.3877,5.2289,4.8684,4.388,4.3384,4.0841,3.7088,3.6366,3.5551,3.4723,3.4282,3.3921,3.3627,3.3467,3.3414,3.32,0.0,0.0,0.0,0.0,0.0,4.1788,4.1264,4.1064,4.1449,4.2909,4.3579,4.448,4.5917,4.5824,4.5866,4.6313,4.6312,4.692,4.8386,4.9224,5.105,5.4251,5.476,5.5688,5.7274,5.7543,5.7603,5.7483,5.8171,5.8501,5.853,5.9189,5.9488,5.9518,6.0057,6.0655,6.1343,6.1882,6.248,6.3079,6.3079,6.3079,6.3079,6.3079,6.3079,6.3079,6.2701,6.1615,6.0076,5.9066,5.7561,5.579,5.3704,5.2749,5.205,4.947,4.9213,0.0,0.0,0.0,0.0,0.0,0.0,0.0,0.0,5.2754,5.3306,5.4737,5.5491,5.6244,5.7449,5.9207,6.0781,6.1719,6.1634,6.1348,6.0424,5.9603,5.916,5.9428,5.8199,5.7519,5.7969,5.7988,5.8086,5.8203,5.8594,5.8945,5.9414,5.9746,5.9922,5.9922,5.9922,5.9746,5.9297,5.9297,5.8859,5.7706,5.5076,5.3246,5.1574,4.9139,4.6017,4.2518,4.2032,3.9992,3.6727,3.6006,3.5364,3.4817,3.4456,3.3752,3.3081,3.2729,3.2585,3.2183,0.0,0.0,0.0,0.0,0.0,4.2269,4.2925,4.2332,4.2173,4.3007,4.3709,4.4477,4.525,4.5101,4.488,4.4589,4.5657,4.713,4.9045,5.0301,5.2217,5.497,5.6765,5.7782,5.7992,5.9159,5.9458,5.889,5.9548,5.9877,5.9877,6.0565,6.0894,6.0894,6.0954,6.1373,6.2002,6.2061,6.248,6.3079,6.3079,6.3079,6.3079,6.3079,6.3079,6.2933,6.1377,6.0027,5.8774,5.665,5.5146,5.4047,5.3674,5.2927,5.2144,5.1674,5.1021,5.0167,4.9515,4.9766,5.0494,5.1548,5.2277,5.3005,0.0,5.5039,5.5942,5.662,5.7223,5.8102,5.9659,6.0563,6.1247,6.1466,6.0517,5.9517,5.9306,5.7916,5.7344,5.8544,5.8188,5.7969,5.8418,5.8476,5.8769,5.9531,5.9629,5.9863,6.0273,6.0332,6.0371,6.0371,6.0371,6.0156,5.9746,5.9746,5.8081,5.4855,5.4283,5.1063,4.5717,4.4688,4.241,3.9114,3.8276,3.7424,3.6166,3.6059,3.5672,3.5097,3.4536,3.2814,3.0622,2.9915,2.9736,2.9319,0.0,0.0,0.0,0.0,0.0,4.252,4.1885,4.1462,4.1189,4.0955,4.1503,4.2129,4.2407,4.3057,4.3546,4.3688,4.4945,4.6741,4.9105,5.084,5.3144,5.6166,5.7483,5.8471,5.9249,5.9787,6.0146,6.0266,6.0535,6.0685,6.0685,6.0984,6.1104,6.1134,6.1523,6.1852,6.2121,6.251,6.281,6.3079,6.3079,6.3079,6.2903,6.1644,6.0882,6.0559,5.9798,5.8594,0.0,5.4754,5.3453,5.2869,5.28,5.2904,5.2904,5.2277,5.2,5.1749,5.1197,5.1473,5.2151,5.3256,5.4185,5.5139,5.6244,5.6872,5.7424,5.8303,5.9182,6.0211,6.1542,6.3023,6.3637,6.2527,6.1532,6.0545,5.9284,5.8103,5.7344,5.7402,5.8144,5.8789,5.9238,5.9277,5.9512,6.0137,6.0156,6.0371,6.0801,6.0801,6.0801,6.0801,6.0801,6.0508,5.9805,5.7931,5.617,5.4111,5.0249,4.7099,4.4352,4.2076,3.9903,3.8143,3.7261,3.658,3.6046,3.5698,3.4437,3.2536,3.209,3.0117,2.7731,2.8836,2.8291,2.6444,0.0,0.0,0.0,0.0,0.0,0.0,4.1264,4.1064,4.0622,3.9553,3.9828,4.0187,4.0367,4.1564,4.2551,4.303,4.4257,4.6142,4.8835,5.0661,5.3294,5.6944,5.7932,5.9009,6.0326,6.0535,6.0894,6.1373,6.1373,6.1493,6.1642,6.1642,6.1642,6.1672,6.2151,6.2361,6.2391,6.2869,6.3079,6.3079,6.2555,6.232,6.1966,5.9677,5.8337,5.7651,5.735,5.6205,5.4433,5.2648,5.1613,5.1272,5.1724,5.2503,5.313,5.2528,5.2628,5.2879,5.2628,5.3055,5.3833,5.4787,5.5968,5.7148,5.8127,5.8579,5.9056,5.9985,6.109,6.2169,6.3099,6.4299,6.4548,6.2791,6.1615,6.0437,5.8746,5.784,5.7187,5.6797,5.7793,5.873,5.9394,5.9687,5.998,6.039,6.0547,6.0801,6.125,6.1269,6.1269,6.1269,6.1269,6.0379,5.8786,5.6439,5.3876,5.1235,4.6775,4.4018,4.2802,4.0014,3.8504,3.7782,3.6981,3.6393,3.6032,3.4645,3.2761,3.0564,2.9637,2.7229,2.4764,2.6418,2.5882,2.3775,0.0,0.0,0.0,0.0,0.0,0.0,0.0,4.1917,4.1362,3.9595,3.9439,3.9679,4.0337,4.1564,4.2372,4.2402,4.3599,4.5484,4.8147,4.9553,5.2336,5.6885,5.8381,5.9697,6.1044,6.1702,6.2061,6.2061,6.2061,6.2391,6.3019,6.3019,6.3019,6.3019,6.3049,6.3049,6.3049,6.3079,6.3079,6.2933,6.1258,6.0254,5.9558,5.7285,5.5798,5.4734,5.3547,5.205,5.0537,4.9977,4.9417,4.9163,5.0795,5.1699,5.2251,5.2754,5.2904,5.303,5.3507,5.4461,5.544,5.6018,5.7424,5.878,5.9332,6.0286,6.124,6.1818,6.2822,6.3776,6.4329,6.3348,6.2023,6.0907,5.9096,5.7572,5.6714,5.623,5.6289,5.709,5.6875,5.7168,5.8476,5.9336,5.998,6.039,6.084,6.125,6.166,6.1719,6.1719,6.1719,6.1719,5.9818,5.5913,5.5877,5.2164,4.5352,4.4801,4.287,3.9823,3.8704,3.8116,3.7782,3.7195,3.6607,3.5829,3.2662,3.1296,3.0586,2.7344,2.4362,2.1823,2.1635,2.1456,2.0903,0.0,0.0,0.0,0.0,0.0,0.0,0.0,0.0,0.0,3.9553,3.9409,0.0,0.0,0.0,0.0,0.0,4.3569,4.5065,4.686,4.9015,5.1319,5.3743,5.6376,5.8411,5.9757,6.0864,6.1882,6.275,6.275,6.2869,6.3079,6.3079,6.3079,6.3079,6.3079,6.3079,6.3079,6.3079,6.3318,6.3617,6.2112,6.1028,5.9961,5.6052,5.3508,5.1561,0.0,4.9187,4.9693,4.7993,4.8008,4.8937,4.9866,5.0795,5.1674,5.2226,5.3155,5.4059,5.4235,5.5641,5.7273,5.8177,5.9382,6.0688,6.1994,6.2571,6.2898,6.3099,6.2822,6.2621,6.2797,6.1788,6.0382,5.8836,5.8364,5.7695,5.6025,5.6582,5.6894,5.6055,5.709,5.7715,5.7285,5.8301,5.9512,6.0781,6.1015,6.1269,6.1719,6.1719,6.1719,6.1719,5.9503,5.7415,5.5913,5.1375,4.7698,4.5145,4.274,4.0807,3.9559,3.8878,3.8183,3.7489,3.6901,3.5093,3.2619,3.1272,2.8344,2.4615,2.3621,2.1347,1.8594,1.8638,1.8557,1.8222,0.0,0.0,0.0,0.0,0.0,0.0,0.0,0.0,0.0,0.0,0.0,0.0,0.0,0.0,0.0,0.0,0.0,4.4526,4.5873,4.7758,4.9643,5.1409,5.3982,5.5987,5.7334,5.8441,5.9518,6.0595,6.0835,6.1074,6.1313,6.1792,6.2002,6.2032,6.2271,6.2391,6.2391,6.2391,6.2221,6.1643,6.009,5.8404,5.6641,5.257,5.0061,0.0,4.6357,4.6739,4.8003,4.6914,4.7431,4.856,4.9113,5.0218,5.1398,5.195,5.3406,5.4913,5.5089,5.6922,5.8981,5.9885,6.109,6.237,6.345,6.3827,6.3927,6.3726,6.2797,6.1943,6.1743,5.9688,5.7688,5.6911,5.6168,5.5626,5.511,5.5898,5.6367,5.6035,5.6933,5.7461,5.707,5.7793,5.8945,6.0508,6.0781,6.0957,6.125,6.125,6.0786,5.9585,5.7396,5.4887,5.2352,4.7871,4.4964,4.336,4.0712,3.9412,3.9092,3.8504,3.7809,3.7048,3.5417,3.3472,3.0834,2.8431,2.5136,2.1483,2.0546,1.8954,1.7066,1.7161,1.71,1.6978,0.0,0.0,0.0,0.0,0.0,0.0,0.0,0.0,0.0,0.0,0.0,0.0,0.0,0.0,0.0,0.0,0.0,0.0,4.5095,4.5873,4.7399,4.9883,5.1319,5.2665,5.3982,5.467,5.5388,5.6077,5.6645,5.7304,5.7992,5.9249,5.9847,5.9877,6.0505,6.0805,6.0805,6.0805,5.9605,5.7542,5.5355,5.2798,5.0208,4.7445,4.6043,4.5422,4.4844,4.502,4.5698,4.6753,4.7481,4.8083,4.8661,4.9992,5.1448,5.2026,5.3758,5.5591,5.6168,5.8328,6.0537,6.1115,6.2496,6.3701,6.3726,6.4103,6.4304,6.3676,6.2647,6.1642,6.104,5.7102,5.4431,5.5285,5.2888,5.1836,5.4394,5.4453,5.4961,5.6973,5.6523,5.6543,5.7754,5.7871,5.8437,5.9687,6.0195,6.043,6.043,6.0221,5.8786,5.5932,5.5411,5.2116,4.5878,4.5608,4.3619,4.0,3.9118,3.8544,3.8223,3.7397,3.6799,3.6022,3.2835,3.1087,3.0147,2.4346,2.1796,2.1201,1.8452,1.7311,1.7182,1.7182,1.71,1.6978,0.0,0.0,0.0,0.0,0.0,0.0,0.0,0.0,0.0,0.0,0.0,0.0,0.0,0.0,0.0,0.0,0.0,0.0,4.3808,4.4915,4.5843,4.6531,4.8775,5.0391,5.1229,5.2366,5.3533,5.47,5.485,5.5299,5.5957,5.6286,5.6436,5.6436,5.6615,5.6705,5.6705,5.6705,5.609,5.5163,5.3955,5.21,4.9781,4.7617,4.6334,4.5422,4.4844,4.5246,4.615,4.6426,4.7707,4.9264,4.9816,5.087,5.2076,5.303,5.4863,5.6821,5.7775,5.9784,6.1718,6.227,6.3048,6.3802,6.4178,6.4379,6.3952,6.2195,6.0613,5.9131,5.7725,5.4586,5.2636,5.4339,5.3549,5.3398,5.5332,5.6348,5.6973,5.7187,5.7598,5.7851,5.7871,5.8144,5.8652,5.9297,6.0039,6.043,6.043,5.8589,5.6942,5.5913,5.0901,4.7601,4.5878,4.2827,4.0999,3.9706,3.8798,3.8223,3.7916,3.4806,3.3396,3.2822,2.9666,2.66,2.3908,2.2369,2.0481,1.8128,1.7298,1.7066,1.7032,1.7032,1.7012,1.6978,0.0,0.0,0.0,0.0,0.0,0.0,0.0,0.0,0.0,0.0,0.0,0.0,0.0,0.0,0.0,0.0,0.0,0.0,0.0,4.4018,4.4436,4.4436,4.6142,4.7249,4.7638,4.8656,4.9823,5.1169,5.1468,5.2097,5.3025,5.3593,5.3862,5.3892,5.4192,5.4311,5.4311,5.4311,5.3245,0.0,0.0,4.9255,4.6768,4.5927,4.5374,4.5095,4.502,4.6024,4.7431,4.7682,4.8912,5.0519,5.1523,5.2477,5.3457,5.4762,5.657,5.8303,5.9156,6.0839,6.2496,6.3073,6.345,6.3626,6.3425,6.3375,6.2772,6.0563,5.878,5.7248,5.6068,5.3011,5.1131,5.2879,5.2353,5.2539,5.5039,5.6172,5.707,5.7969,5.8359,5.8496,5.8437,5.8652,5.8945,5.918,5.9629,5.926,5.8023,5.6373,5.4281,5.1375,4.7492,4.4666,4.335,4.0862,3.9452,3.8985,3.8103,3.6761,3.4979,3.2821,3.0883,2.9304,2.6236,2.3727,2.1635,2.0293,1.8646,1.6978,1.6978,1.6978,1.6978,1.6978,1.6978,1.6978,0.0,0.0,0.0,0.0,0.0,0.0,0.0,0.0,0.0,0.0,0.0,0.0,4.1384,4.14,0.0,0.0,0.0,0.0,0.0,0.0,4.3329,4.3329,4.3898,4.4197,4.4197,4.4736,4.5663,4.692,4.7578,4.8506,4.9733,5.096,5.1558,5.1588,5.2157,5.2396,5.2396,5.2204,5.0394,4.7529,4.746,4.5581,4.2836,0.0,4.4141,4.4719,4.5522,4.7079,4.8887,4.959,5.0619,5.185,5.3256,5.426,5.5214,5.6796,5.8378,5.9734,6.0362,6.1667,6.2973,6.355,6.3626,6.3274,6.2144,6.1843,6.1115,5.8755,5.7123,5.5892,5.5189,5.2127,5.0028,5.1552,5.062,5.0918,5.4433,5.5293,5.6465,5.8887,5.8828,5.8769,5.9121,5.918,5.918,5.918,5.8732,5.7495,5.5067,5.4337,5.1222,4.5083,4.4563,4.3078,3.996,3.9372,3.8758,3.8143,3.6841,3.4549,3.1562,3.0653,2.8652,2.5821,2.2639,2.1383,2.0963,1.8294,1.7107,1.6978,1.6978,1.6978,1.6978,1.6978,1.6978,1.6978,0.0,0.0,0.0,0.0,0.0,0.0,0.0,0.0,0.0,0.0,4.1408,0.0,0.0,0.0,0.0,0.0,0.0,0.0,0.0,0.0,0.0,4.3329,4.3449,4.3509,4.3509,4.3629,4.4047,4.4825,4.5484,4.6232,4.701,4.7788,4.8147,4.8147,4.8267,4.8327,4.8238,4.7161,4.5816,4.4263,4.4077,4.31,4.1781,4.3237,4.4141,0.0,4.6803,4.8033,4.8987,5.0494,5.2,5.3331,5.3607,5.5039,5.6846,5.8077,5.9257,6.0412,6.1441,6.2245,6.2973,6.355,6.3324,6.2697,6.1592,6.0939,5.9734,5.6595,5.5742,5.5089,5.3632,5.1248,5.0361,5.2733,5.1775,5.1914,5.5723,5.6621,5.7461,5.9004,5.9121,5.9121,5.918,5.918,5.918,5.918,5.6817,5.511,5.4818,5.2936,4.8602,4.1519,4.095,4.0439,3.968,3.9092,3.8357,3.7529,3.4382,3.2469,3.1304,2.6048,2.3448,2.2613,1.9589,1.8129,1.7854,1.7415,1.7107,1.6978,1.6978,1.6978,1.6978,1.6978,1.6978,1.6761,0.0,0.0,0.0,0.0,0.0,0.0,0.0,0.0,0.0,0.0,4.4789,4.354,0.0,0.0,0.0,0.0,0.0,0.0,0.0,0.0,0.0,4.3329,4.3329,4.3329,4.3329,4.3329,4.3658,4.4317,0.0,4.5633,4.6322,4.701,4.7309,4.7309,4.7309,4.7309,4.7222,4.5958,4.4627,4.3519,4.3238,4.2422,4.1555,4.3489,4.4945,0.0,4.7431,4.846,4.9414,5.082,5.2352,5.3808,5.4386,5.5717,5.7374,5.9056,5.991,6.0638,6.2044,6.2621,6.2973,6.355,6.2822,6.1617,6.0211,5.9006,5.7399,5.4662,5.431,5.3878,5.1779,5.1592,5.138,5.079,5.1005,5.2279,5.4619,5.5664,5.6875,5.8652,5.9062,5.918,5.918,5.918,5.8469,5.6798,5.5603,5.4142,5.2694,4.8156,4.4148,4.0267,3.996,3.9519,3.8905,3.691,3.527,3.4417,3.1113,2.8551,2.6473,2.3448,2.1157,1.9566,1.8122,1.7324,1.7188,1.7114,1.7039,1.6978,1.6978,1.6978,1.6768,1.5271,1.4802,1.4319,0.0,0.0,0.0,0.0,0.0,0.0,0.0,4.5974,4.6515,4.8714,4.8082,4.6684,4.5033,4.433,4.3833,0.0,0.0,0.0,0.0,0.0,0.0,0.0,4.3329,4.3329,4.3329,0.0,0.0,4.4107,4.4766,0.0,0.0,0.0,0.0,0.0,4.7309,4.7309,4.7222,4.5958,4.4627,0.0,0.0,4.2422,4.1605,0.0,0.0,0.0,0.0,4.8736,4.9741,5.0745,5.2101,5.3532,5.4536,5.5942,5.7575,5.9433,6.0236,6.0814,6.227,6.2747,6.2948,6.34,6.2245,6.0563,5.893,5.7248,5.544,5.3356,5.3331,5.2973,5.0508,5.1538,5.1601,4.8582,4.9638,5.1433,5.2953,5.418,5.5762,5.8125,5.8769,5.9062,5.918,5.918,5.8,5.47,5.3504,5.1806,4.9277,4.3878,4.0468,3.9773,3.9452,3.8878,3.7996,3.4693,3.2502,3.1539,2.782,2.4767,2.2143,2.1357,1.9753,1.7541,1.7297,1.7175,1.7141,1.7026,1.6978,1.6978,1.6302,1.6079,1.5654,1.287,1.1749,1.1475,0.0,0.0,0.0,0.0,0.0,0.0,0.0,4.5297,4.6515,4.8714,4.9429,4.9385,4.8327,4.6207,4.4545,0.0,0.0,0.0,0.0,0.0,0.0,0.0,0.0,0.0,0.0,0.0,0.0,4.3419,4.4077,0.0,0.0,0.0,0.0,0.0,0.0,4.7309,4.7222,4.5958,0.0,0.0,0.0,0.0,0.0,0.0,0.0,0.0,0.0,4.9088,4.969,5.0293,5.1272,5.2352,5.2955,5.5315,5.7951,5.8654,5.9935,6.124,6.1893,6.2446,6.2847,6.2898,6.1642,5.996,5.8353,5.6671,5.4988,5.3281,5.3331,5.3097,5.0962,4.9973,4.9339,4.8567,4.7612,4.8169,5.2168,5.3223,5.4629,5.7578,5.832,5.8769,5.9121,5.918,5.8,5.47,4.9078,4.5584,4.565,4.2388,4.0,3.8865,3.8544,3.7969,3.7088,3.3826,3.2053,3.128,2.5777,2.2734,2.1957,1.9154,1.771,1.7236,1.7202,1.7121,1.6998,1.6985,1.6978,1.6755,1.4081,1.3193,1.2761,0.9963,0.8895,0.8486,0.0,0.0,0.0,0.0,0.0,0.0,0.0,4.55,4.6819,4.9932,4.983,4.9805,5.076,4.8649,4.6414,0.0,0.0,0.0,0.0,0.0,0.0,0.0,0.0,0.0,0.0,0.0,4.3329,4.3329,4.3988,0.0,0.0,0.0,0.0,0.0,0.0,4.7309,4.7222,4.5958,0.0,0.0,0.0,0.0,0.0,0.0,0.0,0.0,0.0,0.0,4.9741,5.0645,5.0996,5.1297,5.2528,5.3833,5.5265,5.7148,5.8654,5.9935,6.119,6.2144,6.2822,6.2822,6.1065,5.9106,5.8127,5.6068,5.411,5.313,5.3331,5.3097,5.1034,5.0842,5.0108,4.7602,4.7093,4.7693,4.9385,5.0449,5.2363,5.5898,5.6933,5.7851,5.9062,5.7284,5.4021,4.8734,4.4044,4.1226,4.1207,3.9998,3.9052,3.821,3.609,3.4532,3.3696,2.8791,2.6048,2.5624,2.1341,1.9342,1.9208,1.7836,1.7311,1.7188,1.71,1.7032,1.6768,1.506,1.4371,1.4087,1.1313,1.0215,0.9752,0.7035,0.5974,0.554,0.0,0.0,0.0,0.0,0.0,0.0,4.4722,4.5399,4.6887,5.0135,4.983,4.9999,5.1792,5.0291,4.8259,4.6126,0.0,0.0,0.0,0.0,0.0,0.0,0.0,0.0,0.0,0.0,4.3329,4.3329,4.3988,4.4317,0.0,0.0,4.6142,4.6352,0.0,0.0,0.0,0.0,0.0,0.0,0.0,0.0,0.0,0.0,0.0,0.0,0.0,0.0,0.0,0.0,0.0,5.0921,5.2251,5.2804,5.3381,5.5641,5.7323,5.873,6.0085,6.1366,6.2345,6.2345,6.0512,5.8529,5.7801,5.5742,5.3758,5.308,5.3014,5.2445,5.0378,5.048,4.9557,4.5878,4.5879,4.6446,4.6915,4.8125,5.0254,5.375,5.4805,5.6035,5.8027,5.4708,4.9904,4.4215,4.0722,3.8437,3.7635,3.7742,3.7595,3.7195,3.4048,3.1899,3.1118,2.5115,2.2122,2.1857,1.8904,1.7399,1.7351,1.7243,1.7168,1.7121,1.6163,1.5672,1.5425,1.267,1.155,1.1249,0.8317,0.7244,0.6789,0.411,0.2864,0.2646,0.0,0.0,0.0,0.0,0.0,0.0,0.0,4.4722,4.6515,4.8748,4.9627,5.0371,5.115,5.0541,4.9715,4.876,0.0,0.0,0.0,0.0,0.0,0.0,0.0,0.0,0.0,0.0,4.3329,4.3329,4.3988,4.4317,4.4317,4.5005,4.5663,4.6322,0.0,0.0,0.0,0.0,0.0,0.0,0.0,0.0,4.4744,0.0,0.0,0.0,0.0,0.0,0.0,0.0,0.0,0.0,0.0,5.2477,5.3155,5.426,5.6168,5.8027,5.8604,5.9935,6.119,6.119,5.996,5.8428,5.7298,5.5742,5.4235,5.3155,5.2132,5.0748,4.8636,4.7454,4.6078,4.3613,4.3437,4.418,4.5508,4.6797,4.8555,5.1172,5.1855,5.3144,5.5723,5.1358,4.6768,4.3233,3.977,3.7315,3.6153,3.5819,3.5658,3.5645,3.3007,3.1095,3.0314,2.4606,2.1865,2.1857,1.8904,1.7344,1.7195,1.7195,1.7114,1.6768,1.399,1.2655,1.2548,0.9627,0.8539,0.8256,0.5324,0.4288,0.3875,0.1013,0.0,0.0,0.0,0.0,0.0,0.0,0.0,0.0,0.0,4.3504,4.4959,4.7192,4.7699,4.8511,5.027,4.9796,4.94,4.9617,0.0,0.0,0.0,0.0,0.0,0.0,0.0,0.0,0.0,0.0,4.3329,4.3329,4.3988,4.4317,4.4347,4.5484,4.6112,4.6352,4.68,4.71,0.0,0.0,0.0,0.0,0.0,4.3976,4.4744,0.0,0.0,0.0,0.0,0.0,0.0,0.0,0.0,0.0,0.0,0.0,0.0,5.3231,5.4737,5.6294,5.6872,5.7951,5.9031,5.9408,5.8252,5.6922,5.6545,5.5164,5.3783,5.308,5.2899,5.2425,5.0678,4.9328,4.7826,4.5995,4.4558,4.3965,4.4707,4.6152,4.8203,5.1094,5.416,5.4565,5.0784,4.9045,4.5662,3.9701,3.7863,3.658,3.5805,3.5311,3.4163,3.2225,2.9247,2.6638,2.4185,2.0621,1.8682,1.8579,1.7537,1.7093,1.7046,1.6937,1.5806,1.407,1.2942,1.1433,0.9537,0.664,0.5577,0.5326,0.2456,0.1427,0.1215,0.0404,0.0,0.0,0.0,0.0,0.0,0.0,0.0,0.0,0.0,4.276,4.4045,4.5737,4.621,4.7225,4.9424,4.9018,4.8984,4.9999,0.0,0.0,0.0,0.0,0.0,0.0,0.0,0.0,0.0,4.3329,4.3449,4.3718,4.4377,4.4676,4.4706,4.5813,4.6322,4.6352,4.6741,4.707,0.0,0.0,0.0,0.0,4.4356,4.4281,4.4719,0.0,0.0,0.0,0.0,0.0,0.0,0.0,0.0,0.0,0.0,0.0,0.0,0.0,5.3658,5.4612,5.539,5.6394,5.7349,5.7675,5.6821,5.5842,5.5641,5.4612,5.3557,5.303,5.2899,5.233,5.0554,4.9041,4.7432,4.5386,4.4136,4.3574,4.3867,4.5508,4.7754,5.0625,5.332,5.2577,4.7122,4.5892,4.3011,3.7545,3.6393,3.5752,3.5164,3.3615,3.1622,2.8566,2.6818,2.4385,2.128,1.8506,1.6985,1.6897,1.6836,1.6809,1.6802,1.566,1.4157,1.2487,1.0351,0.8451,0.0,0.3693,0.2652,0.2426,0.0605,0.0,0.0,0.0,0.0,0.0,0.0,0.0,0.0,0.0,0.0,0.0,0.0,0.0,0.0,0.0,4.5196,4.6515,4.8612,4.8274,4.8477,4.9898,0.0,0.0,0.0,0.0,0.0,0.0,0.0,0.0,0.0,4.3329,4.3629,4.4257,4.4945,4.5304,4.5304,4.6052,4.6381,4.6381,4.6381,4.6741,0.0,0.0,0.0,0.0,4.451,4.4338,0.0,0.0,0.0,0.0,0.0,0.0,0.0,0.0,0.0,0.0,0.0,0.0,0.0,0.0,0.0,0.0,0.0,5.5189,5.5993,5.6018,5.5641,5.5139,5.4612,5.4084,0.0,5.308,5.2156,5.0748,4.8658,4.7242,4.5436,4.284,4.2832,4.3125,4.3164,4.5137,4.75,5.0019,5.0027,4.8542,4.4936,4.2679,3.9965,3.6651,3.5631,3.491,3.4322,3.1495,2.8324,2.5225,2.52,2.3767,2.0903,1.8062,1.6768,1.6761,1.6619,1.6339,1.6121,1.3643,1.2184,1.1554,0.6402,0.4113,0.367,0.1012,0.0,0.0,0.0,0.0,0.0,0.0,0.0,0.0,0.0,0.0,0.0,0.0,0.0,0.0,0.0,0.0,0.0,0.0,4.4857,4.6109,4.7192,4.7665,4.8274,0.0,0.0,0.0,0.0,0.0,0.0,0.0,0.0,0.0,0.0,4.3329,4.3419,4.3569,4.4736,4.5304,4.5334,4.6531,4.707,4.707,4.707,4.716,0.0,0.0,0.0,0.0,4.5365,4.5179,0.0,0.0,0.0,0.0,4.7606,4.836,0.0,0.0,0.0,0.0,0.0,0.0,0.0,0.0,5.2929,5.298,5.3256,0.0,5.3783,5.4185,5.4185,5.4059,0.0,5.3808,5.3658,5.3557,5.24,5.0772,4.8809,4.7523,4.5752,4.3293,4.3281,4.3691,4.4043,4.707,4.9863,5.1445,5.1014,4.8736,4.4815,4.232,3.9456,3.5764,3.511,3.4603,3.4015,3.1006,2.8144,2.5215,2.3202,2.0737,1.8013,1.7356,1.6924,1.6924,1.689,1.5755,1.3554,1.2932,1.0149,0.6137,0.4708,0.2855,0.1012,0.0201,0.0,0.0,0.0,0.0,0.0,0.0,0.0,0.0,0.0,0.0,0.0,0.0,0.0,0.0,0.0,0.0,0.0,0.0,0.0,0.0,0.0,0.0,0.0,0.0,0.0,0.0,0.0,0.0,0.0,0.0,0.0,4.4004,4.4004,4.3566,4.3479,4.3778,4.4796,4.5454,4.5783,4.683,4.7309,4.7309,4.7309,4.7309,0.0,0.0,0.0,4.7071,4.5693,0.0,0.0,0.0,0.0,0.0,4.7255,4.8083,0.0,5.0419,5.1071,5.1473,0.0,0.0,0.0,0.0,5.2929,5.2929,5.2929,5.2929,5.3055,5.3582,5.3507,5.3406,5.3658,5.3507,5.3053,5.2165,5.247,5.1677,4.7771,4.7614,4.6923,4.3573,4.3262,4.3848,4.5098,4.7754,5.0117,5.1601,4.9403,4.7009,4.4881,4.0846,3.7575,3.5442,3.4683,3.3586,3.2022,2.9052,2.624,2.3362,2.0613,1.8351,1.6978,1.691,1.6836,1.6768,1.5446,1.4088,1.2318,0.9861,0.6953,0.4057,0.264,0.1416,0.0,0.0,0.0,0.0,0.0,0.0,0.0,0.0,0.0,-0.0188,0.0,0.0,0.0,0.0,0.0,0.0,0.0,0.0,0.0,0.0,0.0,0.0,0.0,0.0,0.0,0.0,0.0,0.0,0.0,0.0,0.0,0.0,0.0,4.4812,4.4812,4.3849,4.3599,4.4167,4.4915,4.5603,4.6172,4.695,4.7309,4.7309,4.7309,4.7309,0.0,0.0,4.7377,4.7384,4.5985,0.0,0.0,0.0,0.0,0.0,0.0,0.0,0.0,5.0117,5.087,5.1473,5.2578,0.0,0.0,0.0,0.0,0.0,5.2929,5.2929,5.3055,5.3582,5.3306,5.3055,5.3582,5.3306,5.2377,5.0626,5.2111,5.2017,4.6498,4.7039,4.7361,4.3795,4.3398,4.4297,4.6406,4.8066,4.9629,5.1152,4.7155,4.4375,4.4507,3.8821,3.5097,3.5004,3.4309,3.2596,2.9805,2.6907,2.3913,2.1018,1.8211,1.6781,1.691,1.6781,1.644,1.5897,1.352,1.1777,1.0667,0.6052,0.3832,0.3216,0.1009,0.0,0.0,0.0,0.0,0.0,0.0,0.0,0.0,0.0,-0.0185,-0.0923,0.0,0.0,0.0,0.0,0.0,0.0,0.0,0.0,0.0,0.0,0.0,0.0,0.0,0.0,0.0,0.0,0.0,0.0,0.0,0.0,0.0,4.8798,4.6205,4.4812,4.4812,4.3849,4.3389,4.3479,4.4706,4.5334,4.5484,4.6711,4.7309,4.7309,4.7309,4.7309,4.7309,4.7309,4.7969,4.8862,4.7478,0.0,0.0,0.0,0.0,0.0,0.0,0.0,0.0,5.0444,5.1197,5.1473,5.2578,0.0,0.0,0.0,0.0,0.0,5.2929,5.2929,5.3055,5.3582,5.3306,5.3055,5.3582,5.3306,5.2601,5.1393,5.0188,4.8619,4.6435,4.5188,4.4395,4.3758,4.4844,4.6426,4.8223,4.9336,5.0215,5.082,4.6764,4.3599,4.274,3.7987,3.4629,3.4122,3.3961,3.2618,2.9474,2.6573,2.3625,2.0824,1.7975,1.6564,1.6592,1.6571,1.5302,1.3011,1.2579,1.0049,0.5293,0.4517,0.2851,0.0599,0.0201,0.0,0.0,0.0,0.0,0.0,0.0,0.0,0.0,0.0,-0.1278,-0.3641,0.0,0.0,0.0,0.0,0.0,0.0,0.0,0.0,0.0,0.0,0.0,0.0,0.0,0.0,0.0,0.0,0.0,0.0,0.0,0.0,0.0,4.8984,4.6763,4.5561,4.5561,4.4894,4.4364,4.3868,4.5185,4.5843,4.5873,4.686,4.7309,4.7309,4.7309,4.7309,4.7339,4.7698,4.8386,4.9103,0.0,0.0,0.0,0.0,0.0,0.0,0.0,0.0,0.0,0.0,5.0519,5.1423,5.2226,0.0,0.0,0.0,0.0,0.0,5.2929,5.2929,5.313,5.3959,5.3758,5.3482,5.4034,5.3063,5.1681,5.0063,4.9314,4.7904,4.5041,4.519,4.5488,4.4856,4.5644,4.666,4.7676,4.8359,4.9023,4.9668,4.5541,4.2575,4.2262,3.7475,3.4108,3.3668,3.348,3.1365,2.6926,2.5502,2.2791,1.8404,1.6926,1.6246,1.6164,1.4669,1.3495,1.2408,0.9512,0.664,0.3994,0.2609,0.12,0.0,0.0,0.0,0.0,0.0,0.0,0.0,0.0,0.0,-0.0182,-0.1447,-0.4326,-0.7732,0.0,0.0,0.0,0.0,0.0,0.0,0.0,0.0,0.0,0.0,0.0,0.0,0.0,0.0,0.0,0.0,0.0,0.0,0.0,0.0,4.824,4.8984,4.7605,4.6662,4.6173,4.5472,4.4874,4.4317,4.5514,4.6262,4.6561,4.707,4.7309,4.7309,4.7309,4.7399,4.7578,4.8087,4.8745,4.9342,0.0,0.0,0.0,0.0,0.0,0.0,0.0,0.0,0.0,0.0,0.0,0.0,0.0,0.0,0.0,5.2929,5.2929,5.2929,5.2929,5.2929,5.313,5.3959,5.3934,5.3884,5.4587,5.2961,5.0943,4.8967,4.8519,4.7233,4.3696,4.5046,4.6596,4.5871,4.6191,4.6816,4.7441,4.7832,4.832,4.9082,4.4778,4.1915,4.2097,3.7095,3.3614,3.324,3.2933,3.0231,2.4594,2.4335,2.184,1.6357,1.6001,1.5649,1.4906,1.2235,1.0944,1.1173,0.6346,0.3746,0.2938,0.0979,0.0,0.0,0.0,0.0,0.0,0.0,0.0,0.0,0.0,-0.0362,-0.1076,-0.358,-0.7146,-1.0717,0.0,0.0,0.0,0.0,0.0,0.0,0.0,0.0,0.0,0.0,0.0,0.0,0.0,0.0,0.0,0.0,0.0,0.0,0.0,0.0,4.824,4.8984,4.8861,4.7998,4.6244,4.4389,4.3768,4.4317,4.5035,4.6022,4.7249,4.7279,4.7309,4.7309,4.7309,4.7638,4.8207,4.8267,4.9015,4.9968,4.8595,0.0,0.0,0.0,0.0,0.0,0.0,0.0,0.0,0.0,0.0,0.0,0.0,0.0,5.2929,5.2929,5.2929,5.2929,5.2929,5.2929,5.2955,5.303,5.3381,5.3984,5.5089,5.3254,5.0889,4.9395,4.7523,4.5561,4.3554,4.3954,4.4837,4.5527,4.6699,4.793,4.916,4.9375,4.957,5.0019,4.5346,4.208,4.1766,3.6744,3.3213,3.2652,3.2332,2.9673,2.433,2.3922,2.1211,1.5883,1.554,1.4228,1.1983,0.9236,0.7996,0.8026,0.5289,0.2745,0.0196,0.0,0.0,0.0,0.0,0.0,0.0,0.0,0.0,0.0,0.0,-0.1436,-0.358,-0.5901,-0.8397,-1.1072,0.0,0.0,0.0,0.0,0.0,0.0,0.0,0.0,0.0,0.0,0.0,0.0,0.0,0.0,0.0,0.0,0.0,0.0,0.0,4.7225,4.7767,4.8951,4.845,4.7803,4.7104,4.6529,4.5834,4.4915,4.6022,4.68,4.7309,4.7309,4.7309,4.7309,4.7309,4.7668,4.8327,4.8716,4.9404,5.0117,4.8553,4.7866,0.0,0.0,0.0,0.0,0.0,0.0,0.0,0.0,5.0243,5.1348,5.1774,5.2377,5.2929,5.2929,5.2929,5.2929,5.2929,5.2929,5.3005,5.3331,5.3557,5.3603,5.301,5.1812,5.0294,4.8178,4.643,4.4992,4.4111,4.418,4.4687,4.5547,4.6523,4.7539,4.8555,4.8711,4.8769,4.8926,4.4489,4.1073,4.0726,3.5807,3.2425,3.2024,3.0357,2.7557,2.3667,2.1916,1.9268,1.5547,1.5215,1.3927,1.1361,0.872,0.6709,0.5282,0.2646,0.0946,0.0,0.0,0.0,0.0,0.0,0.0,0.0,0.0,0.0,-0.018,-0.1616,-0.3759,-0.6079,-0.8397,-1.0895,-1.304,0.0,0.0,0.0,0.0,0.0,0.0,0.0,0.0,0.0,0.0,0.0,0.0,0.0,0.0,0.0,0.0,0.0,0.0,4.6684,4.6786,4.7462,4.8951,4.8353,4.7868,4.7605,4.7755,4.7164,4.5737,4.6791,4.7309,4.7309,4.7309,4.7309,4.7309,4.7309,4.7788,4.8626,4.9075,4.9763,5.0351,4.8647,4.7901,0.0,0.0,0.0,0.0,0.0,0.0,0.0,0.0,5.0042,5.1322,5.1498,5.2176,5.2929,5.2929,5.2929,5.2929,5.2929,5.2929,5.3005,5.3356,5.3582,5.3056,5.0736,5.0209,4.956,4.7208,4.5633,4.4473,4.4062,4.4082,4.4414,4.5156,4.6094,4.7031,4.7891,4.8008,4.8008,4.8008,4.3634,4.0281,3.9918,3.5017,3.1664,3.1289,2.8607,2.5876,2.3086,2.0463,1.7723,1.5045,1.4152,1.2529,0.9848,0.7481,0.4933,0.2562,0.0917,0.0,0.0,0.0,0.0,0.0,0.0,0.0,0.0,0.0,-0.0538,-0.1255,-0.3045,-0.5544,-0.8397,-1.0002,-1.2148,-1.4299,0.0,0.0,0.0,0.0,0.0,0.0,0.0,0.0,0.0,0.0,0.0,0.0,0.0,0.0,0.0,0.0,0.0,0.0,4.6684,4.6786,4.7462,4.8951,4.9018,4.8576,4.7638,4.7335,4.7024,4.6717,4.7099,4.7309,4.7309,4.7309,4.7309,4.7309,4.7309,4.8027,4.9284,4.9284,5.0032,5.0976,4.8816,4.7901,4.7722,0.0,0.0,0.0,0.0,0.0,0.0,0.0,5.0343,5.1373,5.1925,5.2477,5.2929,5.2929,5.2929,5.2929,5.2929,5.2929,5.2929,5.2929,5.3306,5.265,4.8657,4.8379,4.8764,4.7284,4.5148,4.3574,4.3164,4.3418,4.3848,4.4316,4.5469,4.6601,4.7441,4.7578,4.7578,4.7578,4.304,3.9901,3.9521,3.4475,3.0969,3.0394,2.7591,2.4744,2.2202,1.9662,1.7246,1.474,1.221,0.9738,0.7149,0.4829,0.233,0.0,0.0,0.0,0.0,0.0,0.0,0.0,0.0,0.0,0.0,0.0,-0.1434,-0.358,-0.358,-0.6611,-1.0717,-1.0712,-1.232,-1.4299,0.0,0.0,0.0,0.0,0.0,0.0,0.0,0.0,0.0,0.0,0.0,0.0,0.0,0.0,0.0,0.0,0.0,0.0,4.5974,4.6515,4.7225,4.8206,4.8714,4.8861,4.8576,4.8069,4.7338,4.6381,4.7031,4.7309,4.7309,4.7309,4.7549,4.7997,4.7997,4.8716,4.9942,4.9942,5.0451,5.1006,4.9296,4.8562,4.8379,0.0,0.0,0.0,0.0,0.0,0.0,0.0,0.0,0.0,5.1473,5.2176,5.2929,5.2929,5.2929,5.2929,5.2929,5.2929,5.2929,5.2929,5.2009,5.0342,4.784,4.9605,5.103,4.8741,4.5532,4.3418,4.3906,4.3848,4.375,4.3887,4.5,4.6055,4.6601,4.668,4.668,4.668,4.1942,3.8578,3.823,3.3158,2.9927,2.9753,2.5581,2.2705,2.1989,1.7869,1.5291,1.4577,1.2084,0.9496,0.7146,0.4829,0.233,0.0,0.0,0.0,0.0,0.0,0.0,0.0,0.0,0.0,-0.018,-0.1793,-0.3032,-0.3894,-0.7244,-0.936,-1.076,-1.2259,-1.3275,-1.3994,0.0,0.0,0.0,0.0,0.0,0.0,0.0,0.0,0.0,0.0,4.3673,0.0,0.0,0.0,0.0,0.0,0.0,0.0,0.0,4.6819,4.7564,4.8308,4.8781,4.8807,4.8332,4.8181,4.7497,4.6322,4.698,4.7309,4.7309,4.7578,4.7908,4.8297,4.8566,4.9254,5.0242,5.0242,5.0377,5.0661,4.9294,4.8545,4.8104,0.0,0.0,0.0,0.0,0.0,0.0,0.0,0.0,0.0,5.1548,5.2226,5.2929,5.2929,5.2929,5.2929,5.2929,5.2929,5.2929,5.2929,5.1443,4.9581,4.7739,4.8249,4.8575,4.7093,4.4998,4.3496,4.4023,4.375,4.3516,4.3672,4.4531,4.5312,4.5742,4.5801,4.5742,4.5566,4.098,3.7683,3.7169,3.2324,2.9259,2.9138,2.4413,2.1625,2.1625,1.7121,1.4428,1.4428,1.1109,0.8575,0.7146,0.3743,0.1426,0.0,0.0,0.0,0.0,0.0,0.0,0.0,0.0,0.0,-0.0177,-0.2476,-0.4048,-0.5245,-0.8904,-1.0998,-1.2038,-1.335,-1.3838,-1.3858,0.0,0.0,0.0,0.0,0.0,0.0,0.0,0.0,0.0,0.0,4.4079,4.4587,0.0,0.0,0.0,0.0,0.0,0.0,0.0,0.0,4.8206,4.8883,4.9052,4.8529,4.7357,4.785,4.7559,4.6322,4.698,4.7309,4.7309,4.7967,4.8327,4.8416,4.9075,4.9703,5.0331,5.0331,5.014,4.994,4.9119,4.8326,4.7372,4.6645,0.0,0.0,0.0,0.0,0.0,0.0,0.0,0.0,5.1875,5.2452,5.2929,5.2929,5.2929,5.2929,5.2929,5.2929,5.2929,5.2929,5.1303,4.9365,4.7634,4.5128,4.3086,4.3864,4.3778,4.3594,4.3633,4.3359,4.3242,4.3535,4.4043,4.4512,4.4805,4.4844,4.4707,4.4316,4.0179,3.7086,3.6439,3.1827,2.8845,2.8591,2.3948,2.1221,2.1221,1.6713,1.4278,1.4278,0.9619,0.7126,0.7126,0.2301,0.0,0.0,0.0,0.0,0.0,0.0,0.0,0.0,0.0,-0.0174,-0.0521,-0.2774,-0.5019,-0.7428,-0.9669,-1.1915,-1.3817,-1.3804,-1.3797,-1.3804,0.0,0.0,0.0,0.0,0.0,0.0,0.0,0.0,0.0,0.0,0.0,0.0,0.0,0.0,0.0,0.0,0.0,0.0,0.0,4.7496,4.8003,4.8139,4.9255,4.9294,4.8061,4.869,4.8138,4.6322,4.698,4.7309,4.7309,4.7967,4.8566,4.9075,4.9733,5.0391,5.102,5.102,5.0648,4.994,4.9119,4.8326,4.7372,4.6645,4.6828,0.0,0.0,0.0,0.0,0.0,0.0,0.0,5.1423,5.2126,5.2929,5.2929,5.2929,5.2929,5.2929,5.2929,5.2929,5.2929,5.0269,4.678,4.3351,4.2308,4.2744,4.5201,4.4,4.2812,4.3144,4.3418,4.3379,4.2793,4.3652,4.418,4.3574,4.3496,4.3457,4.3379,3.8861,3.5759,3.5609,3.1154,2.831,2.8243,2.3846,2.1221,2.1221,1.6768,1.4122,1.4122,0.9444,0.6969,0.6969,0.2266,0.0,0.0,0.0,0.0,0.0,0.0,0.0,0.0,0.0,-0.1037,-0.2743,-0.5176,-0.7402,-0.9739,-1.1962,-1.316,-1.3661,-1.3539,-1.3498,-1.3512,0.0,0.0,0.0,0.0,0.0,0.0,0.0,0.0,0.0,0.0,0.0,0.0,0.0,0.0,0.0,0.0,0.0,0.0,0.0,0.0,4.8578,4.8951,4.9695,4.966,4.8765,4.9149,4.8451,4.68,4.713,4.7459,4.7788,4.8446,4.9105,4.9763,5.0421,5.09,5.1229,5.1229,5.0525,4.9446,4.8913,4.8074,4.6887,4.6415,4.6828,4.7581,4.7832,0.0,0.0,0.0,0.0,0.0,0.0,0.0,5.2879,5.2603,5.2729,5.2579,5.1403,5.1247,5.0998,4.9081,4.7175,4.4827,4.1907,4.1348,4.1915,4.3432,4.2902,4.2266,4.2695,4.2773,4.2715,4.2461,4.3008,4.3301,4.2832,4.2754,4.2695,4.25,3.8238,3.5278,3.4948,3.0846,2.8136,2.8136,2.3869,2.1059,2.1059,1.6599,1.396,1.396,0.9366,0.6921,0.6921,0.2244,0.0,0.0,0.0,0.0,0.0,0.0,0.0,0.0,0.0,-0.0682,-0.2036,-0.5444,-0.7473,-0.8955,-1.2166,-1.3519,-1.3512,-1.3431,-1.3403,-1.341,0.0,0.0,0.0,0.0,0.0,0.0,0.0,0.0,0.0,0.0,0.0,0.0,0.0,0.0,0.0,0.0,0.0,0.0,0.0,0.0,0.0,5.0439,5.0473,5.0158,4.9501,4.9533,4.8732,4.7309,4.7429,4.7818,4.8476,4.9015,4.9613,5.0272,5.093,5.1229,5.1229,5.1229,5.0249,4.87,4.881,4.7761,4.6175,4.6276,4.6652,4.7205,4.7732,4.8284,4.8937,5.0042,0.0,0.0,0.0,0.0,5.2703,5.2226,5.2352,5.2092,5.0011,4.9719,4.8964,4.5105,4.4096,4.3663,4.1618,4.1172,4.1172,4.1172,4.1445,4.1797,4.2148,4.1992,4.1894,4.2168,4.2266,4.2285,4.2226,4.2207,4.207,4.1738,3.7899,3.5145,3.4684,3.0759,2.8136,2.8136,2.3744,2.1047,2.1047,1.643,1.3804,1.3804,0.9297,0.6884,0.6884,0.2224,0.0,0.0,0.0,0.0,0.0,0.0,0.0,0.0,0.0,-0.0505,-0.1513,-0.5198,-0.7201,-0.8207,-1.189,-1.3403,-1.3403,-1.3403,-1.3403,-1.3403,0.0,0.0,0.0,0.0,0.0,0.0,0.0,0.0,0.0,0.0,0.0,0.0,0.0,0.0,0.0,0.0,0.0,0.0,4.8815,0.0,0.0,5.1961,5.1995,5.1456,5.0237,5.0269,4.9313,4.7309,4.7878,4.8506,4.9134,4.9224,4.9613,5.0272,5.093,5.1229,5.1229,5.1229,4.9988,4.8066,4.8618,4.7522,4.5648,4.6125,4.6652,4.7205,4.7732,4.8284,4.8937,5.0042,5.0795,0.0,0.0,0.0,5.2201,5.2126,5.1825,5.1473,5.113,5.0181,4.8355,4.5019,4.4096,4.3663,4.1618,4.1172,4.1172,4.1172,4.1211,4.1269,4.1328,4.1601,4.1699,4.1387,4.1641,4.1758,4.1387,4.1348,4.1328,4.1269,3.749,3.4701,3.4668,3.0759,2.8136,2.8136,2.3744,2.1047,2.1047,1.6317,1.3654,1.3654,0.9127,0.6731,0.6731,0.2191,0.0,0.0,0.0,0.0,0.0,0.0,0.0,0.0,0.0,-0.2184,-0.5867,-0.6533,-0.904,-1.2561,-1.3231,-1.3403,-1.3403,-1.3403,-1.3403,-1.3403,0.0,0.0,0.0,0.0,0.0,0.0,0.0,0.0,0.0,0.0,0.0,0.0,0.0,0.0,0.0,4.7327,4.7733,4.8409,4.9526,4.9898,5.0744,5.2232,5.23,5.1688,5.0397,5.0397,4.9407,4.7309,4.7967,4.8626,4.9284,5.0002,5.072,5.1379,5.2037,5.2127,5.1768,5.1768,5.0481,4.8452,4.8728,4.7681,4.5974,4.6225,4.6828,4.7606,4.7832,4.8485,4.9314,4.9791,5.0343,5.0845,5.1071,0.0,0.0,0.0,5.1222,5.0921,4.8911,4.7133,4.5238,4.3104,4.2483,4.2196,4.1308,4.1172,4.1172,4.1172,4.1172,4.1172,4.1172,4.1328,4.1387,4.1211,4.1328,4.1387,4.1191,4.1172,4.1172,4.1172,3.7419,3.4569,3.4371,3.0481,2.7315,2.5954,2.2655,2.0012,1.8838,1.5439,1.3464,1.3376,0.8981,0.6618,0.6574,0.2143,0.0,0.0,0.0,0.0,0.0,0.0,0.0,0.0,-0.1346,-0.3023,-0.503,-0.7535,-0.9711,-1.1718,-1.2899,-1.3403,-1.3403,-1.3403,-1.3403,-1.3403,0.0,0.0,0.0,0.0,0.0,0.0,0.0,0.0,0.0,0.0,0.0,0.0,0.0,0.0,0.0,0.0,4.8071,4.8815,5.027,5.0371,5.1048,5.2536,5.2604,5.1888,5.0397,5.0397,4.9407,4.7309,4.8117,4.8775,4.9314,5.096,5.1977,5.2486,5.2965,5.2905,5.2456,5.2456,5.1175,4.9175,4.9055,4.7985,4.6349,4.632,4.6903,4.7732,4.7857,0.0,0.0,0.0,5.0067,5.0444,5.0594,5.082,0.0,0.0,0.0,5.0256,4.7376,4.5501,4.3909,4.218,4.1728,4.1614,4.1288,4.1172,4.1172,4.1172,4.1172,4.1172,4.1172,4.1172,4.1172,4.1172,4.1172,4.1172,4.1172,4.1172,4.0997,4.0353,3.694,3.4391,3.3629,2.9992,2.676,2.4353,2.1717,1.9406,1.7259,1.475,1.3124,1.2351,0.8698,0.637,0.5668,0.1949,0.0,0.0,0.0,0.0,0.0,0.0,-0.0328,-0.0834,-0.2497,-0.3999,-0.5341,-0.8645,-1.033,-1.1048,-1.2688,-1.3363,-1.3403,-1.3403,-1.3403,-1.3403,0.0,0.0,0.0,0.0,0.0,0.0,0.0,0.0,0.0,0.0,0.0,0.0,0.0,4.6955,4.7834,4.7902,4.8545,4.9593,5.1082,5.115,5.1826,5.3382,5.345,0.0,5.0397,5.0397,4.9407,4.7309,4.8596,4.9224,4.9314,5.1887,5.3084,5.3144,5.3174,5.3144,5.3144,5.3144,5.1945,5.0083,4.9732,4.8489,4.6664,4.6349,0.0,0.0,0.0,0.0,0.0,0.0,0.0,0.0,0.0,5.087,5.0469,0.0,0.0,0.0,4.7853,4.7318,4.6566,4.3931,4.3148,4.2844,4.1519,4.1172,4.1172,4.1172,4.1172,4.1172,4.1172,4.1172,4.1172,4.1172,4.1172,4.1172,4.1172,4.1172,4.0353,3.839,3.6121,3.3839,3.1692,2.9159,2.6838,2.4615,2.1814,1.9406,1.7259,1.4639,1.2351,1.0203,0.7819,0.5509,0.3406,0.1138,0.0,0.0,0.0,0.0,0.0,0.0,-0.1126,-0.2925,-0.3087,-0.5549,-0.9544,-0.9612,-1.1003,-1.3217,-1.3241,-1.3275,-1.3403,-1.3403,-1.3403,-1.3403,0.0,0.0,0.0,0.0,0.0,0.0,0.0,0.0,0.0,0.0,0.0,0.0,0.0,4.7597,4.8105,4.8578,4.9289,5.0338,5.1826,5.1928,5.2401,5.345,5.3518,5.2487,5.0474,5.0397,4.9407,4.7309,4.8207,4.8865,4.9314,5.1079,5.2157,5.2606,5.3892,5.4221,5.3832,5.3832,5.2859,0.0,0.0,0.0,0.0,0.0,0.0,0.0,0.0,0.0,0.0,0.0,0.0,0.0,0.0,0.0,4.9891,4.9891,4.949,4.8853,4.782,4.7258,4.6285,4.3585,4.3025,4.287,4.1164,4.0976,4.1172,4.1172,4.1172,4.1172,4.1172,4.1172,4.1172,4.1172,4.1172,4.1172,4.1172,4.1172,4.0841,4.0178,3.6922,3.4245,3.3355,2.9669,2.583,2.2146,2.0693,1.85,1.4795,1.3718,1.21,0.9827,0.7697,0.4788,0.1271,0.0318,0.0,0.0,0.0,0.0,0.0,-0.1423,-0.3159,-0.5229,-0.649,-0.8158,-0.9774,-1.1277,-1.2443,-1.3125,-1.3159,-1.3207,-1.3254,-1.3254,-1.3315,-1.3403,0.0,0.0,0.0,0.0,0.0,0.0,0.0,0.0,0.0,0.0,0.0,0.0,0.0,0.0,4.8951,4.9695,5.0202,5.098,5.2232,5.23,5.2672,5.345,5.3179,5.217,5.0397,5.0009,4.9004,4.7309,4.7967,4.8626,4.9284,5.0601,5.1558,5.2276,5.4072,5.461,5.4221,0.0,0.0,5.1937,0.0,0.0,4.8064,0.0,0.0,0.0,0.0,0.0,0.0,0.0,0.0,0.0,0.0,0.0,0.0,4.959,4.9339,4.8803,4.758,4.6855,4.5885,4.3092,4.2439,4.2228,4.067,4.0644,4.0957,4.0957,4.1074,4.1172,4.1172,4.1172,4.1172,4.1172,4.1172,4.1172,4.1172,4.1172,4.0685,3.9216,3.6442,3.4083,3.2383,2.9257,2.5338,2.0859,2.0079,1.79,1.3582,1.3152,1.1665,0.8549,0.5852,0.3,0.0,0.0,0.0,0.0,0.0,0.0,0.0,-0.2194,-0.4224,-0.641,-0.8439,-0.9798,-1.0787,-1.2282,-1.2949,-1.2963,-1.301,-1.3057,-1.3105,-1.3152,-1.3241,-1.3336,0.0,0.0,0.0,0.0,0.0,0.0,0.0,0.0,0.0,0.0,0.0,0.0,0.0,0.0,0.0,5.1183,5.1251,5.1555,5.23,5.2334,5.2672,5.3484,5.2487,5.1451,5.0397,4.9376,4.8377,4.7309,4.7938,4.8596,4.9284,5.0571,5.1528,5.2247,5.3563,5.4162,5.4192,0.0,5.395,5.2099,0.0,5.0847,4.7626,0.0,0.0,0.0,4.7958,4.8661,0.0,0.0,0.0,0.0,0.0,0.0,0.0,0.0,0.0,4.9152,0.0,0.0,0.0,4.272,4.1662,4.1027,4.0097,4.0176,4.0488,4.0508,4.0859,4.1152,4.1172,4.1172,4.1172,4.1172,4.1172,4.1172,4.1172,4.1172,3.955,3.5298,3.4813,3.3022,2.8615,2.7767,2.5413,2.1066,2.0324,1.7955,1.3556,1.295,1.0889,0.6417,0.2195,0.0,0.0,0.0,0.0,0.0,0.0,0.0,-0.0157,-0.2193,-0.4381,-0.6566,-0.8594,-1.0693,-1.2712,-1.2569,-1.2684,-1.2935,-1.2786,-1.282,-1.2969,-1.3112,-1.3166,-1.3193,0.0,0.0,0.0,0.0,0.0,0.0,0.0,0.0,0.0,0.0,0.0,0.0,0.0,0.0,0.0,5.1928,5.1995,5.2334,5.3112,5.3179,5.3281,5.3484,5.3179,5.2241,5.0397,5.0087,4.9085,4.7309,4.7489,4.8147,4.9284,4.9643,5.0421,5.1528,5.2366,5.2755,5.2875,5.4491,0.0,0.0,5.2177,5.073,0.0,0.0,0.0,0.0,0.0,4.9339,0.0,0.0,4.959,4.959,0.0,0.0,0.0,0.0,0.0,0.0,4.6343,0.0,0.0,0.0,0.0,0.0,3.9307,3.9258,3.9746,4.0391,4.0625,4.0801,4.1113,4.1172,4.1172,4.1172,4.1172,4.1172,4.1172,4.1172,4.0197,3.7419,3.5621,3.3579,3.0601,2.844,2.5338,2.0838,2.0069,1.7891,1.3568,1.003,0.7619,0.6414,0.2195,0.0,0.0,0.0,0.0,0.0,0.0,-0.0784,-0.235,-0.4381,-0.6566,-0.8594,-1.0779,-1.2057,-1.2569,-1.2637,-1.2651,-1.2637,-1.2705,-1.2759,-1.28,-1.284,-1.299,-1.318,0.0,0.0,0.0,0.0,0.0,0.0,0.0,0.0,0.0,0.0,0.0,0.0,0.0,0.0,0.0,0.0,5.2807,5.301,5.3484,5.3518,5.3518,5.3518,5.2661,5.1631,5.0397,4.9567,4.8543,4.7309,4.7309,4.7967,4.9254,4.9254,4.9972,5.1259,5.1917,5.2187,5.2306,0.0,0.0,0.0,5.1349,0.0,0.0,4.8865,4.8935,0.0,0.0,0.0,4.959,4.959,4.959,0.0,0.0,0.0,0.0,0.0,0.0,0.0,0.0,0.0,4.3982,4.0201,0.0,0.0,3.8314,3.8516,3.9082,3.9609,4.0137,4.0605,4.0859,4.1055,4.1172,4.1172,4.1172,4.1172,4.1172,4.1172,4.0021,3.6922,3.546,3.3385,2.9977,2.8235,2.53,2.058,2.0028,1.7494,1.21,0.8549,0.6042,0.5008,0.1725,0.0,0.0,0.0,0.0,0.0,0.0,-0.1098,-0.313,-0.5318,-0.7501,-0.9532,-1.156,-1.2501,-1.2508,-1.2596,-1.2583,-1.2508,-1.2603,-1.2637,-1.2644,-1.2705,-1.284,-1.3003,0.0,0.0,0.0,0.0,0.0,0.0,0.0,0.0,0.0,0.0,0.0,0.0,0.0,0.0,0.0,0.0,5.3518,5.3518,5.3518,5.3518,5.3518,5.3518,5.1631,5.0474,5.0397,4.846,4.7366,4.7309,4.7309,4.7938,4.9164,4.9224,4.9942,5.1139,5.1798,5.2001,5.1869,0.0,0.0,4.9447,5.0243,4.9239,0.0,0.0,4.9142,0.0,4.8862,4.9188,4.959,4.959,4.959,0.0,0.0,0.0,0.0,0.0,4.954,0.0,0.0,0.0,0.0,0.0,3.7578,0.0,3.7305,3.7851,3.8398,3.8476,3.9453,4.0312,4.0371,4.0742,4.1055,4.1094,4.1094,4.1113,4.1172,4.1172,3.9531,3.5137,3.4618,3.2833,2.8166,2.7224,2.5087,2.0539,1.9509,1.6436,1.0196,0.7758,0.5599,0.3133,0.1098,0.0,0.0,0.0,0.0,0.0,-0.0157,-0.1411,-0.3599,-0.563,-0.7816,-0.9842,-1.1702,-1.2488,-1.2501,-1.2481,-1.2488,-1.2501,-1.2501,-1.2501,-1.2515,-1.2657,-1.2718,-1.2766,0.0,0.0,0.0,0.0,0.0,0.0,0.0,0.0,0.0,0.0,0.0,0.0,0.0,0.0,0.0,0.0,0.0,5.3518,5.3518,5.3518,5.3518,5.3518,5.2241,5.1229,5.0397,4.9166,4.8157,4.7309,4.7309,4.7698,4.8506,4.9015,4.9673,5.0451,5.1109,5.078,4.9745,0.0,0.0,4.7415,4.9435,0.0,4.7857,4.9115,4.9469,4.9439,4.9439,4.9515,4.959,0.0,4.959,4.959,0.0,0.0,0.0,0.0,0.0,0.0,0.0,0.0,0.0,0.0,0.0,0.0,3.7305,3.7168,3.7226,3.791,3.8535,3.9062,3.9394,3.9844,4.0254,4.0586,4.0644,4.0781,4.1133,4.1172,3.9531,3.5137,3.4387,3.2471,2.7853,2.5577,2.3167,2.015,1.6537,1.3112,1.0035,0.7697,0.5551,0.3132,0.1098,0.0,0.0,0.0,0.0,0.0,-0.1725,-0.3599,-0.5786,-0.7812,-0.9998,-1.1869,-1.2226,-1.2393,-1.2494,-1.2379,-1.24,-1.2501,-1.2501,-1.2501,-1.2508,-1.2535,-1.2623,-1.2739,0.0,0.0,0.0,0.0,0.0,0.0,0.0,0.0,0.0,0.0,0.0,0.0,0.0,0.0,0.0,0.0,0.0,0.0,0.0,0.0,0.0,5.3518,5.2026,5.093,5.0397,4.8841,4.7849,4.7309,4.7309,4.7638,4.8297,4.8955,4.9613,5.0272,5.093,5.0508,4.9149,0.0,4.7975,4.6836,4.8092,0.0,4.8008,4.8862,4.9364,4.959,4.959,4.959,4.959,4.959,4.959,0.0,0.0,4.959,4.954,0.0,4.8695,4.7544,0.0,0.0,0.0,3.8445,0.0,0.0,0.0,3.6816,3.6797,3.7207,3.7812,3.832,3.8516,3.8926,3.9375,3.9805,3.9863,4.0019,4.0469,3.9912,3.7692,3.3178,3.2522,3.1007,2.7392,2.4926,2.2056,1.8475,1.5077,1.1696,0.8344,0.7179,0.4907,0.1725,0.0471,0.0,0.0,0.0,0.0,0.0,-0.2181,-0.4201,-0.641,-0.8384,-1.0406,-1.2488,-1.2271,-1.2298,-1.2488,-1.2345,-1.2372,-1.2501,-1.2501,-1.2501,-1.2501,-1.2501,-1.2549,-1.2623,0.0,0.0,0.0,0.0,0.0,0.0,0.0,0.0,0.0,0.0,0.0,0.0,0.0,0.0,0.0,0.0,0.0,0.0,0.0,0.0,0.0,5.3616,5.1671,5.0512,5.0278,4.8301,4.7309,4.7309,4.7309,4.7578,4.8117,4.8895,4.9553,5.0092,5.087,5.0287,4.8823,0.0,0.0,4.6386,0.0,4.738,4.7832,4.8385,4.8887,4.9264,4.9264,4.9339,4.9414,4.9314,0.0,4.9565,4.9464,4.9515,0.0,0.0,0.0,0.0,0.0,0.0,0.0,0.0,0.0,3.7305,0.0,0.0,0.0,3.6562,3.7148,3.7676,3.7676,3.8027,3.8418,3.8672,3.8848,3.8876,3.8773,3.7666,3.5712,3.2158,3.0938,2.9529,2.7616,2.4566,2.0909,1.6038,1.3953,1.1083,0.6684,0.6508,0.4424,0.0157,0.0,0.0,0.0,0.0,-0.0156,-0.0628,-0.2632,-0.4789,-0.6851,-0.8918,-1.0762,-1.24,-1.2135,-1.2169,-1.2406,-1.2291,-1.2332,-1.2461,-1.2488,-1.2501,-1.2501,-1.2501,-1.2501,-1.2522,4.9965,4.9965,0.0,0.0,0.0,0.0,0.0,0.0,0.0,0.0,0.0,0.0,0.0,0.0,0.0,0.0,0.0,0.0,5.6393,0.0,0.0,0.0,5.2268,0.0,4.9874,4.8207,4.7309,4.7309,4.7309,4.7339,4.7429,4.8686,4.9314,4.9434,5.0661,4.9776,0.0,0.0,4.7207,0.0,4.6451,4.7179,0.0,4.7807,4.8033,4.8109,4.8109,4.8435,4.8786,0.0,4.8761,4.9515,0.0,4.9213,4.959,0.0,0.0,0.0,0.0,0.0,0.0,0.0,3.8164,0.0,0.0,0.0,3.6562,3.6172,0.0,3.6816,3.6816,0.0,0.0,3.7012,3.7578,3.722,3.4627,3.4885,3.542,3.581,3.2227,2.9658,2.9597,2.3854,1.8267,1.3792,1.2999,1.099,0.668,0.6459,0.4388,0.0157,0.0,0.0,0.0,0.0,-0.094,-0.2817,-0.4789,-0.6758,-0.8913,-1.0932,-1.1945,-1.2101,-1.1932,-1.1952,-1.2108,-1.2094,-1.2176,-1.2325,-1.2454,-1.2501,-1.2501,-1.2501,-1.2501,-1.2501,5.0101,5.0439,0.0,0.0,0.0,0.0,0.0,0.0,0.0,0.0,0.0,0.0,0.0,0.0,0.0,0.0,0.0,0.0,0.0,0.0,0.0,0.0,0.0,0.0,0.0,4.8889,4.7698,4.7309,4.7309,4.7309,4.7339,4.8656,4.9254,4.9314,5.0631,0.0,4.7177,0.0,0.0,0.0,0.0,0.0,0.0,4.7581,4.7908,4.7908,4.7908,4.8058,4.8234,0.0,4.8234,0.0,0.0,0.0,0.0,0.0,0.0,0.0,0.0,0.0,0.0,0.0,0.0,0.0,3.798,0.0,3.6973,0.0,0.0,0.0,0.0,0.0,0.0,0.0,3.6973,3.6867,3.5868,3.4972,3.4173,3.361,3.0703,2.752,2.4046,2.1078,1.7428,1.3144,1.2684,1.0705,0.6612,0.6271,0.4383,0.0157,0.0,0.0,0.0,0.0,-0.1083,-0.313,-0.5024,-0.7113,-0.9198,-1.1126,-1.1979,-1.2047,-1.1809,-1.1891,-1.2189,-1.2101,-1.2203,-1.242,-1.2481,-1.2501,-1.2501,-1.2501,-1.3259,-1.4176,5.0773,0.0,0.0,0.0,0.0,0.0,0.0,0.0,0.0,0.0,0.0,0.0,5.7476,5.8761,0.0,0.0,0.0,5.8017,0.0,0.0,5.6453,0.0,0.0,0.0,0.0,0.0,4.8057,4.7578,4.7399,4.7399,4.7608,4.8566,4.8984,4.9067,5.0016,4.9005,4.6801,0.0,0.0,4.4945,4.5924,4.6301,4.6401,4.7179,4.7481,4.7481,4.7481,4.7581,4.7682,4.7531,4.7657,0.0,4.7732,0.0,0.0,0.0,0.0,0.0,4.5183,0.0,0.0,0.0,0.0,0.0,0.0,0.0,0.0,0.0,0.0,0.0,0.0,0.0,3.623,3.6309,0.0,3.6484,3.6426,3.5312,3.3964,3.2244,2.9938,2.6226,2.0363,1.9326,1.7376,1.3619,1.2748,1.0537,0.6379,0.6223,0.4366,0.0157,0.0,0.0,0.0,-0.0616,-0.1845,-0.4046,-0.5886,-0.795,-1.0067,-1.1161,-1.1837,-1.1932,-1.1714,-1.1823,-1.2162,-1.2088,-1.2216,-1.2447,-1.2488,-1.2501,-1.2501,-1.2501,-1.3714,-1.554,5.2394,5.2266,0.0,0.0,0.0,0.0,0.0,0.0,0.0,0.0,0.0,0.0,0.0,0.0,0.0,0.0,0.0,6.1163,6.1163,0.0,5.8413,0.0,0.0,0.0,0.0,0.0,0.0,4.8267,4.7608,4.7638,4.8267,4.8297,4.8292,4.8182,4.824,4.741,4.5945,4.6526,4.6254,4.5522,4.6075,4.6301,4.6301,0.0,4.6351,4.6351,4.6351,0.0,0.0,4.6552,4.7054,0.0,0.0,0.0,0.0,0.0,0.0,0.0,0.0,0.0,0.0,4.215,0.0,0.0,0.0,0.0,3.7793,0.0,0.0,0.0,0.0,0.0,0.0,0.0,3.5781,0.0,0.0,3.4902,3.5062,3.4503,3.0974,2.6588,2.1614,1.9661,1.7641,1.5032,1.3103,1.0312,0.6295,0.5992,0.4174,0.0157,0.0,0.0,0.0,-0.2024,-0.4042,-0.6145,-0.8031,-0.9944,-1.206,-1.1762,-1.1626,-1.1633,-1.1619,-1.1708,-1.1857,-1.1999,-1.2155,-1.2311,-1.2447,-1.2501,-1.2501,-1.2501,-1.3714,-1.554,0.0,0.0,0.0,0.0,0.0,0.0,0.0,5.5649,0.0,0.0,0.0,0.0,0.0,0.0,6.4005,0.0,0.0,6.255,6.2042,6.1095,0.0,0.0,0.0,5.4633,0.0,0.0,0.0,0.0,4.8716,4.8716,4.8925,4.8142,4.7672,4.7606,4.7136,4.6127,0.0,0.0,0.0,0.0,0.0,4.6301,4.6301,0.0,4.6301,4.6301,4.6301,4.6426,0.0,4.6376,4.6552,4.6828,4.6652,4.6702,4.6954,4.7531,4.7933,4.7907,0.0,0.0,4.7509,4.257,0.0,0.0,0.0,0.0,0.0,0.0,0.0,0.0,0.0,0.0,0.0,0.0,0.0,3.5762,0.0,3.2869,3.1216,3.1046,2.8837,2.5208,1.9867,1.8477,1.6689,1.3073,1.2199,1.0139,0.6145,0.5889,0.4107,0.0153,0.0,-0.0612,-0.1977,-0.2574,-0.4704,-0.8283,-0.8642,-0.9934,-1.2054,-1.1755,-1.1619,-1.1626,-1.1714,-1.1843,-1.1993,-1.2149,-1.2298,-1.2433,-1.2481,-1.2501,-1.2501,-1.2501,-1.4629,-1.7967,5.3584,0.0,0.0,0.0,0.0,0.0,0.0,0.0,0.0,0.0,6.2719,0.0,6.4952,0.0,6.5797,0.0,6.4546,6.3869,6.2854,6.211,0.0,6.0554,5.8115,0.0,0.0,0.0,0.0,0.0,0.0,4.9374,4.9613,4.8348,4.7485,4.7031,4.6194,4.511,4.3877,0.0,4.5616,0.0,0.0,4.6301,0.0,0.0,4.6301,4.6301,0.0,4.6301,4.6301,4.6301,4.6301,4.6301,4.6301,4.6301,4.6426,4.6979,4.738,4.7533,4.7085,4.809,0.0,4.43,4.4231,0.0,4.0371,0.0,3.9405,0.0,0.0,0.0,0.0,0.0,0.0,0.0,0.0,0.0,0.0,3.1488,2.8906,2.9022,2.697,2.3843,1.9446,1.8247,1.6292,1.2956,1.1325,0.9168,0.588,0.5185,0.344,0.0152,0.0,-0.091,-0.2852,-0.3602,-0.5732,-0.9137,-0.9623,-1.0633,-1.2054,-1.1755,-1.1647,-1.1701,-1.1789,-1.1952,-1.2149,-1.225,-1.2372,-1.2501,-1.2501,-1.2958,-1.3568,-1.3568,-1.6151,-2.008,0.0,0.0,0.0,0.0,5.416,0.0,0.0,0.0,6.0486,0.0,6.4038,6.5865,6.5899,6.6508,6.6643,6.5865,6.5764,0.0,6.37,6.2922,0.0,0.0,5.9585,5.7952,5.6733,0.0,0.0,0.0,0.0,4.9643,5.0272,4.8805,4.7497,4.6228,4.5348,0.0,4.2961,4.4141,4.497,4.5573,4.61,4.6301,4.6301,4.6301,4.6301,4.6301,4.6301,4.6301,4.6301,4.6301,4.6301,4.6301,4.6301,4.6301,4.6426,4.6928,4.7104,4.7355,4.841,4.8711,4.8455,4.7053,4.6775,0.0,0.0,0.0,4.0779,0.0,0.0,0.0,0.0,0.0,0.0,0.0,0.0,0.0,3.4692,3.09,2.8312,2.8374,2.5571,2.2718,2.058,1.8617,1.6558,1.4275,1.0644,0.7757,0.5643,0.3919,0.2059,0.0,0.0,-0.0912,-0.2961,-0.4999,-0.7157,-0.9324,-1.0995,-1.1904,-1.2054,-1.1755,-1.1701,-1.1843,-1.1843,-1.2013,-1.2291,-1.2298,-1.2379,-1.2656,-1.2656,-1.3868,-1.5845,-1.5845,-1.827,-2.19,5.382,5.3923,5.4499,0.0,5.4837,5.504,0.0,0.0,0.0,0.0,6.6373,6.8436,6.8977,6.8707,6.8199,6.7387,6.6846,0.0,0.0,0.0,0.0,6.299,6.0617,5.8787,5.7556,5.5014,0.0,5.1947,0.0,5.0331,5.093,4.8135,4.6461,4.5619,4.428,4.2997,4.1882,4.3815,4.5196,4.6125,4.625,4.6301,4.6301,0.0,4.6301,4.6301,4.6301,4.6301,4.6301,4.6301,4.6301,4.6301,4.6301,4.6301,4.6326,4.6476,4.6803,4.7205,4.7481,4.7832,4.7857,4.6525,4.6251,4.5685,4.3752,4.2312,4.1608,0.0,0.0,0.0,0.0,0.0,0.0,0.0,0.0,0.0,0.0,0.0,2.8093,2.646,2.3052,2.0154,1.8444,1.7527,1.5574,1.2013,1.0879,0.8861,0.5634,0.5124,0.3465,0.0147,0.0,-0.1637,-0.4965,-0.5635,-0.7603,-1.1142,-1.1451,-1.1809,-1.2054,-1.1755,-1.1762,-1.2006,-1.2006,-1.2115,-1.2298,-1.2406,-1.3377,-1.4782,-1.4782,-1.6904,-2.008,-2.008,-2.0692,-2.19,5.4363,0.0,0.0,5.6494,0.0,0.0,5.8118,0.0,0.0,6.4816,6.7421,0.0,6.9654,6.962,6.9282,6.8504,6.8064,0.0,0.0,0.0,0.0,6.3565,6.1756,5.9993,5.8293,5.6271,0.0,5.2636,0.0,5.0421,5.075,4.8381,4.6447,4.501,4.4293,4.3022,4.148,4.3689,4.5146,4.5974,4.6225,4.6301,0.0,4.6301,4.6301,4.6301,4.6301,4.6301,4.6301,4.6301,4.6301,4.6301,4.6301,4.6301,4.6301,4.6301,4.6527,4.6828,4.7079,4.7355,4.7433,4.692,4.698,4.6834,4.5221,4.4346,4.3796,4.4116,4.2452,4.0938,4.0759,3.963,0.0,0.0,0.0,0.0,0.0,0.0,0.0,2.7091,2.3416,1.9947,1.7506,1.6099,1.4253,1.1083,0.9385,0.7636,0.5532,0.3928,0.2136,0.0,0.0,-0.193,-0.5812,-0.5799,-0.7923,-1.183,-1.1816,-1.1898,-1.2054,-1.1891,-1.1938,-1.2162,-1.2162,-1.2244,-1.2386,-1.3377,-1.4475,-1.5693,-1.7512,-1.9629,-2.1751,-2.2657,-2.2967,-2.3116,0.0,0.0,0.0,0.0,0.0,0.0,0.0,6.2685,0.0,6.5797,0.0,6.9383,6.9383,6.9857,6.9891,6.918,0.0,6.8064,6.5967,6.5662,6.4986,6.37,6.2854,6.1317,5.8812,5.7492,0.0,0.0,0.0,5.0152,5.0212,4.8805,4.6832,4.4512,4.4842,4.3744,0.0,4.374,4.497,4.5547,4.6075,4.6301,4.6301,4.6301,4.6301,4.6301,4.6301,4.6301,4.6301,4.6301,4.6301,4.6301,4.6301,4.6301,4.6301,4.6301,4.6301,4.6426,4.6903,4.7029,4.7154,4.7757,4.8284,4.828,4.681,4.6645,4.6398,4.505,4.439,4.357,4.1774,4.1113,0.0,0.0,0.0,0.0,0.0,0.0,0.0,0.0,2.492,0.0,1.7141,1.5175,1.3193,1.1049,0.7689,0.5665,0.5471,0.2223,0.0282,0.0,0.0,-0.1794,-0.5812,-0.5879,-0.7876,-1.1803,-1.1979,-1.206,-1.206,-1.206,-1.2155,-1.2318,-1.2298,-1.2372,-1.2656,-1.4629,-1.5845,-1.6751,-2.0542,-2.2049,-2.2198,-2.4031,-2.4636,-2.4636,0.0,0.0,0.0,0.0,0.0,6.3328,6.4512,6.6102,6.7218,6.7489,6.9519,7.0939,7.0939,7.05,6.9891,6.918,6.8504,0.0,0.0,0.0,0.0,6.441,6.3125,6.1317,5.8812,5.7492,5.5642,0.0,0.0,4.9703,5.0212,4.8356,4.6424,4.4512,4.4401,4.3797,4.2785,4.4066,0.0,4.5547,4.6075,4.6301,4.6301,4.6301,4.6301,4.6301,4.6301,4.6301,4.6301,4.6301,4.6301,4.6301,4.6301,4.6301,4.6301,4.6301,4.6301,4.6326,4.6426,4.6451,4.6677,4.7657,4.7983,4.8184,4.8828,4.7856,4.7088,4.8347,4.6154,4.4482,4.5476,4.2941,3.9951,0.0,0.0,0.0,0.0,0.0,0.0,0.0,0.0,2.1353,1.7151,1.6245,1.4458,1.1031,0.8717,0.6875,0.5471,0.3332,0.155,0.0,0.0,-0.1793,-0.5812,-0.5879,-0.784,-1.166,-1.1932,-1.206,-1.206,-1.206,-1.221,-1.2461,-1.2338,-1.2372,-1.2656,-1.4629,-1.7512,-2.0841,-2.3116,-2.4031,-2.4179,-2.4488,-2.4636,-2.4636,0.0,0.0,0.0,0.0,0.0,0.0,0.0,6.8707,0.0,6.8605,6.9485,7.0161,7.0161,7.0161,6.9891,6.918,6.8741,6.803,6.688,6.5797,6.4986,6.4613,6.3193,0.0,5.8812,5.7492,5.5642,5.3174,0.0,4.9434,4.9703,4.8057,4.6133,4.3973,4.3125,4.2809,4.3062,4.4141,4.4794,4.5121,4.5974,4.6301,4.6301,4.6301,4.6301,4.6301,4.6301,4.6301,4.6301,4.6301,4.6301,4.6301,4.6301,4.6301,4.6301,4.6301,4.6301,4.6301,4.6301,4.6527,4.6853,4.738,4.7933,4.851,4.9038,4.8695,4.8477,4.9461,4.8216,4.6979,4.6822,4.3395,4.0313,3.9289,0.0,0.0,0.0,0.0,3.1946,0.0,0.0,0.0,1.7286,1.6512,1.4846,1.0989,0.8972,0.725,0.5552,0.3732,0.1826,0.0,-0.1035,-0.2994,-0.5866,-0.7149,-0.9152,-1.185,-1.2149,-1.225,-1.2182,-1.2257,-1.2366,-1.2501,-1.2427,-1.3041,-1.433,-1.736,-2.038,-2.3264,-2.4179,-2.4636,-2.4636,-2.4636,-2.4636,-2.4636,0.0,6.0858,0.0,0.0,6.5324,0.0,6.8842,7.0364,7.0906,6.9722,6.9586,6.9519,6.935,6.9857,6.9823,6.891,6.8842,6.8199,6.6677,6.5865,6.5121,6.441,6.3091,6.1217,5.8678,5.7428,5.5548,0.0,5.0631,4.9404,4.9224,4.8057,4.6162,4.3657,4.1983,4.1882,4.2886,4.4116,4.4618,4.4719,4.5849,4.6301,4.6301,4.6301,4.6301,4.6301,4.6301,4.6301,4.6301,4.6301,4.6301,4.6301,4.6301,4.6301,4.6301,4.6301,4.6301,4.6326,4.6451,4.6803,4.7179,4.7431,4.8134,4.8812,4.8912,4.9289,4.959,4.959,4.959,4.9047,4.7088,4.3894,4.1358,4.0941,3.901,0.0,0.0,0.0,0.0,0.0,0.0,0.0,1.797,1.6819,1.4883,1.0975,0.8695,0.6831,0.5496,0.3308,0.126,-0.0561,-0.2209,-0.4199,-0.6654,-0.844,-1.0343,-1.2067,-1.2359,-1.2427,-1.2298,-1.2433,-1.2501,-1.2501,-1.2958,-1.4475,-1.7056,-2.023,-2.2806,-2.4636,-2.4636,-2.4636,-2.4636,-2.4636,-2.4636,-2.4649,0.0,0.0,0.0,0.0,0.0,0.0,6.9079,7.0364,7.1278,7.1109,7.1109,7.0838,7.0161,7.0161,6.9586,6.8132,6.7996,6.7387,6.5899,6.5121,6.4377,6.3666,6.2821,6.0984,5.7909,5.714,5.5328,0.0,5.084,4.9853,4.9254,4.8536,4.6741,4.4138,4.2163,4.1681,4.2333,4.394,4.4618,4.4719,4.5849,4.6301,4.6301,4.6301,4.6301,4.6301,4.6301,4.6301,4.6301,4.6301,4.6301,4.6301,4.6301,4.6301,4.6301,4.6301,4.6301,4.6426,4.6928,4.7104,4.738,4.836,4.8686,4.8912,4.9414,4.9565,4.959,4.959,4.959,4.9047,4.7088,4.514,4.32,4.1545,3.9717,3.8301,0.0,0.0,3.5247,3.0544,0.0,0.0,1.9759,1.7636,1.5004,1.0927,0.7479,0.5629,0.5362,0.2069,-0.0701,-0.252,-0.2944,-0.4948,-0.8578,-0.9203,-1.0343,-1.2067,-1.2359,-1.2427,-1.2298,-1.2433,-1.2501,-1.2656,-1.4475,-1.736,-2.0991,-2.144,-2.2806,-2.4636,-2.4636,-2.4636,-2.4636,-2.4636,-2.4636,-2.4676,0.0,0.0,0.0,0.0,0.0,0.0,0.0,7.0939,7.1312,7.1312,7.0906,7.0534,7.0229,6.935,6.8571,6.7963,6.7083,6.6305,6.573,6.4613,6.3835,6.3531,6.2078,6.0256,5.7813,5.6436,5.4513,0.0,0.0,5.0122,4.9853,4.9194,4.7614,4.5293,4.3729,4.3131,4.3212,4.4192,4.4819,4.5221,4.5999,4.6301,4.6301,4.6301,4.6301,4.6301,4.6301,4.6301,4.6301,4.6301,4.6301,4.6301,4.6301,4.6301,4.6301,4.6301,4.6301,4.6426,4.6979,4.7355,4.7782,4.8586,4.9012,4.9314,4.954,4.959,4.959,4.959,4.959,4.9332,4.8608,4.6019,4.3841,4.3127,4.0514,3.8418,3.7988,0.0,0.0,3.0611,0.0,2.6815,2.0257,1.7868,1.5635,1.268,0.9123,0.603,0.389,0.2344,0.07,-0.1121,-0.3675,-0.5716,-0.7331,-1.0009,-1.1664,-1.2325,-1.2447,-1.2474,-1.242,-1.2474,-1.3112,-1.4475,-1.6447,-1.9025,-2.1751,-2.2967,-2.387,-2.4636,-2.4636,-2.4636,-2.4636,-2.4636,-2.4756,-2.4917,6.7877,0.0,6.7963,0.0,6.9755,7.0094,7.1142,7.1312,7.1312,7.1312,7.0466,6.9857,6.9857,6.8504,6.7489,6.7252,6.6102,6.5256,6.5053,6.4106,6.3429,6.3193,6.1301,0.0,5.7524,5.5673,5.3776,5.1917,5.099,0.0,5.0212,4.9189,4.7825,4.6008,4.4778,4.4002,4.384,4.4392,4.497,4.5547,4.6075,4.6301,4.6301,4.6301,4.6301,4.6301,4.6301,4.6301,4.6301,4.6301,4.6301,4.6301,4.6301,4.6301,4.6301,4.6301,4.6426,4.6677,4.7205,4.7757,4.8309,4.8862,4.9314,4.959,4.959,4.959,4.959,4.959,4.959,4.959,4.959,4.6579,4.4116,4.4116,4.1084,3.8476,3.8164,3.7637,0.0,3.0899,2.986,2.7044,2.1344,1.8314,1.603,1.3931,1.0322,0.6766,0.3645,0.2487,0.1124,-0.085,-0.3838,-0.5889,-0.7121,-1.0048,-1.1876,-1.2501,-1.2501,-1.2501,-1.2501,-1.2501,-1.3868,-1.6447,-1.7967,-2.008,-2.2657,-2.4031,-2.4636,-2.4636,-2.4636,-2.4636,-2.4649,-2.473,-2.4903,-2.5104,7.0139,6.9796,6.9553,7.1041,7.1278,7.1312,7.1312,7.1312,7.1312,7.1312,7.0026,6.9113,6.9113,6.776,6.6542,6.5764,6.5019,6.4309,6.3599,6.3531,6.3193,0.0,0.0,5.8754,5.6873,5.4951,5.307,5.1229,0.0,0.0,5.012,4.8267,4.6906,4.6008,4.4778,4.4002,4.384,4.4392,4.497,4.5547,4.6075,4.6301,4.6301,4.6301,4.6301,4.6301,4.6301,4.6301,4.6301,4.6301,4.6301,4.6301,4.6301,4.6301,4.6301,4.6301,4.6702,4.723,4.7757,4.8309,4.8887,4.9439,4.959,4.959,4.959,4.959,4.959,4.959,4.959,4.959,4.959,4.6579,4.4116,4.4116,4.1084,3.8574,3.8574,3.7832,0.0,3.1608,3.016,2.7715,2.3311,1.9255,1.6099,1.4061,1.0541,0.7631,0.5478,0.1946,-0.0851,-0.2758,-0.2982,-0.5007,-0.9198,-0.9315,-1.0469,-1.2501,-1.2501,-1.2501,-1.2501,-1.2501,-1.4782,-1.8572,-1.8572,-2.0841,-2.4636,-2.4636,-2.4636,-2.4636,-2.4636,-2.4636,-2.4676,-2.497,-2.5077,-2.517,7.2196,7.1346,7.077,7.1244,7.0872,7.0534,7.0534,7.0128,6.9789,6.9789,6.891,6.8098,6.759,6.6643,6.5967,0.0,6.458,6.3768,0.0,6.2584,6.1907,6.167,5.9087,5.713,5.6082,5.3866,5.2299,5.1229,5.1229,5.1109,5.09,5.0288,4.8866,4.6818,4.6408,4.5499,4.4367,4.4543,4.5171,4.6075,4.6225,4.6301,4.6301,4.6301,4.6301,4.6301,4.6301,4.6301,4.6301,4.6301,4.6301,4.6301,4.6301,4.6301,4.6376,4.6753,4.7004,4.733,4.8259,4.8636,4.8912,4.9464,4.959,4.959,4.959,4.959,4.959,4.959,4.959,4.959,4.959,4.6579,4.4116,4.4116,4.1084,3.8574,3.8574,3.7832,3.5802,3.1625,3.0393,2.8035,2.3923,1.9761,1.7096,1.6451,1.0228,0.5712,0.3753,0.2556,0.1155,-0.0874,-0.3756,-0.5965,-0.7213,-1.0092,-1.1876,-1.2501,-1.2501,-1.2501,-1.2501,-1.3868,-1.5998,-1.8723,-2.008,-2.2198,-2.4636,-2.4636,-2.4636,-2.4636,-2.4636,-2.4756,-2.4957,-2.505,-2.5331,-2.5705,7.3531,7.2354,7.121,7.0939,7.05,7.0094,6.9823,6.9383,6.9113,6.9113,6.8402,6.7726,6.7252,6.6068,0.0,6.4884,6.3768,6.3091,6.3091,6.1975,6.1298,6.1298,5.8133,5.6093,5.5762,5.3162,5.1618,5.1229,5.1229,5.1229,5.1229,5.1229,4.9776,4.7094,4.7094,4.6089,4.4317,4.4317,4.497,4.5999,4.5999,4.6125,4.6301,4.6301,4.6301,4.6301,4.6301,4.6301,4.6301,4.6301,4.6301,4.6351,4.6552,4.6627,4.6702,4.7029,4.7431,4.7908,4.8586,4.8912,4.9163,4.9515,4.959,4.959,4.959,4.959,4.959,4.959,4.959,4.9332,4.8632,4.6154,4.3841,4.3149,4.0514,3.8574,3.8574,3.7832,3.5878,3.1828,3.0451,2.8302,2.4371,2.0163,1.7602,1.7521,1.1598,0.6705,0.4147,0.2602,0.132,0.0,-0.3343,-0.5541,-0.634,-0.965,-1.1714,-1.2501,-1.2501,-1.2501,-1.2501,-1.4629,-1.6599,-1.8723,-2.0692,-2.2806,-2.4636,-2.4636,-2.4636,-2.4649,-2.4756,-2.4917,-2.5104,-2.5331,-2.5638,-2.5972,7.4168,7.2749,7.1164,7.0398,7.0195,6.9891,6.9214,6.9011,6.891,6.8876,6.8199,6.7692,6.7624,6.5764,6.4241,6.3497,0.0,0.0,6.2381,6.167,6.1197,6.112,5.7609,5.5581,5.5496,5.2642,5.1229,5.1229,5.1229,5.1229,5.1229,5.1229,4.9776,4.7094,4.7094,4.5875,4.379,4.379,4.4443,4.5497,4.5497,4.5824,4.6301,4.6301,4.6301,4.6301,4.6301,4.6326,4.6376,4.6376,4.6401,4.6502,4.7029,4.7205,4.7255,4.7255,4.7983,4.8786,4.8812,4.9213,4.959,4.959,4.959,4.959,4.959,4.959,4.959,4.959,4.959,4.9047,4.7088,4.5321,4.3565,4.1608,3.9818,3.8555,3.8535,3.7812,3.5811,3.1969,3.0617,2.846,2.4684,2.0443,1.7865,1.7816,1.4019,0.9922,0.6086,0.2207,0.0149,0.0,-0.2158,-0.4335,-0.6254,-0.8439,-1.0624,-1.2501,-1.2501,-1.2501,-1.2811,-1.4782,-1.6904,-1.8874,-2.0991,-2.2806,-2.4636,-2.4636,-2.4649,-2.469,-2.497,-2.5104,-2.5211,-2.5758,-2.5972,-2.6026,0.0,0.0,7.2159,7.1219,7.0128,6.9316,6.9113,6.8098,6.7151,6.6576,6.6339,6.5797,6.4681,6.4072,6.3463,6.2719,6.2482,6.2381,6.2381,6.1129,6.0045,5.9192,5.6449,5.4422,5.3559,5.1972,5.1229,5.1229,5.1229,5.1229,5.1229,5.1229,4.9776,4.7094,4.7094,4.5875,4.379,4.379,4.4443,4.5497,4.5497,4.5824,4.6301,4.6301,4.6301,4.6301,4.6301,4.6577,4.6928,4.6928,4.7205,4.7556,4.7682,4.8033,4.8385,4.8385,4.856,4.8862,4.9289,4.949,4.959,4.959,4.959,4.959,4.959,4.959,4.959,4.959,4.959,4.9047,4.7088,4.5321,4.3565,4.1608,3.9818,3.8457,3.8125,3.7637,3.5698,3.1599,3.0755,2.9023,2.531,2.1107,1.853,1.8479,1.3118,0.873,0.6087,0.3649,0.168,0.0,-0.357,-0.577,-0.6254,-0.9998,-1.203,-1.2501,-1.2501,-1.3259,-1.4935,-1.6904,-1.9025,-2.0991,-2.2967,-2.4179,-2.4636,-2.4636,-2.477,-2.4983,-2.505,-2.5358,-2.5772,-2.5905,-2.6092,-2.6293,7.446,7.3492,7.2395,7.1016,6.9857,6.8977,6.8605,6.7557,6.6677,6.6271,6.5899,6.5392,6.458,6.3903,6.3362,6.2956,6.2584,6.2245,6.1907,6.0757,5.9453,5.803,5.5863,5.4084,5.29,5.1819,5.1229,5.1229,5.1229,5.1229,5.1229,5.1229,5.0095,4.8038,4.7402,4.6034,4.4258,4.3751,4.4066,4.5095,4.5095,4.5573,4.6301,4.6301,4.6301,4.6301,4.6301,4.6652,4.7129,4.7129,4.7481,4.7958,4.8209,4.851,4.8812,4.9063,4.9163,4.9213,4.9515,4.959,4.959,4.959,4.959,4.959,4.959,4.959,4.9332,4.8477,4.8347,4.7509,4.4755,4.3542,4.2171,4.0371,3.9102,3.8203,3.7969,3.7402,3.5529,3.1683,3.0953,2.9273,2.5514,2.1394,1.8785,1.8571,1.3559,0.9293,0.6138,0.5069,0.3084,0.0156,-0.4057,-0.6254,-0.6254,-1.0469,-1.2535,-1.2603,-1.2535,-1.3605,-1.5666,-1.7711,-1.9629,-2.1751,-2.3722,-2.4716,-2.4836,-2.4836,-2.501,-2.5291,-2.5424,-2.5678,-2.5972,-2.6106,-2.6253,-2.6386,7.45,7.365,7.2424,7.0527,6.9586,6.8842,6.803,6.7286,6.6779,6.6643,6.6,6.5493,6.5358,6.414,6.3328,6.3328,6.2753,6.2076,6.1366,6.0554,5.9208,5.723,5.5472,5.3999,5.2634,5.1727,5.1229,5.1229,5.1229,5.1229,5.1229,5.1229,5.0508,4.9161,4.7909,4.6474,4.4941,4.3797,4.3815,4.4618,4.4618,4.5296,4.6301,4.6301,4.6301,4.6326,4.6401,4.6803,4.7255,4.7355,4.7732,4.8259,4.8736,4.8887,4.8987,4.9464,4.959,4.959,4.959,4.959,4.959,4.959,4.959,4.959,4.959,4.9332,4.8763,4.7088,4.6532,4.5298,4.189,4.1326,4.0636,3.8846,3.8203,3.791,3.7832,3.7226,3.5416,3.1722,3.1135,2.943,2.565,2.1482,1.8978,1.856,1.4613,1.0485,0.6312,0.6005,0.4181,0.0157,-0.407,-0.6566,-0.7189,-1.0779,-1.2569,-1.2691,-1.2562,-1.3656,-1.5819,-1.776,-1.965,-2.181,-2.3787,-2.485,-2.5077,-2.513,-2.5317,-2.5598,-2.5852,-2.5985,-2.6052,-2.6306,-2.6386,-2.6386,7.4577,7.4158,7.3247,7.0614,6.9586,6.8842,6.803,6.7286,6.6576,6.5933,6.5222,6.4546,6.3903,6.3091,6.255,6.255,6.2448,6.2076,6.1366,6.0554,5.8831,5.6099,5.5056,5.3569,5.1479,5.1293,5.1229,5.1229,5.1229,5.1229,5.1229,5.1229,5.0508,4.919,4.8964,4.7402,4.4941,4.4725,4.466,4.4618,4.4618,4.5296,4.6301,4.6301,4.6301,4.6376,4.6828,4.733,4.7857,4.836,4.8887,4.9339,4.9439,4.9464,4.949,4.9565,4.959,4.959,4.959,4.959,4.959,4.959,4.959,4.959,4.959,4.8347,4.7088,4.6798,4.5592,4.3818,4.1749,4.1326,4.0636,3.8846,3.8203,3.7793,3.7441,3.7285,3.5623,3.1404,3.1285,3.015,2.6275,2.2008,1.9508,1.9243,1.5204,1.071,0.6552,0.6237,0.4374,0.0157,-0.407,-0.7972,-1.156,-1.2185,-1.2515,-1.2535,-1.2515,-1.3656,-1.5819,-1.776,-1.9735,-2.193,-2.4083,-2.5037,-2.5104,-2.5344,-2.5625,-2.5892,-2.5932,-2.6106,-2.6333,-2.6373,-2.6386,-2.6386,7.4541,7.3991,7.2992,7.0633,6.9214,6.8335,6.7963,6.7286,6.6677,6.6339,6.529,6.4478,6.414,6.3091,6.2381,6.2381,6.2042,6.1467,6.0689,6.0317,5.8586,5.5301,5.4749,5.3483,5.1199,5.1229,5.1229,5.1229,5.1229,5.1229,5.1229,5.1229,5.0917,5.022,4.9484,4.8038,4.6083,4.5342,4.4701,4.4192,4.4192,4.4844,4.5874,4.5874,4.605,4.6351,4.6602,4.7205,4.7958,4.8209,4.8887,4.959,4.959,4.959,4.959,4.959,4.959,4.959,4.959,4.959,4.959,4.959,4.959,4.9307,4.8347,4.7353,4.6264,4.4208,4.3127,4.2031,4.0228,3.9818,3.947,3.8406,3.7871,3.7519,3.7324,3.7109,3.5586,3.1856,3.1597,3.0307,2.6411,2.2122,1.9631,1.925,1.524,1.1025,0.663,0.6469,0.4409,0.0157,-0.407,-0.831,-1.2623,-1.2542,-1.2583,-1.2745,-1.2664,-1.3833,-1.6115,-1.8096,-2.0067,-2.22,-2.4379,-2.5398,-2.5558,-2.5692,-2.5919,-2.6186,-2.6186,-2.6266,-2.6386,-2.6386,-2.6386,-2.6386,7.4541,7.3814,7.2711,7.0361,6.8977,6.8064,6.7692,6.7184,6.6812,6.6812,6.5527,6.4613,6.4613,6.326,6.2381,6.2381,6.1738,6.096,6.0148,5.9945,5.8253,5.4704,5.4084,5.2989,5.1229,5.1229,5.1229,5.1229,5.1229,5.1229,5.1229,5.1229,5.1229,5.1135,5.0095,4.8738,4.6991,4.5978,4.4848,4.3815,4.394,4.4593,4.5497,4.5623,4.5949,4.6326,4.6451,4.7029,4.7757,4.8033,4.8686,4.9414,4.9565,4.959,4.959,4.959,4.959,4.959,4.959,4.959,4.9461,4.9047,4.8893,4.8477,4.6556,4.5838,4.4755,4.189,4.0921,4.0228,3.8846,3.8574,3.8457,3.8125,3.7715,3.7441,3.7441,3.7168,3.5736,3.2193,3.1877,3.0432,2.6507,2.2202,1.9553,1.9331,1.5377,1.1154,0.6709,0.6546,0.3982,-0.1429,-0.4714,-0.8342,-1.2779,-1.263,-1.2691,-1.2963,-1.284,-1.3706,-1.557,-1.8078,-2.0053,-2.1836,-2.4508,-2.5745,-2.5959,-2.6026,-2.6186,-2.6386,-2.6386,-2.6386,-2.6386,-2.6386,-2.6386,-2.6386,7.4541,7.4275,7.3202,6.9782,6.9079,6.8538,6.7117,6.6846,6.6812,6.6812,6.5527,6.4613,6.4613,6.326,6.2381,6.2381,6.1738,6.096,6.0148,5.9471,5.772,5.4704,5.2575,5.1386,5.1199,5.1229,5.1229,5.1229,5.1229,5.1229,5.1229,5.1229,5.1229,5.1229,5.1105,4.9582,4.7094,4.6991,4.5688,4.384,4.4367,4.4945,4.5547,4.605,4.6276,4.6376,4.6878,4.7129,4.7355,4.836,4.8761,4.8912,4.9439,4.959,4.959,4.959,4.959,4.959,4.959,4.959,4.9177,4.7509,4.6955,4.6532,4.4641,4.2988,4.1608,4.1326,3.9962,3.872,3.8574,3.8574,3.8555,3.8535,3.8164,3.7871,3.7871,3.7851,3.6356,3.2243,3.2258,3.0792,2.6819,2.2465,1.9785,1.9722,1.5715,1.1283,0.6791,0.6465,0.2593,-0.5906,-0.6204,-0.8378,-1.2942,-1.2793,-1.2793,-1.2963,-1.2949,-1.3185,-1.3492,-1.7445,-1.9351,-2.0009,-2.4165,-2.5932,-2.5972,-2.6239,-2.6373,-2.6386,-2.6386,-2.6386,-2.6386,-2.6386,-2.6386,-2.6386,7.533,7.4365,7.2871,7.0429,6.9118,6.7996,6.6981,6.6812,6.6812,6.6812,6.5527,6.4613,6.4613,6.326,6.2381,6.2381,6.1264,6.0419,6.0114,5.8964,5.7187,5.4672,5.2395,5.1229,5.1229,5.1229,5.1229,5.1229,5.1229,5.1229,5.1229,5.1229,5.1229,5.1229,5.1229,5.0191,4.8339,4.7503,4.6085,4.4487,4.4206,4.4443,4.502,4.5573,4.6024,4.6326,4.6552,4.6853,4.7255,4.7983,4.8485,4.8862,4.9414,4.959,4.959,4.959,4.959,4.959,4.959,4.8763,4.7641,4.6955,4.5996,4.4641,4.2849,4.1749,4.0921,3.9818,3.9136,3.8574,3.8574,3.8574,3.8476,3.8223,3.8027,3.793,3.793,3.6865,3.5028,3.2576,3.1188,2.9449,2.6689,2.2499,1.9876,1.9785,1.5747,1.1417,0.6877,0.3907,-0.0326,-0.6584,-0.6462,-0.8504,-1.2963,-1.2901,-1.2901,-1.2963,-1.3051,-1.3173,-1.3473,-1.6308,-1.8409,-1.9936,-2.2828,-2.4926,-2.6239,-2.6346,-2.6386,-2.6386,-2.6386,-2.6386,-2.6386,-2.6386,-2.6386,-2.6386,7.5918,7.4832,7.3251,7.1002,6.9563,6.8284,6.7032,6.6609,6.6542,6.6779,6.5324,6.4343,6.458,6.326,6.2381,6.2381,6.1231,6.0385,6.0114,5.8362,5.6547,5.4672,5.2395,5.1229,5.1229,5.1229,5.1229,5.1229,5.1229,5.1229,5.1229,5.1229,5.1229,5.1229,5.1229,5.0508,4.9161,4.7707,4.6265,4.4886,4.4306,4.4292,4.4694,4.5472,4.5974,4.6301,4.6301,4.6652,4.7205,4.7732,4.8284,4.8862,4.9414,4.959,4.959,4.959,4.959,4.9461,4.8893,4.7377,4.5996,4.5996,4.4641,4.2731,4.0921,4.0514,4.0085,3.8846,3.8574,3.8574,3.8574,3.8574,3.8476,3.8184,3.8125,3.8125,3.8125,3.6309,3.4468,3.2776,3.0669,2.8359,2.5568,2.2006,1.9582,1.8933,1.5522,1.1511,0.6959,0.2472,-0.1978,-0.6622,-0.6574,-0.8653,-1.3024,-1.303,-1.3051,-1.3098,-1.32,-1.3302,-1.3397,-1.5679,-1.7792,-2.0069,-2.2166,-2.4442,-2.6386,-2.6386,-2.6386,-2.6386,-2.6386,-2.6386,-2.6386,-2.6386,-2.6386,-2.6386,7.6027,7.5787,7.469,7.1264,7.0625,6.9704,6.7184,6.617,6.5967,6.6711,6.4884,6.3802,6.4512,6.326,6.2381,6.2381,6.1738,6.096,6.0148,5.7686,5.573,5.4672,5.2395,5.1229,5.1229,5.1229,5.1229,5.1229,5.1229,5.1229,5.1229,5.1229,5.1229,5.1229,5.1229,5.0508,4.9161,4.7707,4.6292,4.5046,4.4713,4.4618,4.4744,4.5874,4.6301,4.6301,4.6301,4.6652,4.7205,4.7732,4.8284,4.8862,4.9414,4.959,4.959,4.959,4.959,4.9177,4.7353,4.5457,4.4116,4.4116,4.2731,4.0779,3.8991,3.8574,3.8574,3.8574,3.8574,3.8574,3.8574,3.8574,3.8574,3.8574,3.8574,3.8574,3.8574,3.6737,3.4751,3.2809,3.0669,2.7706,2.3448,2.12,1.8933,1.6811,1.4541,1.1386,0.6867,0.252,-0.2016,-0.6533,-0.67,-0.8824,-1.3173,-1.3173,-1.3247,-1.3397,-1.3403,-1.3403,-1.3397,-1.5679,-1.7783,-2.0069,-2.2166,-2.4271,-2.6386,-2.6386,-2.6386,-2.6386,-2.6386,-2.6386,-2.6386,-2.6386,-2.6386,-2.6386,7.681,7.5828,7.429,7.2038,7.0609,6.9118,6.7116,6.6609,6.6373,6.6068,6.4986,6.4174,6.3869,6.2956,6.2381,6.2381,6.1738,6.0757,5.9438,5.7387,5.573,5.4672,5.3165,5.2063,5.1229,5.1229,5.1229,5.1229,5.1229,5.1229,5.1229,5.1229,5.1229,5.1229,5.1229,5.1011,5.0508,4.8139,4.7032,4.6865,4.5294,4.4869,4.5321,4.6024,4.6301,4.6301,4.6301,4.6426,4.6702,4.7606,4.8033,4.8335,4.9289,4.959,4.959,4.959,4.959,4.9461,4.8893,4.6422,4.3818,4.2452,4.0779,3.9261,3.872,3.8574,3.8574,3.8574,3.8574,3.8574,3.8574,3.8574,3.8574,3.8574,3.8574,3.8574,3.8574,3.5533,3.3095,3.2505,2.9449,2.6188,2.33,2.12,1.8933,1.6811,1.1683,0.804,0.67,0.252,-0.2016,-0.6533,-0.67,-0.886,-1.3336,-1.3336,-1.3302,-1.3241,-1.3349,-1.3403,-1.3397,-1.4052,-1.5514,-1.7792,-1.9897,-2.2006,-2.4271,-2.574,-2.6386,-2.6386,-2.6386,-2.6386,-2.6386,-2.6386,-2.6386,-2.6386,7.7231,7.6391,7.4911,7.2512,7.1211,6.9663,6.7199,6.6542,6.6305,6.617,6.4986,6.4106,6.3971,6.3024,6.2381,6.2381,6.1434,6.0419,5.9505,5.7867,5.6393,5.5296,5.4168,5.2812,5.1199,5.1229,5.1229,5.1229,5.1229,5.1229,5.1229,5.1229,5.1229,5.1229,5.1229,5.1229,5.1011,4.8239,4.7453,4.7745,4.5459,4.497,4.5547,4.61,4.6301,4.6301,4.6301,4.6577,4.7029,4.7682,4.8209,4.8686,4.9364,4.959,4.959,4.959,4.959,4.9307,4.7797,4.575,4.3426,4.0921,3.9405,3.8574,3.8574,3.8574,3.8574,3.8574,3.8574,3.8574,3.8574,3.8574,3.8574,3.8574,3.8574,3.8574,3.8574,3.5068,3.2505,3.2505,2.8842,2.5581,2.33,2.12,1.8263,1.4332,0.9525,0.6366,0.5365,0.2016,-0.1681,-0.5198,-0.6199,-0.8373,-1.2056,-1.2899,-1.3356,-1.3261,-1.3356,-1.3403,-1.3403,-1.3403,-1.4541,-1.6647,-1.8933,-2.1039,-2.33,-2.5409,-2.6386,-2.6386,-2.6386,-2.6386,-2.6386,-2.6386,-2.6386,-2.6386,7.7304,7.7268,7.6145,7.2798,7.2119,7.0815,6.7448,6.6287,6.6,6.6542,6.485,6.3802,6.4343,6.3193,6.2381,6.2381,6.0994,6.0114,6.0114,5.8727,5.7372,5.6282,5.5134,5.3569,5.1386,5.1199,5.1229,5.1229,5.1229,5.1229,5.1229,5.1229,5.1229,5.1229,5.1229,5.1229,5.1011,4.8496,4.764,4.7828,4.5762,4.5162,4.5623,4.6125,4.6301,4.6301,4.6301,4.6979,4.7857,4.7958,4.8711,4.959,4.959,4.959,4.959,4.959,4.959,4.8893,4.548,4.439,4.3288,3.9962,3.8846,3.8574,3.8574,3.8574,3.8574,3.8574,3.8574,3.8594,3.8633,3.8594,3.8594,3.8633,3.8633,3.8633,3.8633,3.5121,3.2555,3.2555,2.8856,2.5409,2.298,2.0716,1.6794,1.071,0.804,0.5867,0.3692,0.1346,-0.1009,-0.3191,-0.5533,-0.7873,-1.0044,-1.2222,-1.3403,-1.3403,-1.3403,-1.3403,-1.3403,-1.3403,-1.4541,-1.6483,-1.8607,-2.0878,-2.298,-2.5251,-2.6228,-2.6386,-2.6386,-2.6386,-2.6386,-2.6386,-2.6386,-2.6386,7.7194,7.679,7.5677,7.3555,7.2084,7.0406,6.8206,6.7155,6.6203,6.5222,6.4647,6.3971,6.299,6.2584,6.2381,6.2381,6.0994,6.0114,6.0114,5.8727,5.7372,5.6282,5.5134,5.3913,5.2575,5.1635,5.1229,5.1229,5.1229,5.1229,5.1229,5.1229,5.1229,5.1229,5.1229,5.1229,5.1165,5.0035,4.9136,4.8486,4.7463,4.663,4.615,4.6276,4.6301,4.6301,4.6301,4.6728,4.7431,4.8284,4.9038,4.959,4.959,4.959,4.959,4.959,4.959,4.9461,4.8632,4.6288,4.3978,4.3149,4.08,3.8574,3.8574,3.8574,3.8574,3.8574,3.8574,3.8672,3.9004,3.8789,3.8691,3.9004,3.9062,3.9062,3.9062,3.5531,3.2918,3.2918,2.9145,2.492,2.1039,1.7147,1.421,1.2727,0.904,0.6533,0.6032,0.2184,-0.1009,-0.3191,-0.5533,-0.7702,-1.0044,-1.2222,-1.3403,-1.3403,-1.3403,-1.3403,-1.3403,-1.3403,-1.3728,-1.4217,-1.6328,-1.8598,-2.0716,-2.298,-2.4761,-2.6386,-2.6386,-2.6386,-2.6386,-2.6386,-2.6386,-2.636,7.6717,7.6387,7.5556,7.3783,7.2422,7.0913,6.9122,6.8028,6.6882,6.5338,6.4816,6.4174,6.3057,6.2618,6.2381,6.2381,6.0994,6.0114,6.0114,5.8727,5.7628,5.7039,5.5968,5.4806,5.3742,5.2575,5.1727,5.1229,5.1229,5.1229,5.1229,5.1229,5.1229,5.1229,5.1229,5.1229,5.1165,5.0475,4.9671,4.8786,4.7985,4.7134,4.6301,4.6301,4.6301,4.6301,4.6301,4.6828,4.7682,4.8786,4.9364,4.959,4.959,4.959,4.959,4.959,4.959,4.9436,4.8477,4.6288,4.3841,4.2988,4.0657,3.8574,3.8574,3.8574,3.8574,3.8574,3.873,3.8945,3.916,3.9023,3.8945,3.916,3.9199,3.8903,3.7821,3.5204,3.2986,3.1889,2.8776,2.51,2.0558,1.7035,1.4038,1.1884,0.8707,0.6199,0.5198,0.1849,-0.0505,-0.1681,-0.503,-0.7201,-0.8373,-1.1718,-1.3403,-1.3403,-1.3403,-1.3403,-1.3403,-1.3403,-1.3403,-1.3562,-1.5671,-1.7302,-1.8607,-2.1845,-2.3792,-2.492,-2.6056,-2.6386,-2.6386,-2.6386,-2.6386,-2.6346,7.6276,7.6093,7.558,7.3833,7.285,7.1749,7.0038,6.8872,6.7635,6.614,6.5135,6.4343,6.3599,6.2854,6.2381,6.2381,6.1129,6.025,6.0114,5.8829,5.8017,5.7881,5.6778,5.573,5.4589,5.3483,5.2305,5.1229,5.1229,5.1229,5.1229,5.1229,5.1229,5.1229,5.1229,5.1229,5.1165,5.0818,5.0093,4.9107,4.8511,4.756,4.6636,4.6421,4.6301,4.6301,4.6301,4.7004,4.8058,4.9113,4.9515,4.959,4.959,4.959,4.959,4.959,4.959,4.9307,4.7641,4.5727,4.3703,4.2171,4.0249,3.8574,3.8574,3.8574,3.8574,3.8574,3.8906,3.9219,3.9297,3.9258,3.9258,3.9394,3.9375,3.8571,3.6497,3.4744,3.2871,3.0671,2.7893,2.4656,2.0807,1.7817,1.4412,1.0409,0.806,0.5709,0.3358,0.1178,0.0,0.0,-0.436,-0.67,-0.67,-1.122,-1.3403,-1.3403,-1.3403,-1.3403,-1.3403,-1.3403,-1.3403,-1.3562,-1.535,-1.6328,-1.6975,-2.0867,-2.282,-2.33,-2.5581,-2.6386,-2.6386,-2.6386,-2.636,-2.6279,7.6276,7.6093,7.5555,7.3956,7.2907,7.1968,7.0985,6.9349,6.7869,6.7031,6.5551,6.4343,6.3599,6.2854,6.2381,6.2381,6.1637,6.0858,6.0148,5.9336,5.8558,5.7915,5.6778,5.573,5.4589,5.3483,5.2305,5.1229,5.1229,5.1229,5.1229,5.1229,5.1229,5.1229,5.1229,5.1229,5.1289,5.2323,5.1942,5.0663,5.0351,4.9427,4.8094,4.6755,4.6301,4.6301,4.6301,4.7004,4.8008,4.8661,4.9213,4.959,4.959,4.959,4.959,4.959,4.959,4.959,4.9307,4.6713,4.4116,4.3818,4.1205,3.8574,3.8574,3.8574,3.8574,3.8574,3.8906,3.9316,3.9726,3.9473,3.9453,4.0215,4.0039,3.9146,3.7431,3.545,3.3402,3.1163,2.531,2.1212,2.068,1.6639,1.303,1.054,0.815,0.5755,0.3358,0.1178,0.0,0.0,-0.436,-0.67,-0.67,-1.122,-1.3403,-1.3403,-1.3403,-1.3403,-1.3403,-1.3403,-1.3403,-1.3403,-1.3728,-1.4863,-1.6811,-1.9248,-2.1362,-2.33,-2.5581,-2.6386,-2.6386,-2.6386,-2.6226,-2.6012,7.5506,7.5065,7.4661,7.4404,7.3264,7.2278,7.181,7.0237,6.8593,6.726,6.5596,6.4343,6.3599,6.2854,6.2381,6.2381,6.1738,6.096,6.0148,5.9404,5.8693,5.7915,5.7372,5.6624,5.5538,5.4389,5.334,5.2154,5.1479,5.1229,5.1229,5.1229,5.1229,5.1229,5.1229,5.1439,5.1828,5.2785,5.2535,5.1592,5.1925,5.0629,4.8416,4.7743,4.6968,4.6351,4.6652,4.7079,4.7606,4.8485,4.8937,4.9188,4.949,4.959,4.959,4.959,4.959,4.9332,4.8347,4.6154,4.3841,4.2849,4.0514,3.8633,3.8867,3.8926,3.8926,3.8926,3.9473,4.0,4.0215,4.0078,4.0059,4.0469,4.0371,3.951,3.7613,3.5742,3.3289,2.9893,2.4412,2.0736,2.0736,1.6592,1.3298,1.2374,0.8928,0.6515,0.5293,0.1882,0.0,0.0,-0.3059,-0.5414,-0.6765,-0.9908,-1.2222,-1.3403,-1.3403,-1.3403,-1.3403,-1.3403,-1.3403,-1.3403,-1.3403,-1.3887,-1.5028,-1.7138,-1.941,-2.1523,-2.3792,-2.5251,-2.6386,-2.6386,-2.6306,-2.6199]},{"header":{"parameterUnit":"m.s-1","parameterCategory":1,"la1":30.6,"la2":28.766,"lo1":-90.7593,"lo2":-88.6598,"dy":0.0162,"dx":0.0183,"nx":116,"ny":114,"refTime":"2023-11-13T06:00:00:Z","depth":0,"parameterNumber":3,"parameterNumberName":"V-component_of_WINDS"},"data":[0.0,0.0,0.0,0.0,0.0,0.0,0.0,0.0,0.0,0.0,0.0,0.0,0.0,0.0,0.0,0.0,0.0,0.0,0.0,0.0,0.0,0.0,0.0,0.0,0.0,0.0,0.0,0.0,0.0,0.0,0.0,0.0,0.0,0.0,0.0,0.0,0.0,0.0,0.0,0.0,0.0,0.0,0.0,0.0,0.0,0.0,0.0,0.0,0.0,0.0,0.0,0.0,0.0,0.0,0.0,0.0,0.0,0.0,0.0,0.0,0.0,0.0,0.0,0.0,0.0,0.0,0.0,0.0,0.0,0.0,0.0,0.0,0.0,0.0,0.0,0.0,0.0,0.0,0.0,0.0,0.0,0.0,0.0,0.0,0.0,0.0,0.0,0.0,0.0,0.0,0.0,0.0,0.0,0.0,0.0,0.0,0.0,0.0,0.0,0.0,0.0,0.0,0.0,0.0,0.0,0.0,0.0,0.0,0.0,0.0,0.0,0.0,0.0,0.0,0.0,0.0,0.0,0.0,0.0,0.0,0.0,0.0,0.0,0.0,0.0,0.0,0.0,0.0,0.0,0.0,0.0,0.0,0.0,0.0,0.0,0.0,0.0,0.0,0.0,0.0,0.0,0.0,0.0,0.0,0.0,0.0,0.0,0.0,0.0,0.0,0.0,0.0,0.0,0.0,0.0,0.0,0.0,0.0,0.0,0.0,0.0,0.0,0.0,0.0,0.0,0.0,0.0,0.0,0.0,0.0,0.0,0.0,0.0,0.0,0.0,0.0,0.0,0.0,0.0,0.0,0.0,0.0,0.0,0.0,0.0,0.0,0.0,0.0,0.0,0.0,0.0,0.0,0.0,0.0,0.0,0.0,0.0,0.0,0.0,0.0,0.0,0.0,0.0,0.0,0.0,0.0,0.0,0.0,0.0,0.0,0.0,0.0,0.0,0.0,0.0,0.0,0.0,0.0,0.0,0.0,0.0,0.0,0.0,0.0,0.0,0.0,0.0,0.0,0.0,0.0,0.0,0.0,0.0,0.0,0.0,0.0,0.0,0.0,0.0,0.0,0.0,0.0,0.0,0.0,0.0,0.0,0.0,0.0,0.0,0.0,0.0,0.0,0.0,0.0,0.0,0.0,0.0,0.0,0.0,0.0,0.0,0.0,0.0,0.0,0.0,0.0,0.0,0.0,0.0,0.0,0.0,0.0,0.0,0.0,0.0,0.0,0.0,0.0,0.0,0.0,0.0,0.0,0.0,0.0,0.0,0.0,0.0,0.0,0.0,0.0,0.0,0.0,0.0,0.0,0.0,0.0,0.0,0.0,0.0,0.0,0.0,0.0,0.0,0.0,0.0,0.0,0.0,0.0,0.0,0.0,0.0,0.0,0.0,0.0,0.0,0.0,0.0,0.0,0.0,0.0,0.0,0.0,0.0,0.0,0.0,0.0,0.0,0.0,0.0,0.0,0.0,0.0,0.0,0.0,0.0,0.0,0.0,0.0,0.0,0.0,0.0,0.0,0.0,0.0,0.0,0.0,0.0,0.0,0.0,0.0,0.0,0.0,0.0,0.0,0.0,0.0,0.0,0.0,0.0,0.0,0.0,0.0,0.0,0.0,0.0,0.0,0.0,0.0,0.0,0.0,0.0,0.0,0.0,0.0,0.0,0.0,0.0,0.0,0.0,0.0,0.0,0.0,0.0,0.0,0.0,0.0,0.0,0.0,0.0,0.0,0.0,0.0,0.0,0.0,0.0,0.0,0.0,0.0,0.0,0.0,0.0,0.0,0.0,0.0,0.0,0.0,0.0,0.0,0.0,0.0,0.0,0.0,0.0,0.0,0.0,0.0,0.0,0.0,0.0,0.0,0.0,0.0,0.0,0.0,0.0,0.0,0.0,0.0,0.0,0.0,0.0,0.0,0.0,0.0,0.0,0.0,0.0,0.0,0.0,0.0,0.0,0.0,0.0,0.0,0.0,0.0,0.0,0.0,0.0,0.0,0.0,0.0,0.0,0.0,0.0,0.0,0.0,0.0,0.0,0.0,0.0,0.0,0.0,0.0,0.0,0.0,0.0,0.0,0.0,0.0,0.0,0.0,0.0,0.0,0.0,0.0,0.0,0.0,0.0,0.0,0.0,0.0,0.0,0.0,0.0,0.0,0.0,0.0,0.0,0.0,0.0,0.0,0.0,0.0,0.0,0.0,0.0,0.0,0.0,0.0,0.0,0.0,0.0,0.0,0.0,0.0,0.0,0.0,0.0,0.0,0.0,0.0,0.0,0.0,0.0,0.0,0.0,0.0,0.0,0.0,0.0,0.0,0.0,0.0,0.0,0.0,0.0,0.0,0.0,0.0,0.0,0.0,0.0,0.0,0.0,0.0,0.0,0.0,0.0,0.0,0.0,0.0,0.0,0.0,0.0,0.0,0.0,0.0,0.0,0.0,0.0,0.0,0.0,0.0,0.0,0.0,0.0,0.0,0.0,0.0,0.0,0.0,0.0,0.0,0.0,0.0,0.0,0.0,0.0,0.0,0.0,0.0,0.0,0.0,0.0,0.0,0.0,0.0,0.0,0.0,0.0,0.0,0.0,0.0,0.0,0.0,0.0,0.0,0.0,0.0,0.0,0.0,0.0,0.0,0.0,0.0,0.0,0.0,0.0,0.0,0.0,0.0,0.0,0.0,0.0,0.0,0.0,0.0,0.0,0.0,0.0,0.0,0.0,0.0,0.0,0.0,0.0,0.0,0.0,0.0,0.0,0.0,0.0,0.0,0.0,0.0,0.0,0.0,0.0,0.0,0.0,0.0,0.0,0.0,0.0,0.0,0.0,0.0,0.0,0.0,0.0,0.0,0.0,0.0,0.0,0.0,0.0,0.0,0.0,0.0,0.0,0.0,0.0,0.0,0.0,0.0,0.0,0.0,0.0,0.0,0.0,0.0,0.0,0.0,0.0,0.0,0.0,0.0,0.0,0.0,0.0,0.0,0.0,0.0,0.0,0.0,0.0,0.0,0.0,0.0,0.0,0.0,0.0,0.0,0.0,0.0,0.0,0.0,0.0,0.0,0.0,0.0,0.0,0.0,0.0,0.0,0.0,0.0,0.0,0.0,0.0,0.0,0.0,0.0,0.0,0.0,0.0,0.0,0.0,0.0,0.0,0.0,0.0,0.0,0.0,0.0,0.0,0.0,0.0,0.0,0.0,0.0,0.0,0.0,0.0,0.0,0.0,0.0,0.0,0.0,0.0,0.0,0.0,0.0,0.0,0.0,0.0,0.0,0.0,0.0,0.0,0.0,0.0,0.0,0.0,0.0,0.0,0.0,0.0,0.0,0.0,0.0,0.0,0.0,0.0,0.0,0.0,0.0,0.0,0.0,0.0,0.0,0.0,0.0,0.0,0.0,0.0,0.0,0.0,0.0,0.0,0.0,0.0,0.0,0.0,0.0,0.0,0.0,0.0,0.0,0.0,0.0,0.0,0.0,0.0,0.0,0.0,0.0,0.0,0.0,0.0,0.0,0.0,0.0,0.0,0.0,0.0,0.0,0.0,0.0,0.0,0.0,0.0,0.0,0.0,0.0,0.0,0.0,0.0,0.0,0.0,0.0,0.0,0.0,0.0,0.0,0.0,0.0,0.0,0.0,0.0,0.0,0.0,0.0,0.0,0.0,0.0,0.0,0.0,0.0,0.0,0.0,0.0,0.0,0.0,0.0,0.0,0.0,0.0,0.0,0.0,0.0,0.0,0.0,0.0,0.0,0.0,0.0,0.0,0.0,0.0,0.0,0.0,0.0,0.0,0.0,0.0,0.0,0.0,0.0,0.0,0.0,0.0,0.0,0.0,0.0,0.0,0.0,0.0,0.0,0.0,0.0,0.0,0.0,0.0,0.0,0.0,0.0,0.0,0.0,0.0,0.0,0.0,0.0,0.0,0.0,0.0,0.0,0.0,0.0,0.0,0.0,0.0,0.0,0.0,0.0,0.0,0.0,0.0,0.0,0.0,0.0,0.0,0.0,0.0,0.0,0.0,0.0,0.0,0.0,0.0,0.0,0.0,0.0,0.0,0.0,0.0,0.0,0.0,0.0,0.0,0.0,0.0,0.0,0.0,0.0,0.0,0.0,0.0,0.0,0.0,0.0,0.0,0.0,0.0,0.0,0.0,0.0,0.0,0.0,0.0,0.0,0.0,0.0,0.0,0.0,0.0,0.0,0.0,0.0,0.0,0.0,0.0,0.0,0.0,0.0,0.0,0.0,0.0,0.0,0.0,0.0,0.0,0.0,0.0,0.0,0.0,0.0,0.0,0.0,0.0,0.0,0.0,0.0,0.0,0.0,0.0,0.0,0.0,0.0,0.0,0.0,0.0,0.0,0.0,0.0,0.0,0.0,0.0,0.0,0.0,0.0,0.0,0.0,0.0,0.0,0.0,0.0,0.0,0.0,0.0,0.0,0.0,0.0,0.0,0.0,0.0,0.0,0.0,0.0,0.0,0.0,0.0,0.0,0.0,0.0,0.0,0.0,0.0,0.0,0.0,0.0,0.0,0.0,0.0,0.0,0.0,0.0,0.0,0.0,0.0,0.0,0.0,0.0,0.0,0.0,0.0,0.0,0.0,0.0,0.0,0.0,0.0,0.0,0.0,0.0,0.0,0.0,0.0,0.0,0.0,0.0,0.0,0.0,0.0,0.0,0.0,0.0,0.0,0.0,0.0,0.0,0.0,0.0,0.0,0.0,0.0,0.0,0.0,0.0,0.0,0.0,0.0,0.0,0.0,0.0,0.0,0.0,0.0,0.0,0.0,0.0,0.0,0.0,0.0,0.0,0.0,0.0,0.0,0.0,0.0,0.0,0.0,0.0,0.0,0.0,0.0,0.0,0.0,0.0,0.0,0.0,0.0,0.0,0.0,0.0,0.0,0.0,0.0,0.0,0.0,0.0,0.0,0.0,0.0,0.0,0.0,0.0,0.0,0.0,0.0,0.0,0.0,0.0,0.0,0.0,0.0,0.0,0.0,0.0,0.0,0.0,0.0,0.0,0.0,0.0,0.0,0.0,0.0,0.0,0.0,0.0,0.0,0.0,0.0,0.0,0.0,0.0,0.0,0.0,0.0,0.0,0.0,0.0,0.0,0.0,0.0,0.0,0.0,0.0,0.0,0.0,0.0,0.0,0.0,0.0,0.0,0.0,0.0,0.0,0.0,0.0,0.0,0.0,0.0,0.0,0.0,0.0,0.0,0.0,0.0,0.0,0.0,0.0,0.0,0.0,0.0,0.0,0.0,0.0,0.0,0.0,0.0,0.0,0.0,0.0,0.0,0.0,0.0,0.0,0.0,0.0,0.0,0.0,0.0,0.0,0.0,0.0,0.0,0.0,0.0,0.0,0.0,0.0,0.0,0.0,0.0,0.0,0.0,0.0,0.0,0.0,0.0,0.0,0.0,0.0,0.0,0.0,0.0,0.0,0.0,0.0,0.0,0.0,0.0,0.0,0.0,0.0,0.0,0.0,0.0,0.0,0.0,0.0,0.0,0.0,0.0,0.0,0.0,0.0,0.0,0.0,0.0,0.0,0.0,0.0,0.0,0.0,0.0,0.0,0.0,0.0,0.0,0.0,0.0,0.0,0.0,0.0,0.0,0.0,0.0,0.0,0.0,0.0,0.0,0.0,0.0,0.0,0.0,0.0,0.0,0.0,0.0,0.0,0.0,0.0,0.0,0.0,0.0,0.0,0.0,0.0,0.0,0.0,0.0,0.0,0.0,0.0,0.0,0.0,0.0,0.0,0.0,0.0,0.0,0.0,0.0,0.0,0.0,0.0,0.0,0.0,0.0,0.0,0.0,0.0,0.0,0.0,0.0,0.0,0.0,0.0,0.0,0.0,0.0,0.0,0.0,0.0,0.0,0.0,0.0,0.0,0.0,0.0,0.0,0.0,0.0,0.0,0.0,0.0,0.0,0.0,0.0,0.0,0.0,0.0,0.0,0.0,0.0,0.0,0.0,0.0,0.0,0.0,0.0,0.0,0.0,0.0,0.0,0.0,0.0,0.0,0.0,0.0,0.0,0.0,0.0,0.0,0.0,0.0,0.0,0.0,0.0,0.0,0.0,0.0,0.0,0.0,0.0,0.0,7.2935,7.2496,0.0,0.0,0.0,0.0,0.0,0.0,0.0,0.0,0.0,0.0,0.0,0.0,0.0,0.0,0.0,0.0,0.0,0.0,0.0,0.0,0.0,0.0,0.0,3.6207,3.6358,3.6358,3.6634,3.691,3.7161,3.799,3.8567,3.8868,3.9396,3.9697,3.9697,3.9697,3.9697,3.9697,3.9697,3.9823,4.0074,3.9823,3.9697,3.9672,0.0,0.0,0.0,0.0,0.0,0.0,0.0,0.0,0.0,0.0,0.0,0.0,0.0,0.0,0.0,0.0,0.0,0.0,0.0,0.0,0.0,0.0,0.0,0.0,0.0,0.0,0.0,0.0,0.0,0.0,0.0,0.0,0.0,0.0,0.0,0.0,0.0,0.0,0.0,0.0,0.0,0.0,0.0,0.0,0.0,0.0,0.0,0.0,0.0,0.0,0.0,0.0,0.0,0.0,0.0,0.0,0.0,0.0,0.0,0.0,0.0,0.0,0.0,0.0,0.0,0.0,0.0,0.0,0.0,0.0,7.4965,7.3984,0.0,0.0,0.0,0.0,0.0,0.0,0.0,0.0,0.0,0.0,0.0,0.0,0.0,0.0,0.0,0.0,0.0,0.0,0.0,0.0,0.0,3.6031,3.5579,3.6031,3.6358,3.6358,3.6358,3.6558,3.701,3.7638,3.8216,3.8693,3.9346,3.9697,3.9697,3.9697,3.9697,3.9697,3.9898,4.0275,4.0802,4.0526,4.035,4.0249,3.9873,0.0,0.0,0.0,0.0,0.0,0.0,0.0,0.0,0.0,0.0,0.0,0.0,0.0,0.0,0.0,0.0,0.0,0.0,0.0,0.0,0.0,0.0,0.0,0.0,0.0,0.0,0.0,0.0,0.0,0.0,0.0,0.0,0.0,0.0,0.0,0.0,0.0,0.0,0.0,0.0,0.0,0.0,0.0,0.0,0.0,0.0,0.0,0.0,0.0,0.0,0.0,0.0,0.0,0.0,0.0,0.0,0.0,0.0,0.0,0.0,0.0,0.0,0.0,7.7468,7.8314,7.987,7.9228,7.9363,7.9972,7.7942,7.642,7.5371,7.527,0.0,0.0,0.0,0.0,0.0,0.0,0.0,0.0,0.0,0.0,0.0,0.0,0.0,0.0,0.0,0.0,0.0,0.0,0.0,3.5629,3.5554,3.6031,3.6358,3.6358,3.6358,3.6383,3.6458,3.7437,3.804,3.8115,3.912,3.9697,3.9697,3.9697,3.9697,3.9697,4.0651,4.1404,4.1957,4.2836,4.3011,4.2459,4.0551,4.0501,4.1731,0.0,0.0,0.0,0.0,0.0,0.0,0.0,0.0,0.0,0.0,0.0,0.0,0.0,0.0,0.0,0.0,0.0,0.0,0.0,0.0,0.0,0.0,0.0,0.0,0.0,0.0,0.0,0.0,0.0,0.0,0.0,0.0,0.0,0.0,0.0,0.0,0.0,0.0,0.0,0.0,0.0,5.7872,5.862,0.0,0.0,0.0,0.0,0.0,0.0,0.0,0.0,0.0,0.0,0.0,0.0,0.0,7.4864,7.6284,7.7029,7.8179,7.9769,7.9769,8.0885,8.2915,8.2813,8.3186,8.3828,8.2881,0.0,7.8483,7.7807,0.0,0.0,0.0,0.0,0.0,0.0,0.0,0.0,0.0,0.0,0.0,0.0,0.0,0.0,0.0,0.0,0.0,0.0,0.0,0.0,0.0,3.6132,3.6835,3.6835,3.7412,3.7513,3.686,3.8165,3.8668,3.804,3.9094,3.9697,3.9697,3.9697,4.0149,4.1078,4.2183,4.3162,4.4041,4.4192,4.4468,4.4769,4.3187,4.2359,4.2082,4.1053,0.0,0.0,0.0,0.0,0.0,0.0,0.0,0.0,0.0,0.0,0.0,0.0,0.0,0.0,0.0,0.0,0.0,0.0,0.0,0.0,0.0,0.0,0.0,0.0,0.0,0.0,0.0,0.0,0.0,0.0,0.0,0.0,0.0,0.0,0.0,0.0,0.0,0.0,0.0,5.877,5.9907,6.0206,6.0894,6.1044,0.0,0.0,0.0,0.0,0.0,0.0,0.0,0.0,0.0,7.598,7.6758,7.7671,7.8754,7.9904,8.1224,8.2746,8.3558,8.4471,8.5418,8.5824,8.5993,8.5892,8.5554,8.42,8.2069,8.004,7.8769,7.7892,0.0,0.0,0.0,0.0,7.9093,8.0334,0.0,0.0,0.0,0.0,0.0,0.0,0.0,0.0,0.0,0.0,0.0,0.0,3.4576,3.5573,3.6456,3.6776,3.7766,3.8016,3.7462,3.8718,3.912,3.8266,3.917,3.9697,3.9697,3.9973,4.0927,4.2585,4.3539,4.4669,4.5899,4.5598,4.5924,4.6677,4.5999,4.4844,4.3363,4.2233,4.1605,4.1279,0.0,0.0,0.0,0.0,0.0,0.0,0.0,0.0,0.0,0.0,0.0,0.0,0.0,0.0,0.0,0.0,0.0,0.0,0.0,0.0,0.0,0.0,0.0,0.0,0.0,0.0,0.0,0.0,0.0,0.0,0.0,0.0,0.0,0.0,0.0,0.0,0.0,6.1074,6.2002,6.1642,6.3228,6.382,0.0,0.0,0.0,0.0,0.0,0.0,7.3635,7.6072,7.7976,7.9092,8.004,8.0987,8.19,8.3389,8.4877,8.6399,8.7516,8.8125,8.8328,8.8903,8.8734,8.8023,8.7617,8.7023,8.5985,8.299,8.1297,8.0546,8.0314,8.0443,8.0905,8.1629,8.2432,8.3265,0.0,0.0,0.0,0.0,0.0,0.0,0.0,0.0,0.0,0.0,0.0,3.3196,3.4074,3.3981,3.4393,3.5781,3.6279,3.7019,3.7891,3.8567,3.8894,3.8818,3.9371,3.9697,3.9697,4.0727,4.2057,4.3714,4.4292,4.5422,4.7054,4.7531,4.7782,4.7857,4.8335,4.7933,4.6702,4.4041,4.3187,4.3438,4.1329,0.0,0.0,0.0,0.0,0.0,0.0,0.0,0.0,0.0,0.0,0.0,0.0,0.0,0.0,0.0,0.0,0.0,0.0,0.0,0.0,0.0,0.0,0.0,0.0,0.0,0.0,0.0,0.0,0.0,0.0,0.0,0.0,0.0,0.0,0.0,0.0,0.0,0.0,6.3139,6.5772,0.0,0.0,0.0,0.0,7.0279,7.3567,7.6016,7.6743,7.8151,7.9972,8.2137,8.3592,8.5046,8.6569,8.8023,8.9512,9.0966,9.1034,9.144,9.215,9.2184,9.1778,9.1,8.9579,8.9608,9.0434,8.7354,8.489,8.3033,8.4194,8.4799,8.5062,8.5138,8.5846,8.6852,0.0,0.0,0.0,0.0,0.0,0.0,3.1777,3.1865,3.2347,3.3734,3.3417,3.3362,3.4095,3.5067,3.5899,3.6777,3.817,3.9025,3.912,3.9295,3.9245,3.8894,3.9069,3.9672,4.0727,4.1831,4.3212,4.4895,4.5799,4.6728,4.7631,4.8209,4.846,4.8485,4.9038,4.9289,4.9063,4.6301,4.4819,4.4192,4.271,4.1555,0.0,0.0,0.0,0.0,0.0,0.0,0.0,0.0,0.0,0.0,0.0,0.0,0.0,0.0,0.0,0.0,0.0,0.0,0.0,0.0,0.0,0.0,0.0,0.0,0.0,0.0,0.0,0.0,0.0,0.0,0.0,0.0,0.0,0.0,0.0,0.0,0.0,6.6849,7.0066,0.0,7.059,7.3466,7.5352,7.5373,7.8331,8.0435,8.1173,8.2638,8.42,8.596,8.7448,8.87,8.9715,9.1237,9.2252,9.2759,9.3267,9.3368,9.3199,9.3673,9.3199,9.1981,9.1474,9.1459,9.1715,9.085,8.9385,8.7593,8.7479,8.7673,8.7961,8.7961,8.8215,8.861,0.0,0.0,0.0,0.0,0.0,3.0305,3.1045,3.1223,3.1752,3.331,3.263,3.2567,3.4225,3.505,3.5864,3.6913,3.861,3.9488,3.8945,3.9465,3.9521,3.917,3.932,4.0124,4.158,4.2685,4.4066,4.5773,4.6502,4.7305,4.8209,4.8385,4.8686,4.9063,4.9615,5.0067,5.0318,4.8686,4.7129,4.5598,4.4141,4.3087,4.2258,0.0,0.0,0.0,0.0,0.0,0.0,0.0,0.0,0.0,0.0,0.0,0.0,0.0,0.0,0.0,0.0,0.0,0.0,0.0,0.0,0.0,0.0,0.0,0.0,0.0,0.0,0.0,0.0,0.0,0.0,0.0,0.0,0.0,0.0,6.6789,6.8645,6.9542,7.3496,7.5808,7.5016,7.8388,8.0664,8.0668,8.3436,8.5351,8.6095,8.7347,8.8598,8.985,9.1068,9.1947,9.2455,9.3943,9.4823,9.5093,9.5838,9.5939,9.5466,9.5702,9.5332,9.4624,9.4112,9.4163,9.4637,9.4385,9.3315,9.1799,9.071,9.0479,9.0629,9.0335,9.0225,9.0188,0.0,0.0,0.0,0.0,0.0,3.1134,3.1223,3.1223,3.1603,3.2557,3.0909,3.0845,3.4111,3.3655,3.3926,3.5871,3.7339,3.7892,3.7631,3.8896,3.9672,3.9697,4.0249,4.1078,4.2183,4.3263,4.4644,4.6301,4.6301,4.7129,4.8711,4.8159,4.851,4.9615,5.0167,5.0444,5.0494,5.1046,5.0017,4.7857,4.5648,4.4744,4.4468,0.0,0.0,0.0,0.0,0.0,0.0,0.0,0.0,0.0,0.0,0.0,0.0,0.0,0.0,0.0,0.0,0.0,0.0,0.0,0.0,0.0,0.0,0.0,0.0,0.0,0.0,0.0,0.0,0.0,0.0,0.0,0.0,0.0,6.6161,6.8944,7.1009,7.1228,7.6261,7.9315,7.8147,8.2812,8.5948,8.602,8.87,9.0628,9.1372,9.2083,9.2861,9.3673,9.4417,9.4823,9.4857,9.6277,9.736,9.8104,9.8781,9.9119,9.9119,9.8409,9.8378,9.8922,9.7577,9.7944,9.9389,9.7837,9.6567,9.5401,9.3786,9.3125,9.2978,9.2097,9.1803,9.1693,0.0,0.0,0.0,0.0,0.0,2.9235,3.0956,3.1223,3.1603,3.2557,3.1886,3.1598,3.2383,3.2818,3.3926,3.5871,3.7014,3.8214,3.9593,3.9315,3.927,3.9672,4.0601,4.1806,4.3313,4.4041,4.502,4.6301,4.6301,4.6753,4.7581,4.7807,4.851,4.9615,5.0167,5.087,5.1624,5.1373,5.1147,5.0795,4.8962,4.7506,4.6301,0.0,0.0,0.0,0.0,0.0,0.0,0.0,0.0,0.0,0.0,0.0,0.0,0.0,0.0,0.0,0.0,0.0,0.0,0.0,0.0,0.0,0.0,0.0,0.0,0.0,0.0,0.0,0.0,0.0,0.0,0.0,6.67,6.7926,6.9363,7.1577,7.4269,7.7427,8.1736,8.4924,8.634,8.9527,9.1463,9.1474,9.2184,9.2996,9.374,9.3977,9.4654,9.5939,9.6717,9.736,9.7901,9.8815,9.939,9.9627,9.9829,9.9897,9.9897,9.9694,9.964,9.9754,9.9338,9.9321,9.9425,9.8415,9.7367,9.6208,9.4593,9.3235,9.2134,9.1877,9.1803,9.1767,0.0,0.0,0.0,0.0,0.0,2.8866,3.0214,3.0485,3.0583,3.1027,3.113,3.146,3.1969,3.3001,3.427,3.596,3.7358,3.846,3.9234,3.9237,3.9572,4.035,4.1229,4.2459,4.4116,4.4694,4.5422,4.6301,4.6552,4.6928,4.7481,4.8008,4.8736,4.9615,5.0167,5.0921,5.1749,5.1674,5.195,5.2377,5.1373,5.0142,4.8711,4.7104,4.625,4.5817,4.5232,4.5158,4.5213,4.4438,0.0,0.0,0.0,0.0,0.0,0.0,0.0,0.0,0.0,0.0,0.0,0.0,0.0,0.0,0.0,0.0,0.0,0.0,0.0,0.0,0.0,0.0,0.0,0.0,6.8405,7.0727,7.4111,7.5236,7.7282,8.1288,8.5556,8.8828,9.0598,9.3104,9.4383,9.4079,9.4924,9.5635,9.6074,9.6683,9.7394,9.824,9.8713,9.9153,9.9559,10.0303,10.0709,10.0709,10.1014,10.1216,10.1216,10.0811,10.1097,10.1868,10.1204,10.1097,10.1146,9.9729,9.84,9.7016,0.0,0.0,0.0,0.0,9.1803,9.1803,0.0,0.0,0.0,2.76,2.868,2.9601,2.9396,2.951,2.9382,2.8915,2.9536,3.0579,3.1981,3.3399,3.4667,3.5781,3.758,3.8457,3.7844,3.9173,4.0375,4.148,4.2158,4.3237,4.4769,4.5422,4.5974,4.6401,4.6954,4.7456,4.7908,4.851,4.9113,4.9715,5.0193,5.077,5.1398,5.19,5.2427,5.2929,5.2929,5.2302,5.1147,4.9088,4.856,4.8761,4.7154,4.6702,4.6753,4.6238,0.0,0.0,0.0,0.0,0.0,0.0,0.0,0.0,0.0,0.0,0.0,0.0,0.0,0.0,0.0,0.0,0.0,0.0,0.0,0.0,0.0,0.0,0.0,0.0,7.0787,7.4213,7.918,7.9994,8.1165,8.4069,8.8537,9.1648,9.2628,9.478,9.5939,9.5364,9.7157,9.8307,9.8375,9.9627,0.0,0.0,0.0,10.0506,10.0506,10.1183,10.1487,10.1487,10.2198,10.2631,10.2691,10.1945,10.2642,10.4649,10.2984,10.2909,10.3586,10.131,9.9218,9.7383,9.507,9.3675,9.2868,9.2097,9.1803,9.1803,0.0,0.0,0.0,2.76,2.9396,3.0485,2.9579,3.0214,3.04,2.8993,2.9536,2.9928,2.963,3.1395,3.32,3.4709,3.6262,3.7959,3.9829,4.0539,4.1505,4.261,4.4066,4.5196,4.5974,4.6928,4.728,4.6979,4.7506,4.7807,4.7908,4.851,4.9314,5.0268,5.0368,5.0996,5.195,5.2051,5.2427,5.2929,5.2929,5.2528,5.185,5.0971,5.0419,4.9941,4.8736,4.9163,5.0276,4.9733,5.107,5.3043,5.3525,5.378,0.0,0.0,0.0,0.0,0.0,0.0,0.0,0.0,0.0,0.0,0.0,0.0,0.0,0.0,0.0,0.0,0.0,0.0,0.0,7.062,7.4119,7.781,8.1423,8.5854,8.8855,8.9541,9.1956,9.444,9.6607,9.7879,9.8645,9.9119,9.9559,10.01,10.0675,10.098,10.1419,10.2028,10.2096,10.2096,10.2096,10.2198,10.2299,10.2299,10.2401,0.0,10.4194,10.3436,10.4191,10.6145,10.4466,10.3439,10.2815,10.1017,9.8594,9.5804,9.4006,9.2794,9.2024,9.184,9.1803,9.1803,0.0,0.0,0.0,0.0,2.9487,3.0305,3.0305,3.0777,3.0763,2.9546,3.0756,3.1447,3.0601,3.242,3.4005,3.512,3.6757,3.8576,4.0345,4.1028,4.2208,4.4141,4.5045,4.5999,4.7079,4.7631,4.7782,4.7531,4.8083,4.8335,4.836,4.8912,4.949,5.0017,5.0293,5.0896,5.1699,5.2,5.2427,5.2929,5.2929,5.2754,5.2477,5.2201,5.1925,5.1599,5.1046,5.188,5.324,5.2786,5.4186,5.6121,5.6394,5.6508,5.6515,0.0,0.0,0.0,0.0,0.0,0.0,0.0,0.0,0.0,0.0,0.0,0.0,0.0,0.0,6.4934,6.6251,0.0,7.0201,7.2505,7.6712,8.0799,8.4465,8.9382,9.2733,9.2605,9.5028,9.7295,9.8893,9.9424,9.9829,10.0202,10.0608,10.1115,10.1893,10.2299,10.2671,10.3009,10.3077,10.2908,10.2502,10.2502,10.2299,10.1961,10.2552,10.3108,10.3496,10.3739,10.4402,10.5284,10.4094,10.302,10.1898,9.9916,9.7676,9.5401,9.4189,9.3198,9.2391,9.195,9.1803,9.1839,0.0,0.0,0.0,0.0,0.0,2.967,3.0395,3.0664,3.067,3.0045,3.1662,3.2614,3.2152,3.3754,3.5194,3.6021,3.7839,3.9371,4.0601,4.1304,4.2836,4.5522,4.5949,4.6728,4.8058,4.8284,4.8335,4.8234,4.8812,4.9088,4.9113,4.9665,4.9916,4.9941,5.0393,5.0896,5.1473,5.1925,5.2427,5.2929,5.2929,5.2929,5.2929,5.2929,5.2929,5.2929,5.3316,5.4035,5.505,5.5564,5.6565,5.7772,5.8608,5.8841,5.8574,5.8178,5.865,0.0,0.0,0.0,0.0,0.0,0.0,0.0,0.0,6.2869,6.3528,6.5233,6.6131,6.7029,6.8465,7.056,7.2757,7.4872,7.9243,8.3668,8.7917,9.222,9.5137,9.5568,9.7824,9.9627,10.0405,10.0438,10.0608,10.0811,10.1487,10.2096,10.2908,10.3483,10.3787,10.3787,10.3787,10.3483,10.2705,10.2705,10.2462,10.1995,10.304,10.3383,10.3442,10.4189,10.4581,10.4578,10.3383,10.2179,10.0907,9.8924,9.7163,9.5658,9.4666,9.4007,9.3417,9.2423,9.2018,9.2159,0.0,0.0,0.0,0.0,0.0,2.905,2.8143,2.8958,2.9667,2.9974,3.0606,3.1143,3.1538,3.3221,3.5064,3.692,3.8141,3.9546,4.1153,4.2208,4.3815,4.6125,4.7631,4.8485,4.8661,4.964,4.9891,4.9414,4.9967,5.0243,5.0243,5.082,5.1096,5.1096,5.1147,5.1498,5.2026,5.2076,5.2427,5.2929,5.2929,5.2929,5.2929,5.2929,5.2929,5.3042,5.4541,5.4525,5.433,5.8407,5.9137,5.8982,6.2292,6.2519,6.1595,6.1583,6.0805,5.9787,5.9009,5.9308,6.0176,6.1433,6.2301,6.3169,0.0,6.5592,6.667,6.7478,6.8196,6.9243,7.1098,7.2176,7.4299,7.9028,8.2534,8.6597,9.1761,9.5443,9.8329,10.0387,10.0278,10.0405,10.1183,10.1284,10.1792,10.3111,10.328,10.3686,10.4396,10.4498,10.4566,10.4566,10.4566,10.4193,10.3483,10.3483,10.3711,10.4262,10.3724,10.4695,10.7053,10.592,10.5632,10.6023,10.3751,10.1442,9.9365,9.9071,9.8007,9.6428,9.4887,9.4628,9.495,9.3454,9.2896,9.2987,0.0,0.0,0.0,0.0,0.0,2.868,2.9601,3.0124,3.0758,3.1711,3.228,3.262,3.2835,3.4096,3.5421,3.6659,3.7713,3.922,4.1204,4.266,4.4593,4.7129,4.8234,4.9063,4.9715,5.0167,5.0469,5.0569,5.0795,5.0921,5.0921,5.1172,5.1272,5.1297,5.1624,5.19,5.2126,5.2452,5.2703,5.2929,5.2929,5.2929,5.3017,5.3587,5.3627,5.3343,5.4079,5.464,0.0,5.7951,5.9626,6.0819,6.237,6.3049,6.3049,6.2301,6.1972,6.1672,6.1014,6.1343,6.2151,6.3468,6.4575,6.5712,6.7029,6.7777,6.8435,6.9482,7.053,7.1757,7.3343,7.5108,7.7542,8.112,8.5081,8.8923,9.2611,9.6699,9.9322,9.9424,10.0709,10.1825,10.2603,10.2671,10.3077,10.416,10.4193,10.4566,10.531,10.531,10.531,10.531,10.531,10.4802,10.3585,10.451,10.4537,10.3946,10.5348,10.6409,10.7076,10.6816,10.602,10.4798,10.2375,10.0503,9.9035,9.808,9.7247,9.6539,9.5906,9.552,9.5142,9.3588,9.3264,9.3764,0.0,0.0,0.0,0.0,0.0,0.0,3.0395,3.0664,3.1311,3.2896,3.342,3.3721,3.3872,3.4876,3.5705,3.6107,3.7136,3.8718,4.0978,4.2509,4.4719,4.7782,4.8611,4.9515,5.0619,5.0795,5.1096,5.1498,5.1498,5.1599,5.1724,5.1724,5.1724,5.1749,5.2151,5.2327,5.2352,5.2754,5.2929,5.2929,5.3427,5.3462,5.3394,5.4445,5.44,5.3761,5.4423,5.4992,5.5877,5.7456,5.9374,6.1104,6.1642,6.257,6.3318,6.26,6.272,6.3019,6.272,6.3228,6.4156,6.5293,6.67,6.8106,6.9273,6.9812,7.038,7.1487,7.2804,7.4091,7.5198,7.7655,8.0425,8.3326,8.7183,9.0879,9.4014,9.722,9.9051,9.8375,10.01,10.1724,10.2874,10.3382,10.3889,10.4599,10.487,10.531,10.6088,10.6122,10.6122,10.6122,10.6122,10.5642,10.4435,10.5589,10.5737,10.5046,10.6936,10.7594,10.7285,10.7022,10.5789,10.3806,10.1604,9.9989,9.8998,9.7836,9.7206,9.6936,9.6938,9.6546,9.5756,9.4461,9.4123,9.4476,0.0,0.0,0.0,0.0,0.0,0.0,0.0,2.9487,3.0328,3.2785,3.3093,3.3294,3.3847,3.4876,3.5554,3.5579,3.6584,3.8165,4.04,4.158,4.3915,4.7732,4.8987,5.0092,5.1222,5.1774,5.2076,5.2076,5.2076,5.2352,5.2879,5.2879,5.2879,5.2879,5.2904,5.2904,5.2904,5.2929,5.2929,5.3042,5.4675,5.4971,5.4575,5.5562,5.5072,5.4259,5.6673,5.6307,5.5152,5.8001,5.8632,5.859,6.0535,6.1613,6.2271,6.2869,6.3049,6.3199,6.3767,6.4904,6.6071,6.6759,6.8435,7.0051,7.0709,7.1846,7.2984,7.3672,7.4869,7.6006,7.6664,7.9284,8.2682,8.6582,8.9284,9.2583,9.7249,9.7394,9.7495,9.8882,9.851,9.9018,10.1284,10.2773,10.3889,10.4599,10.5377,10.6088,10.6798,10.69,10.69,10.69,10.69,10.6812,10.6839,10.677,10.7548,10.8818,10.8159,10.814,10.8675,10.6339,10.4724,10.3806,10.2191,10.0576,9.9113,9.905,9.8507,9.7748,9.7771,9.7712,9.7429,9.6591,9.579,9.5273,0.0,0.0,0.0,0.0,0.0,0.0,0.0,0.0,0.0,3.2896,3.3068,0.0,0.0,0.0,0.0,0.0,3.6558,3.7814,3.932,4.1128,4.3062,4.5095,4.7305,4.9012,5.0142,5.1071,5.1925,5.2653,5.2653,5.2754,5.2929,5.2929,5.2929,5.2929,5.2929,5.2929,5.2929,5.2929,5.313,5.3381,5.3284,5.3993,5.4944,5.4365,5.4213,5.4572,0.0,5.5109,5.423,5.5946,5.7214,5.8321,5.9428,6.0535,6.1583,6.2241,6.3348,6.4425,6.4635,6.6311,6.8256,6.9333,7.0769,7.2325,7.3881,7.4569,7.4958,7.5198,7.4869,7.4629,7.4839,7.7331,8.0494,8.4027,8.8597,9.2782,9.6068,9.8003,9.8544,9.7089,9.8882,9.9965,9.9221,10.098,10.3077,10.5276,10.5682,10.6122,10.69,10.69,10.69,10.69,10.7346,10.7415,10.6839,10.8317,10.9048,10.8989,10.9199,10.9144,10.8688,10.6816,10.4908,10.2999,10.1384,9.979,9.82,9.7695,9.7242,9.6923,9.7451,9.7295,9.6785,9.7015,9.6593,9.5981,0.0,0.0,0.0,0.0,0.0,0.0,0.0,0.0,0.0,0.0,0.0,0.0,0.0,0.0,0.0,0.0,0.0,3.7362,3.8492,4.0074,4.1656,4.3137,4.5296,4.6979,4.8109,4.9038,4.9941,5.0845,5.1046,5.1247,5.1448,5.185,5.2026,5.2051,5.2251,5.2352,5.2352,5.2352,5.2674,5.335,5.293,5.3752,5.4936,5.4201,5.4156,0.0,5.4518,5.4243,5.4019,5.5172,5.6526,5.7872,5.853,5.9847,6.1253,6.1912,6.3647,6.5443,6.5652,6.7837,7.029,7.1368,7.2804,7.433,7.5617,7.6066,7.6185,7.5946,7.4839,7.3821,7.3582,7.6054,7.9038,8.1655,8.6905,9.1669,9.4973,9.6819,9.7631,9.7056,9.8612,9.9525,9.8848,10.01,10.2096,10.4802,10.5276,10.558,10.6088,10.6088,10.6354,10.6943,10.7381,10.7721,10.7934,10.9441,10.9908,10.9375,10.8888,10.8285,10.7404,10.5789,10.388,10.1788,10.0712,9.9316,9.7793,9.7542,9.7193,9.6905,9.7707,9.7511,9.6788,9.7326,9.698,9.6288,0.0,0.0,0.0,0.0,0.0,0.0,0.0,0.0,0.0,0.0,0.0,0.0,0.0,0.0,0.0,0.0,0.0,0.0,3.7839,3.8492,3.9772,4.1856,4.3062,4.4192,4.5296,4.5874,4.6476,4.7054,4.7531,4.8083,4.8661,4.9715,5.0218,5.0243,5.077,5.1021,5.1021,5.1021,5.1586,5.2497,5.3456,5.4198,5.4553,5.482,5.463,5.4132,5.3443,5.3653,5.4461,5.5718,5.6585,5.7304,5.7992,5.9578,6.1313,6.2002,6.4066,6.6251,6.6939,6.9512,7.2146,7.2834,7.448,7.5916,7.5946,7.6395,7.6634,7.5886,7.4659,7.3462,7.2744,7.5434,7.8098,7.9693,8.4639,8.9782,9.4214,9.4315,9.5195,9.8679,9.7901,9.7935,10.0032,10.0235,10.1216,10.3382,10.4261,10.4667,10.4667,10.4832,10.5509,10.6874,10.7013,10.8048,11.008,11.0107,11.0028,10.99,10.7477,10.5899,10.5018,10.3448,10.1795,10.0331,10.0309,9.9351,9.7843,9.8561,9.8316,9.7647,9.8362,9.8173,9.7442,9.7442,9.698,9.6288,0.0,0.0,0.0,0.0,0.0,0.0,0.0,0.0,0.0,0.0,0.0,0.0,0.0,0.0,0.0,0.0,0.0,0.0,3.6759,3.7688,3.8467,3.9044,4.0927,4.2283,4.2986,4.394,4.492,4.5899,4.6024,4.6401,4.6954,4.723,4.7355,4.7355,4.7506,4.7581,4.7581,4.7581,4.8544,4.9887,4.9876,5.1422,5.3617,5.2422,5.2834,5.4132,5.3443,5.3922,5.4999,5.5329,5.6855,5.871,5.9368,6.0625,6.2061,6.3199,6.5383,6.7717,6.8854,7.1248,7.3552,7.421,7.5138,7.6036,7.6485,7.6724,7.6215,7.4121,7.2235,7.047,6.8794,7.2439,7.6586,7.9064,8.6114,9.2489,9.5838,9.7597,9.8679,9.9051,9.9762,10.0202,10.0235,10.0709,10.1589,10.2705,10.399,10.4667,10.4667,10.6244,10.7092,10.6839,10.854,10.9474,11.008,11.013,10.9656,10.9092,10.6596,10.5018,10.4173,10.2535,10.1276,10.0272,10.0151,9.9271,9.7703,9.7866,9.7401,9.6634,9.6866,9.6788,9.6596,9.6596,9.648,9.6288,0.0,0.0,0.0,0.0,0.0,0.0,0.0,0.0,0.0,0.0,0.0,0.0,0.0,0.0,0.0,0.0,0.0,0.0,0.0,3.6935,3.7287,3.7287,3.8718,3.9647,3.9973,4.0827,4.1806,4.2936,4.3187,4.3714,4.4493,4.497,4.5196,4.5221,4.5472,4.5573,4.5573,4.5573,4.6695,0.0,0.0,4.9904,5.2399,5.1683,5.2427,5.3743,5.3653,5.485,5.6526,5.6825,5.8291,6.0206,6.1403,6.254,6.3707,6.5263,6.7418,6.9482,7.05,7.2505,7.448,7.5168,7.5617,7.5826,7.5587,7.5527,7.4809,7.2176,7.0051,6.8226,6.6819,7.0348,7.4397,7.694,8.419,9.1,9.533,9.7292,9.8848,10.0405,10.1081,10.1318,10.1216,10.1589,10.2096,10.2502,10.328,10.4211,10.5218,10.6022,10.7109,10.8317,10.9223,10.9861,11.0051,10.929,10.8395,10.711,10.4687,10.3095,10.2311,10.1012,10.0233,9.9729,9.9651,9.8832,9.7591,9.756,9.7053,9.6288,9.6288,9.6288,9.6288,9.6288,9.6288,9.6288,0.0,0.0,0.0,0.0,0.0,0.0,0.0,0.0,0.0,0.0,0.0,0.0,3.4115,3.4585,0.0,0.0,0.0,0.0,0.0,0.0,3.6358,3.6358,3.6835,3.7086,3.7086,3.7538,3.8316,3.9371,3.9923,4.0701,4.1731,4.276,4.3263,4.3288,4.3765,4.3966,4.3966,4.4194,4.5375,4.7322,4.7668,4.9094,5.105,0.0,5.2606,5.3294,5.4251,5.6107,5.8261,5.9099,6.0326,6.1792,6.3468,6.4665,6.5802,6.7687,6.9572,7.1188,7.1936,7.3492,7.5048,7.5736,7.5826,7.5407,7.4061,7.3702,7.2834,7.0021,6.8076,6.661,6.5772,6.8862,7.2453,7.5008,8.1404,8.8192,9.4282,9.577,9.78,10.1995,10.1893,10.1792,10.2401,10.2502,10.2502,10.2502,10.2759,10.3724,10.5783,10.5501,10.6788,11.0197,10.9607,10.936,10.979,10.8175,10.6486,10.4798,10.261,10.1054,10.0103,9.9486,9.9105,9.8952,9.9047,9.8486,9.7578,9.7517,9.7019,9.6288,9.6288,9.6288,9.6288,9.6288,9.6288,9.6288,0.0,0.0,0.0,0.0,0.0,0.0,0.0,0.0,0.0,0.0,3.0921,0.0,0.0,0.0,0.0,0.0,0.0,0.0,0.0,0.0,0.0,3.6358,3.6458,3.6508,3.6508,3.6609,3.696,3.7613,3.8165,3.8793,3.9446,4.0099,4.04,4.04,4.0501,4.0551,4.0656,4.1724,4.2911,4.4456,4.665,4.829,4.9793,5.1528,5.2606,0.0,5.5777,5.7244,5.8381,6.0176,6.1972,6.3558,6.3887,6.5592,6.7747,6.9213,7.062,7.1996,7.3223,7.418,7.5048,7.5736,7.5467,7.4719,7.3402,7.2624,7.1188,6.7448,6.643,6.5652,6.3917,6.8009,7.2935,7.7087,8.3261,8.9918,9.6514,9.807,9.9525,10.2198,10.2401,10.2401,10.2502,10.2502,10.2502,10.2502,10.3563,10.4746,10.5868,10.7344,10.9161,11.1047,11.0258,10.9614,10.9019,10.7404,10.5385,10.3109,10.2018,10.0675,9.9283,9.9821,9.9581,9.8933,9.9615,9.9018,9.7519,9.752,9.7019,9.6288,9.6288,9.6288,9.6288,9.6288,9.6288,9.6286,0.0,0.0,0.0,0.0,0.0,0.0,0.0,0.0,0.0,0.0,2.9786,3.0914,0.0,0.0,0.0,0.0,0.0,0.0,0.0,0.0,0.0,3.6358,3.6358,3.6358,3.6358,3.6358,3.6634,3.7186,0.0,3.8291,3.8868,3.9446,3.9697,3.9697,3.9697,3.9697,3.98,4.1019,4.235,4.3709,4.6367,4.816,4.9523,5.1828,5.3563,0.0,5.6526,5.7752,5.889,6.0565,6.2391,6.4126,6.4814,6.64,6.8375,7.038,7.1398,7.2265,7.3941,7.4629,7.5048,7.5736,7.4869,7.3432,7.1757,7.032,6.8405,6.5144,6.4725,6.4781,6.4228,6.7847,7.2365,7.6372,8.1624,8.7438,9.4129,9.6413,9.851,10.1589,10.2299,10.2502,10.2502,10.2502,10.2819,10.3529,10.4574,10.5689,10.6854,10.9444,11.0659,11.0634,10.979,10.8578,10.689,10.5693,10.3903,10.1388,10.0979,10.0394,9.9669,9.9581,9.9534,9.95,9.898,9.825,9.748,9.7057,9.6634,9.6288,9.6288,9.6288,9.6325,9.6415,9.6172,9.5811,0.0,0.0,0.0,0.0,0.0,0.0,0.0,2.6543,2.6855,2.8125,2.889,3.0317,3.2718,3.3405,3.4246,0.0,0.0,0.0,0.0,0.0,0.0,0.0,3.6358,3.6358,3.6358,0.0,0.0,3.701,3.7563,0.0,0.0,0.0,0.0,0.0,3.9697,3.9697,3.98,4.1019,4.235,0.0,0.0,4.816,4.9583,0.0,0.0,0.0,0.0,5.8082,5.9279,6.0475,6.2091,6.3797,6.4994,6.667,6.8615,7.0829,7.1787,7.2475,7.421,7.4779,7.5018,7.5557,7.418,7.2176,7.0231,6.8226,6.6071,6.3588,6.3558,6.4262,6.5232,6.8084,7.1678,7.5529,7.9438,8.4344,9.1257,9.3842,9.6582,10.0675,10.1792,10.2299,10.2502,10.2502,10.3039,10.452,10.5576,10.681,10.8129,11.0682,11.1184,10.9276,10.8395,10.6816,10.4394,10.3686,10.2305,10.0028,10.0315,10.0267,9.9879,9.9411,9.9304,9.9481,9.8096,9.7403,9.7211,9.6557,9.6288,9.6288,9.6127,9.6086,9.6116,9.6134,9.5687,9.517,0.0,0.0,0.0,0.0,0.0,0.0,0.0,2.6152,2.6855,2.8125,2.8682,2.9527,3.1085,3.2959,3.4027,0.0,0.0,0.0,0.0,0.0,0.0,0.0,0.0,0.0,0.0,0.0,0.0,3.6433,3.6985,0.0,0.0,0.0,0.0,0.0,0.0,3.9697,3.98,4.1019,0.0,0.0,0.0,0.0,0.0,0.0,0.0,0.0,0.0,5.8501,5.9219,5.9937,6.1104,6.2391,6.3109,6.5922,6.9064,6.9901,7.1427,7.2984,7.3762,7.442,7.4899,7.4958,7.3462,7.1457,6.9542,6.7537,6.5533,6.3498,6.3558,6.4412,6.5819,6.8468,7.1789,7.6235,7.8849,8.3013,9.0357,9.2184,9.462,9.9728,10.1014,10.1792,10.2401,10.2502,10.3039,10.452,10.6458,10.8043,10.8863,11.0425,10.99,10.678,10.5899,10.432,10.1898,10.1833,10.089,9.9209,10.0577,10.0468,9.904,9.97,9.9173,9.775,9.7557,9.7096,9.6403,9.6326,9.6288,9.6248,9.5648,9.5381,9.5321,9.479,9.4543,9.462,0.0,0.0,0.0,0.0,0.0,0.0,0.0,2.6269,2.7031,2.8828,2.8769,2.9046,3.0349,3.1593,3.2803,0.0,0.0,0.0,0.0,0.0,0.0,0.0,0.0,0.0,0.0,0.0,3.6358,3.6358,3.691,0.0,0.0,0.0,0.0,0.0,0.0,3.9697,3.98,4.1019,0.0,0.0,0.0,0.0,0.0,0.0,0.0,0.0,0.0,0.0,5.9279,6.0356,6.0775,6.1134,6.26,6.4156,6.5862,6.8106,6.9901,7.1427,7.2924,7.4061,7.4869,7.4869,7.2774,7.044,6.9273,6.6819,6.4485,6.3318,6.3558,6.4412,6.5911,6.7777,7.0249,7.3651,7.5731,7.8983,8.5108,8.738,9.0696,9.6819,9.8612,10.0202,10.2299,10.2814,10.3773,10.5713,10.6992,10.7398,10.6652,10.7695,10.7294,10.4981,10.4076,10.2462,9.9982,10.0407,9.9821,9.8196,9.9335,9.9505,9.8814,9.8634,9.8173,9.748,9.698,9.6596,9.6325,9.6448,9.6158,9.5687,9.5583,9.5195,9.4773,9.4661,9.4303,9.3938,0.0,0.0,0.0,0.0,0.0,0.0,2.582,2.6211,2.707,2.8945,2.8769,2.8867,2.9902,3.0218,3.119,3.3206,0.0,0.0,0.0,0.0,0.0,0.0,0.0,0.0,0.0,0.0,3.6358,3.6358,3.691,3.7186,0.0,0.0,3.8718,3.8894,0.0,0.0,0.0,0.0,0.0,0.0,0.0,0.0,0.0,0.0,0.0,0.0,0.0,0.0,0.0,0.0,0.0,6.0685,6.2271,6.2929,6.3617,6.6311,6.8315,6.9991,7.1607,7.3133,7.43,7.43,7.2116,6.9752,6.8884,6.643,6.4066,6.3258,6.4026,6.5346,6.6854,6.8532,7.0448,7.2713,7.414,7.6541,8.0851,8.3355,8.7042,9.3098,9.4924,9.7056,10.0506,10.2351,10.4041,10.544,10.6085,10.5605,10.3403,10.3696,10.3293,10.2191,10.1759,10.0406,9.7949,9.8892,9.8764,9.7582,9.8396,9.8673,9.8404,9.7788,9.7365,9.7096,9.6586,9.6232,9.6034,9.624,9.579,9.504,9.5066,9.4684,9.413,9.4129,9.3745,9.3283,0.0,0.0,0.0,0.0,0.0,0.0,0.0,2.582,2.6855,2.8144,2.8652,2.9082,2.9531,2.918,2.9431,3.0914,0.0,0.0,0.0,0.0,0.0,0.0,0.0,0.0,0.0,0.0,3.6358,3.6358,3.691,3.7186,3.7186,3.7764,3.8316,3.8868,0.0,0.0,0.0,0.0,0.0,0.0,0.0,0.0,5.3324,0.0,0.0,0.0,0.0,0.0,0.0,0.0,0.0,0.0,0.0,6.254,6.3348,6.4665,6.6939,6.9153,6.9842,7.1427,7.2924,7.2924,7.1457,6.9632,6.8286,6.643,6.4635,6.3348,6.5246,6.7652,6.9138,7.1694,7.374,7.4411,7.5236,7.6521,7.8822,8.1054,8.4099,8.8632,8.9816,9.2049,9.6514,10.0795,10.3219,10.3099,10.3605,10.2522,9.9328,9.8411,9.797,9.7933,9.8648,9.7874,9.5417,9.6885,9.762,9.7582,9.8396,9.8365,9.7519,9.7519,9.7057,9.6325,9.6491,9.6123,9.531,9.561,9.5204,9.4366,9.3755,9.3534,9.3435,9.2846,9.2617,9.2734,0.0,0.0,0.0,0.0,0.0,0.0,0.0,2.5117,2.5957,2.7246,2.7539,2.8008,2.9023,2.875,2.881,2.9519,0.0,0.0,0.0,0.0,0.0,0.0,0.0,0.0,0.0,0.0,3.6358,3.6358,3.691,3.7186,3.7211,3.8165,3.8693,3.8894,3.927,3.9521,0.0,0.0,0.0,0.0,0.0,5.0589,5.3324,0.0,0.0,0.0,0.0,0.0,0.0,0.0,0.0,0.0,0.0,0.0,0.0,6.3438,6.5233,6.7089,6.7777,6.9064,7.035,7.0799,6.9423,6.7837,6.7388,6.5742,6.4096,6.3258,6.4171,6.5612,6.7558,6.9797,7.1916,7.3608,7.4896,7.6149,7.7435,7.9938,8.349,8.8497,9.3808,9.7934,10.021,10.168,10.256,10.2753,10.1946,10.0503,9.8374,9.7016,9.6473,9.7014,9.7178,9.6873,9.6105,9.7012,9.7245,9.6708,9.6982,9.6942,9.6673,9.6057,9.5735,9.5571,9.51,9.4821,9.4716,9.4963,9.4562,9.3794,9.3796,9.3426,9.2843,9.2655,9.2226,9.1758,0.0,0.0,0.0,0.0,0.0,0.0,0.0,2.4687,2.543,2.6406,2.668,2.7266,2.8535,2.8301,2.8281,2.8867,0.0,0.0,0.0,0.0,0.0,0.0,0.0,0.0,0.0,3.6358,3.6458,3.6684,3.7236,3.7487,3.7513,3.8442,3.8868,3.8894,3.922,3.9496,0.0,0.0,0.0,0.0,4.7566,5.0271,5.3294,0.0,0.0,0.0,0.0,0.0,0.0,0.0,0.0,0.0,0.0,0.0,0.0,0.0,6.3947,6.5084,6.6011,6.7208,6.8345,6.8734,6.7717,6.655,6.6311,6.5084,6.3827,6.3199,6.4171,6.5788,6.77,6.9713,7.1662,7.3343,7.4556,7.5473,7.598,7.8822,8.2712,8.7685,9.4243,9.8883,9.9914,10.07,10.1327,10.1772,9.9989,9.8227,9.6612,9.5589,9.5198,9.567,9.589,9.6014,9.599,9.6324,9.6326,9.5826,9.548,9.5326,9.5288,9.4849,9.4729,9.4845,9.4513,9.4231,0.0,9.399,9.3478,9.2663,9.2498,9.2109,9.1601,9.1601,9.1289,9.082,0.0,0.0,0.0,0.0,0.0,0.0,0.0,0.0,0.0,0.0,2.6094,2.6855,2.8066,2.7871,2.7988,2.8809,0.0,0.0,0.0,0.0,0.0,0.0,0.0,0.0,0.0,3.6358,3.6609,3.7136,3.7713,3.8015,3.8015,3.8642,3.8919,3.8919,3.8919,3.922,0.0,0.0,0.0,0.0,4.7316,5.0116,0.0,0.0,0.0,0.0,0.0,0.0,0.0,0.0,0.0,0.0,0.0,0.0,0.0,0.0,0.0,0.0,0.0,6.5772,6.6729,6.6759,6.6311,6.5712,6.5084,6.4455,0.0,6.3258,6.5277,6.7652,6.917,7.1038,7.2713,7.346,7.4187,7.4695,7.4762,7.8179,8.2272,8.6636,9.2138,9.5785,9.6366,9.8154,9.9542,10.0019,9.7897,9.5914,9.4299,9.4128,9.4111,9.414,9.4874,9.5324,9.5273,9.5136,9.5095,9.5057,9.4249,9.3862,9.382,9.4094,9.4136,9.4098,9.451,9.4207,9.3404,9.2768,9.2031,9.1211,9.0351,9.0,9.0,8.9922,8.9883,8.9804,0.0,0.0,0.0,0.0,0.0,0.0,0.0,0.0,0.0,0.0,2.5898,2.6621,2.7246,2.7519,2.7871,0.0,0.0,0.0,0.0,0.0,0.0,0.0,0.0,0.0,0.0,3.6358,3.6433,3.6558,3.7538,3.8015,3.804,3.9044,3.9496,3.9496,3.9496,3.9572,0.0,0.0,0.0,0.0,4.5564,4.8027,0.0,0.0,0.0,0.0,5.6735,5.7633,0.0,0.0,0.0,0.0,0.0,0.0,0.0,0.0,6.3079,6.3139,6.3468,0.0,6.4096,6.4575,6.4575,6.4425,0.0,6.4126,6.3947,6.3827,6.5582,6.7683,6.9063,7.1461,7.3575,7.4236,7.4965,7.5676,7.6284,8.1528,8.6366,8.9106,9.3469,9.6168,9.556,9.733,9.8273,9.7599,9.6465,9.507,9.3455,9.3344,9.3513,9.4102,9.4819,9.5509,9.602,9.5982,9.598,9.598,9.5788,9.5427,9.4936,9.5022,9.4574,9.3627,9.3749,9.3433,9.2768,9.1953,9.1484,9.1211,9.0351,9.0,8.9922,8.9258,8.8633,8.8008,0.0,0.0,0.0,0.0,0.0,0.0,0.0,0.0,0.0,0.0,0.0,0.0,0.0,0.0,0.0,0.0,0.0,0.0,0.0,0.0,0.0,0.0,0.0,3.5475,3.5475,3.6073,3.6483,3.6734,3.7588,3.814,3.8417,3.9295,3.9697,3.9697,3.9697,3.9697,0.0,0.0,0.0,4.3512,4.4902,0.0,0.0,0.0,0.0,0.0,5.6316,5.7304,0.0,6.0086,6.0864,6.1343,0.0,0.0,0.0,0.0,6.3079,6.3079,6.3079,6.3079,6.3228,6.3857,6.3767,6.3647,6.3947,6.3767,6.379,6.4418,6.5376,6.7043,6.9833,7.1259,7.2602,7.4343,7.4931,7.5946,7.8111,8.2712,8.6805,8.9376,9.3404,9.5851,9.5702,9.6814,9.7251,9.6718,9.529,9.4191,9.3661,9.3562,9.3821,9.4579,9.4936,9.5519,9.6288,9.5903,9.548,9.5095,9.4844,9.4265,9.3567,9.3819,9.357,9.2919,9.3048,9.2684,9.1953,9.1054,9.0234,8.9453,8.8594,8.8008,8.7617,8.7148,8.6679,8.6211,0.0,0.0,0.0,0.0,0.0,0.0,0.0,0.0,0.0,0.0,0.0,0.0,0.0,0.0,0.0,0.0,0.0,0.0,0.0,0.0,0.0,0.0,0.0,3.4385,3.4385,3.5667,3.6584,3.7061,3.7688,3.8266,3.8743,3.9396,3.9697,3.9697,3.9697,3.9697,0.0,0.0,4.1003,4.3229,4.4602,0.0,0.0,0.0,0.0,0.0,0.0,0.0,0.0,5.9727,6.0625,6.1343,6.266,0.0,0.0,0.0,0.0,0.0,6.3079,6.3079,6.3228,6.3857,6.3528,6.3228,6.3857,6.3528,6.3538,6.5091,6.5513,6.6879,7.0921,7.1406,7.1896,7.4349,7.5168,7.6724,8.0378,8.3253,8.596,8.8598,9.2546,9.5162,9.5445,9.6086,9.6428,9.6171,9.4263,9.3339,9.3816,9.3835,9.4159,9.4807,9.479,9.5172,9.5903,9.5172,9.4439,9.374,9.3243,9.2574,9.1843,9.2341,9.2381,9.2092,9.2455,9.2031,9.1015,9.0039,8.8789,8.7383,8.6406,8.5547,8.4883,8.4765,8.4687,8.4604,0.0,0.0,0.0,0.0,0.0,0.0,0.0,0.0,0.0,0.0,0.0,0.0,0.0,0.0,0.0,0.0,0.0,0.0,0.0,0.0,0.0,2.8601,3.2353,3.4385,3.4385,3.5667,3.6408,3.6483,3.7513,3.804,3.8165,3.9195,3.9697,3.9697,3.9697,3.9697,3.9697,3.9697,4.043,4.1732,4.3126,0.0,0.0,0.0,0.0,0.0,0.0,0.0,0.0,6.0116,6.1014,6.1343,6.266,0.0,0.0,0.0,0.0,0.0,6.3079,6.3079,6.3228,6.3857,6.3528,6.3228,6.3857,6.3528,6.381,6.6375,6.7825,6.9436,7.1847,7.374,7.4993,7.5411,7.7671,8.0412,8.3524,8.5452,8.6974,8.8023,9.178,9.3498,9.1657,9.4022,9.5144,9.3749,9.3308,9.2752,9.2077,9.2671,9.3023,9.297,9.3562,9.3941,9.4095,9.398,9.3957,9.4065,9.3966,9.3642,9.3209,9.4032,9.3316,9.1482,9.2265,9.1679,9.0078,8.8515,8.7734,8.7344,8.5742,8.5039,8.4804,8.4062,8.3701,8.3397,0.0,0.0,0.0,0.0,0.0,0.0,0.0,0.0,0.0,0.0,0.0,0.0,0.0,0.0,0.0,0.0,0.0,0.0,0.0,0.0,0.0,2.8281,3.1542,3.3254,3.3254,3.4918,3.6086,3.681,3.7914,3.8467,3.8492,3.932,3.9697,3.9697,3.9697,3.9697,3.9722,4.0023,4.0601,4.1569,0.0,0.0,0.0,0.0,0.0,0.0,0.0,0.0,0.0,0.0,6.0206,6.1283,6.2241,0.0,0.0,0.0,0.0,0.0,6.3079,6.3079,6.3318,6.4306,6.4066,6.3737,6.4395,6.4946,6.5852,6.7966,6.9136,7.0688,7.3142,7.4471,7.5705,7.7303,7.9058,8.0818,8.2577,8.3761,8.4911,8.6027,8.9379,9.1303,9.0631,9.2754,9.3712,9.2501,9.1987,9.1739,9.1634,9.1959,9.2266,9.2523,9.2448,9.2133,9.1672,9.1329,9.1668,9.2689,9.2441,9.2065,9.1475,9.1955,9.1633,9.0586,9.0508,8.9804,8.8554,8.7304,8.625,8.5312,8.4492,8.3906,8.3437,8.2917,8.2543,8.2176,0.0,0.0,0.0,0.0,0.0,0.0,0.0,0.0,0.0,0.0,0.0,0.0,0.0,0.0,0.0,0.0,0.0,0.0,0.0,0.0,2.7851,2.8281,3.0328,3.1622,3.2331,3.4421,3.6015,3.7186,3.8191,3.8818,3.9069,3.9496,3.9697,3.9697,3.9697,3.9772,3.9923,4.035,4.0902,4.1771,0.0,0.0,0.0,0.0,0.0,0.0,0.0,0.0,0.0,0.0,0.0,0.0,0.0,0.0,0.0,6.3079,6.3079,6.3079,6.3079,6.3079,6.3318,6.4306,6.4276,6.4216,6.5054,6.6284,6.7603,6.9287,7.0267,7.17,7.4181,7.4968,7.6038,7.8656,8.0006,8.1088,8.2171,8.2847,8.3693,8.5012,8.7882,8.9887,9.0277,9.1813,9.2354,9.1326,9.0482,9.035,9.0992,9.0819,9.097,9.1598,9.0748,8.9898,8.9074,8.8455,8.9135,9.0996,9.0755,9.0313,8.9756,8.9721,8.9609,8.9375,8.8476,8.7656,8.6836,8.5937,8.4804,8.3594,8.3398,8.2851,8.2219,8.1992,8.168,8.1407,0.0,0.0,0.0,0.0,0.0,0.0,0.0,0.0,0.0,0.0,0.0,0.0,0.0,0.0,0.0,0.0,0.0,0.0,0.0,0.0,2.7851,2.8281,2.8495,2.9702,3.223,3.4993,3.6563,3.7186,3.7789,3.8617,3.9647,3.9672,3.9697,3.9697,3.9697,3.9973,4.045,4.0501,4.1128,4.2301,4.3755,0.0,0.0,0.0,0.0,0.0,0.0,0.0,0.0,0.0,0.0,0.0,0.0,0.0,6.3079,6.3079,6.3079,6.3079,6.3079,6.3079,6.3109,6.3199,6.3617,6.4336,6.5652,6.665,6.7839,6.9893,7.1461,7.2912,7.431,7.5749,7.7269,7.8855,8.0885,8.3016,8.5148,8.552,8.5858,8.6636,8.8996,9.0241,8.9568,9.0943,9.1253,8.9711,8.883,8.8683,8.9243,8.8504,8.8349,8.8944,8.8132,8.7364,8.6636,8.6068,8.7016,8.9484,8.9688,8.9841,8.9961,8.914,8.8398,8.7617,8.6758,8.5898,8.5039,8.414,8.3711,8.3515,8.2695,8.2253,8.1992,8.1819,8.16,8.1359,0.0,0.0,0.0,0.0,0.0,0.0,0.0,0.0,0.0,0.0,0.0,0.0,0.0,0.0,0.0,0.0,0.0,0.0,0.0,2.7266,2.7578,2.8262,2.9112,3.0016,3.103,3.365,3.5809,3.7688,3.8617,3.927,3.9697,3.9697,3.9697,3.9697,3.9697,3.9998,4.0551,4.0877,4.1455,4.2427,4.5475,4.7037,0.0,0.0,0.0,0.0,0.0,0.0,0.0,0.0,5.9877,6.1194,6.1702,6.2421,6.3079,6.3079,6.3079,6.3079,6.3079,6.3079,6.3169,6.3558,6.3827,6.445,6.6345,6.8757,7.0836,7.2104,7.4303,7.6001,7.6019,7.6521,7.7401,7.8889,8.0581,8.234,8.4099,8.437,8.4471,8.4742,8.6846,8.8082,8.7338,8.8626,8.9087,8.7986,8.7542,8.7399,8.7561,8.7089,8.6913,8.706,8.6286,8.5514,8.4868,8.4748,8.5244,8.6362,8.66,8.6752,8.6836,8.6484,8.6172,8.582,8.4961,8.4414,8.4023,8.3164,8.2773,8.2734,8.2289,8.1984,8.1805,8.16,8.1383,8.1186,0.0,0.0,0.0,0.0,0.0,0.0,0.0,0.0,0.0,0.0,0.0,0.0,0.0,0.0,0.0,0.0,0.0,0.0,2.6953,2.7012,2.7402,2.8262,2.9197,2.9911,3.0328,3.2515,3.4899,3.7369,3.8916,3.9697,3.9697,3.9697,3.9697,3.9697,3.9697,4.0099,4.0802,4.1178,4.1756,4.2815,4.6569,4.811,0.0,0.0,0.0,0.0,0.0,0.0,0.0,0.0,5.9638,6.1164,6.1373,6.2181,6.3079,6.3079,6.3079,6.3079,6.3079,6.3079,6.3169,6.3588,6.3857,6.4649,6.7025,6.9744,7.2111,7.3394,7.5572,7.7029,7.6318,7.6352,7.6927,7.8213,7.9837,8.146,8.2949,8.3152,8.3152,8.3152,8.5177,8.6382,8.5603,8.667,8.6995,8.5967,8.5497,8.5302,8.5411,8.5234,8.5207,8.5324,8.4566,8.3834,8.3208,8.3415,8.3644,8.3867,8.4018,8.4375,8.4883,8.4609,8.4492,8.4453,8.3554,8.3203,8.3125,8.2539,8.2264,8.2178,8.2053,8.1844,8.16,8.1458,8.1285,8.1093,0.0,0.0,0.0,0.0,0.0,0.0,0.0,0.0,0.0,0.0,0.0,0.0,0.0,0.0,0.0,0.0,0.0,0.0,2.6953,2.7012,2.7402,2.8262,2.8301,2.89,3.0203,3.2229,3.4165,3.6009,3.8481,3.9697,3.9697,3.9697,3.9697,3.9697,3.9697,4.03,4.1354,4.1354,4.1982,4.3346,4.6731,4.811,4.8562,0.0,0.0,0.0,0.0,0.0,0.0,0.0,5.9997,6.1224,6.1882,6.254,6.3079,6.3079,6.3079,6.3079,6.3079,6.3079,6.3079,6.3079,6.3528,6.4728,6.7589,6.9413,7.0952,7.3159,7.477,7.5473,7.4762,7.5202,7.5946,7.6758,7.8754,8.0716,8.2171,8.2408,8.2408,8.2408,8.4471,8.5568,8.4754,8.533,8.5086,8.3508,8.246,8.2216,8.2858,8.2694,8.2913,8.3593,8.2934,8.2277,8.1719,8.1889,8.2115,8.2304,8.2304,8.3203,8.4844,8.3984,8.3594,8.3554,8.2656,8.2304,8.2304,8.2304,8.2175,8.1992,8.1992,8.1725,8.1407,8.1368,8.1219,8.1093,0.0,0.0,0.0,0.0,0.0,0.0,0.0,0.0,0.0,0.0,0.0,0.0,0.0,0.0,0.0,0.0,0.0,0.0,2.6543,2.6855,2.7266,2.7832,2.8125,2.8495,2.89,3.2119,3.5189,3.8064,3.9116,3.9697,3.9697,3.9697,3.9898,4.0275,4.0275,4.0877,4.1907,4.1907,4.2333,4.3371,4.719,4.8775,4.9231,0.0,0.0,0.0,0.0,0.0,0.0,0.0,0.0,0.0,6.1343,6.2181,6.3079,6.3079,6.3079,6.3079,6.3079,6.3079,6.3079,6.3079,6.394,6.5311,6.7069,6.859,7.0886,7.5054,7.5405,7.5202,7.6048,7.5946,7.5777,7.6014,7.7942,7.9769,8.0716,8.0851,8.0851,8.0851,8.1874,8.2262,8.152,8.207,8.2223,8.1746,8.1755,8.1871,8.2066,8.2301,8.2501,8.267,8.2084,8.1755,8.168,8.1889,8.2115,8.2304,8.2304,8.2578,8.3047,8.2812,8.2695,8.2656,8.2422,8.2304,8.2304,8.2168,8.1701,8.1078,8.0769,8.0591,8.0377,7.9648,7.9326,7.9361,0.0,0.0,0.0,0.0,0.0,0.0,0.0,0.0,0.0,0.0,2.5215,0.0,0.0,0.0,0.0,0.0,0.0,0.0,0.0,2.7031,2.7461,2.7891,2.8164,2.8893,3.0201,3.2652,3.5629,3.8868,3.9421,3.9697,3.9697,3.9923,4.0199,4.0526,4.0752,4.1329,4.2158,4.2158,4.3026,4.4428,4.7811,4.9616,5.0691,0.0,0.0,0.0,0.0,0.0,0.0,0.0,0.0,0.0,6.1433,6.2241,6.3079,6.3079,6.3079,6.3079,6.3079,6.3079,6.3079,6.3079,6.4097,6.5498,6.7237,6.9551,7.2355,7.5731,7.5634,7.5337,7.6251,7.5777,7.5371,7.5642,7.713,7.8483,7.9228,7.9329,7.9228,7.8923,7.9997,8.0353,7.9256,8.0006,8.0388,8.0057,8.048,8.0707,8.0707,8.1422,8.1823,8.1823,8.163,8.1582,8.168,8.1633,8.1667,8.1797,8.1445,8.1289,8.1289,8.1992,8.2109,8.1758,8.1406,8.1289,8.125,8.1056,8.0601,8.0023,7.9699,7.9516,7.9365,7.872,7.8477,7.8592,0.0,0.0,0.0,0.0,0.0,0.0,0.0,0.0,0.0,0.0,2.5449,2.5742,0.0,0.0,0.0,0.0,0.0,0.0,0.0,0.0,2.7832,2.8223,2.832,2.9884,3.316,3.3817,3.5676,3.8868,3.9421,3.9697,3.9697,4.0249,4.0551,4.0626,4.1178,4.1706,4.2233,4.2233,4.3778,4.6164,4.827,5.0263,5.2381,5.4374,0.0,0.0,0.0,0.0,0.0,0.0,0.0,0.0,6.1822,6.251,6.3079,6.3079,6.3079,6.3079,6.3079,6.3079,6.3079,6.3079,6.4209,6.5808,6.8028,7.1523,7.4627,7.5214,7.5445,7.5506,7.5574,7.51,7.4897,7.5405,7.6284,7.7096,7.7604,7.7671,7.7435,7.6758,7.8432,7.9079,7.77,7.8774,7.925,7.8552,7.8947,7.9198,7.9198,8.035,8.0977,8.0977,8.1269,8.1447,8.1447,8.11,8.0898,8.0859,8.0078,7.9687,7.9765,8.1328,8.164,8.0859,8.0039,7.9648,7.9568,7.9444,7.9216,7.8948,7.8744,7.8554,7.8361,7.8284,7.8246,7.8284,0.0,0.0,0.0,0.0,0.0,0.0,0.0,0.0,0.0,0.0,0.0,0.0,0.0,0.0,0.0,0.0,0.0,0.0,0.0,2.7422,2.7715,2.7793,2.8437,3.0355,3.3653,3.4252,3.5946,3.8868,3.9421,3.9697,3.9697,4.0249,4.0752,4.1178,4.1731,4.2283,4.2811,4.2811,4.4028,4.6164,4.827,5.0263,5.2381,5.4374,5.5807,0.0,0.0,0.0,0.0,0.0,0.0,0.0,6.1283,6.2121,6.3079,6.3079,6.3079,6.3079,6.3079,6.3079,6.3079,6.3079,6.4923,6.7433,7.0054,7.1825,7.2928,7.3044,7.3591,7.4153,7.4728,7.5202,7.5134,7.4119,7.5608,7.6521,7.5473,7.5337,7.527,7.5134,7.586,7.625,7.5932,7.7108,7.7781,7.7598,7.8611,7.9198,7.9198,7.974,8.0092,8.0092,7.9794,7.9656,7.9656,7.989,7.9961,7.9961,7.9805,7.9687,7.9726,8.0078,8.0156,7.9961,7.9765,7.9251,7.8546,7.8971,7.8676,7.7909,7.7717,7.7603,7.7476,7.6784,7.6553,7.663,0.0,0.0,0.0,0.0,0.0,0.0,0.0,0.0,0.0,0.0,0.0,0.0,0.0,0.0,0.0,0.0,0.0,0.0,0.0,0.0,2.8047,2.8262,2.8691,3.0581,3.4146,3.4415,3.618,3.927,3.9546,3.9823,4.0099,4.0651,4.1204,4.1756,4.2308,4.271,4.2986,4.2986,4.4701,4.7541,4.87,5.0881,5.37,5.4827,5.5807,5.6705,5.7004,0.0,0.0,0.0,0.0,0.0,0.0,0.0,6.3019,6.269,6.2839,6.3219,6.3477,6.3853,6.4401,6.5728,6.7061,6.8699,7.0791,7.1616,7.1874,7.1927,7.2472,7.3206,7.395,7.4086,7.3984,7.3544,7.4492,7.4999,7.4187,7.4052,7.395,7.3612,7.4643,7.5224,7.4947,7.6348,7.7304,7.7304,7.8073,7.8594,7.8594,7.8938,7.9169,7.9169,7.9135,7.9112,7.9112,7.9109,7.914,7.9101,7.8711,7.8515,7.8515,7.8945,7.914,7.9101,7.8672,7.82,7.7747,7.7857,7.761,7.7099,7.6816,7.6669,7.663,7.6169,7.6015,7.6053,0.0,0.0,0.0,0.0,0.0,0.0,0.0,0.0,0.0,0.0,0.0,0.0,0.0,0.0,0.0,0.0,0.0,0.0,0.0,0.0,0.0,2.9121,2.9141,3.0888,3.4661,3.4683,3.639,3.9697,3.9798,4.0124,4.0676,4.1128,4.163,4.2183,4.2735,4.2986,4.2986,4.2986,4.5245,4.8913,4.9024,5.1442,5.5029,5.5149,5.5598,5.6256,5.6885,5.7543,5.8321,5.9638,0.0,0.0,0.0,0.0,6.281,6.2241,6.2391,6.2912,6.3439,6.4212,6.5571,6.8471,6.9217,6.9537,7.1007,7.1312,7.1312,7.1312,7.1785,7.2394,7.3003,7.2732,7.2563,7.3037,7.3206,7.324,7.3138,7.3105,7.2868,7.2293,7.3982,7.4942,7.4381,7.613,7.7304,7.7304,7.7662,7.787,7.787,7.8135,7.8284,7.8284,7.8553,7.8684,7.8684,7.8406,7.8281,7.8281,7.7383,7.7031,7.7226,7.7773,7.8125,7.8242,7.75,7.7147,7.7055,7.6738,7.6537,7.6475,7.6147,7.6015,7.6015,7.6015,7.6015,7.6015,0.0,0.0,0.0,0.0,0.0,0.0,0.0,0.0,0.0,0.0,0.0,0.0,0.0,0.0,0.0,0.0,0.0,0.0,2.8184,0.0,0.0,3.0,3.0019,3.1687,3.5176,3.5199,3.6657,3.9697,4.0174,4.0701,4.1229,4.1304,4.163,4.2183,4.2735,4.2986,4.2986,4.2986,4.5009,4.8277,4.883,5.1184,5.4401,5.497,5.5598,5.6256,5.6885,5.7543,5.8321,5.9638,6.0535,0.0,0.0,0.0,6.2211,6.2121,6.1762,6.1343,6.1477,6.2805,6.5051,6.834,6.9217,6.9537,7.1007,7.1312,7.1312,7.1312,7.1379,7.1481,7.1582,7.2056,7.2225,7.1684,7.2124,7.2326,7.1684,7.1616,7.1582,7.1481,7.3183,7.4416,7.4345,7.613,7.7304,7.7304,7.7662,7.787,7.787,7.76,7.7438,7.7438,7.7118,7.6933,7.6933,7.7234,7.7383,7.7344,7.6484,7.6484,7.7187,7.6523,7.664,7.7383,7.7265,7.7,7.669,7.6597,7.6381,7.6079,7.6005,7.6015,7.6015,7.6015,7.6015,7.6015,0.0,0.0,0.0,0.0,0.0,0.0,0.0,0.0,0.0,0.0,0.0,0.0,0.0,0.0,0.0,2.7324,2.7559,2.7949,2.8594,2.8809,2.9297,3.0156,3.0195,3.183,3.5288,3.5288,3.6727,3.9697,4.0249,4.0802,4.1354,4.1957,4.2559,4.3112,4.3664,4.374,4.3438,4.3438,4.5454,4.8664,4.8941,5.1356,5.479,5.5089,5.5807,5.6735,5.7004,5.7782,5.877,5.9338,5.9997,6.0595,6.0864,0.0,0.0,0.0,6.1044,6.1498,6.3455,6.5172,6.7068,6.9656,7.0356,7.0574,7.1188,7.1312,7.1312,7.1312,7.1312,7.1312,7.1312,7.1582,7.1684,7.1379,7.1582,7.1684,7.1345,7.1312,7.1312,7.1312,7.3044,7.4133,7.3708,7.5442,7.6604,7.6457,7.6481,7.669,7.6986,7.6743,7.6361,7.5861,7.5876,7.5648,7.5142,7.5555,7.5742,7.5742,7.5351,7.5351,7.5742,7.5351,7.5898,7.7187,7.7097,7.6933,7.6749,7.6505,7.6338,7.6135,7.6062,7.6015,7.6015,7.6015,7.6015,7.6015,0.0,0.0,0.0,0.0,0.0,0.0,0.0,0.0,0.0,0.0,0.0,0.0,0.0,0.0,0.0,0.0,2.7754,2.8184,2.9023,2.9082,2.9473,3.0332,3.0371,3.1953,3.5288,3.5288,3.6727,3.9697,4.0375,4.0927,4.1379,4.276,4.3614,4.4041,4.4443,4.4392,4.4016,4.4016,4.5675,4.8324,4.9055,5.1233,5.4268,5.4958,5.5897,5.6885,5.7034,0.0,0.0,0.0,5.9668,6.0116,6.0296,6.0565,0.0,0.0,0.0,6.1237,6.4318,6.5895,6.7293,6.9854,7.0489,7.0647,7.1154,7.1312,7.1312,7.1312,7.1312,7.1312,7.1312,7.1312,7.1312,7.1312,7.1312,7.1312,7.1312,7.1312,7.1367,7.1688,7.3287,7.4173,7.3792,7.5175,7.6096,7.608,7.5737,7.5717,7.6275,7.5884,7.539,7.4807,7.4887,7.469,7.408,7.4427,7.4609,7.4609,7.4375,7.4375,7.4609,7.4375,7.5077,7.6441,7.6287,7.6301,7.6376,7.5876,7.5902,7.6195,7.5821,7.5784,7.6015,7.6015,7.6015,7.6015,0.0,0.0,0.0,0.0,0.0,0.0,0.0,0.0,0.0,0.0,0.0,0.0,0.0,2.7109,2.7617,2.7656,2.8027,2.8633,2.9492,2.9531,2.9922,3.082,3.0859,0.0,3.5288,3.5288,3.6727,3.9697,4.0777,4.1304,4.1379,4.3539,4.4543,4.4593,4.4618,4.4593,4.4593,4.4593,4.5155,4.6296,4.8872,5.0431,5.1599,5.4268,0.0,0.0,0.0,0.0,0.0,0.0,0.0,0.0,0.0,6.0625,6.0146,0.0,0.0,0.0,6.1803,6.2509,6.3507,6.7325,6.8385,6.8898,7.0838,7.1312,7.1312,7.1312,7.1312,7.1312,7.1312,7.1312,7.1312,7.1312,7.1312,7.1312,7.1312,7.1312,7.1688,7.2582,7.365,7.4684,7.5577,7.5963,7.6317,7.6898,7.6075,7.5717,7.6275,7.5309,7.4807,7.4973,7.4395,7.4131,7.4297,7.4483,7.4609,7.4609,7.375,7.3789,7.457,7.375,7.3741,7.4435,7.4428,7.4677,7.502,7.4263,7.4741,7.5928,7.5091,7.5284,7.6015,7.6015,7.6015,7.6015,0.0,0.0,0.0,0.0,0.0,0.0,0.0,0.0,0.0,0.0,0.0,0.0,0.0,2.748,2.7773,2.8047,2.8457,2.9062,2.9922,2.998,3.0254,3.0859,3.0898,3.2322,3.5178,3.5288,3.6727,3.9697,4.045,4.1003,4.1379,4.2861,4.3765,4.4141,4.5221,4.5497,4.5171,4.5171,4.595,0.0,0.0,0.0,0.0,0.0,0.0,0.0,0.0,0.0,0.0,0.0,0.0,0.0,0.0,0.0,5.9458,5.9458,5.8979,5.9001,6.1483,6.1867,6.255,6.6478,6.7862,6.8606,7.0232,7.0973,7.1312,7.1312,7.1312,7.1312,7.1312,7.1312,7.1312,7.1312,7.1312,7.1312,7.1312,7.1312,7.1457,7.1742,7.3252,7.4283,7.4045,7.4841,7.555,7.5979,7.5253,7.4897,7.5239,7.4926,7.4294,7.3407,7.3229,7.3046,7.284,7.289,7.293,7.293,7.2617,7.2617,7.293,7.2486,7.2353,7.2507,7.2366,7.3022,7.4242,7.4345,7.4357,7.4437,7.463,7.4899,7.5168,7.5168,7.5515,7.6015,0.0,0.0,0.0,0.0,0.0,0.0,0.0,0.0,0.0,0.0,0.0,0.0,0.0,0.0,2.8262,2.8691,2.8984,2.9434,3.0156,3.0195,3.041,3.0859,3.1325,3.2758,3.5288,3.5836,3.7263,3.9697,4.0249,4.0802,4.1354,4.2459,4.3263,4.3865,4.5372,4.5824,4.5497,0.0,0.0,4.78,0.0,0.0,5.2914,0.0,0.0,0.0,0.0,0.0,0.0,0.0,0.0,0.0,0.0,0.0,0.0,5.9099,5.88,5.8941,6.1175,6.1339,6.1728,6.5727,6.6938,6.7579,6.9389,7.0398,7.0939,7.0939,7.1142,7.1312,7.1312,7.1312,7.1312,7.1312,7.1312,7.1312,7.1312,7.1312,7.1546,7.2228,7.3492,7.4358,7.4475,7.4752,7.5181,7.5856,7.4935,7.4561,7.511,7.4591,7.3652,7.223,7.2342,7.232,7.1992,7.1992,7.1992,7.1992,7.1992,7.1992,7.1992,7.1802,7.1633,7.1471,7.1299,7.1992,7.3273,7.3393,7.3437,7.3514,7.3783,7.4053,7.4322,7.4591,7.5091,7.563,0.0,0.0,0.0,0.0,0.0,0.0,0.0,0.0,0.0,0.0,0.0,0.0,0.0,0.0,0.0,2.9551,2.959,2.9766,3.0195,3.0215,3.041,3.0879,3.2322,3.3733,3.5288,3.6703,3.8137,3.9697,4.0224,4.0777,4.1354,4.2434,4.3237,4.384,4.4945,4.5447,4.5472,0.0,4.6898,4.774,0.0,4.9967,5.2203,0.0,0.0,0.0,5.7154,5.7992,0.0,0.0,0.0,0.0,0.0,0.0,0.0,0.0,0.0,5.9362,0.0,0.0,0.0,6.485,6.5396,6.5657,6.8412,6.9586,7.0128,7.0161,7.077,7.1278,7.1312,7.1312,7.1312,7.1312,7.1312,7.1312,7.1312,7.1312,7.209,7.4005,7.4234,7.5048,7.7045,7.5776,7.5403,7.6609,7.5192,7.4789,7.5908,7.4389,7.2862,7.1549,7.1841,7.1992,7.1992,7.1992,7.1992,7.1992,7.1992,7.1992,7.1992,7.1763,7.1624,7.1457,7.128,7.1549,7.2091,7.1283,7.1937,7.336,7.2514,7.2706,7.3553,7.4361,7.4668,7.4822,0.0,0.0,0.0,0.0,0.0,0.0,0.0,0.0,0.0,0.0,0.0,0.0,0.0,0.0,0.0,2.998,3.0019,3.0215,3.0664,3.0703,3.0762,3.0879,3.1325,3.2644,3.5288,3.5727,3.7156,3.9697,3.9848,4.04,4.1354,4.1656,4.2308,4.3237,4.394,4.4267,4.4367,4.5723,0.0,0.0,5.0167,5.1849,0.0,0.0,0.0,0.0,0.0,5.88,0.0,0.0,5.9099,5.9099,0.0,0.0,0.0,0.0,0.0,0.0,5.9316,0.0,0.0,0.0,0.0,0.0,6.7064,6.7996,6.8842,6.9958,7.0364,7.0669,7.121,7.1312,7.1312,7.1312,7.1312,7.1312,7.1312,7.1312,7.1776,7.3044,7.385,7.4543,7.5267,7.5066,7.5181,7.5781,7.4897,7.4523,7.5033,7.3695,7.2491,7.151,7.1841,7.1992,7.1992,7.1992,7.1992,7.1992,7.1992,7.191,7.1797,7.1624,7.1457,7.128,7.1062,7.1094,7.1283,7.1668,7.1745,7.1668,7.2052,7.236,7.2591,7.2822,7.3668,7.4745,0.0,0.0,0.0,0.0,0.0,0.0,0.0,0.0,0.0,0.0,0.0,0.0,0.0,0.0,0.0,0.0,3.0488,3.0605,3.0879,3.0898,3.0898,3.0898,3.2113,3.3529,3.5288,3.6511,3.7926,3.9697,3.9697,4.0249,4.1329,4.1329,4.1932,4.3011,4.3564,4.379,4.389,0.0,0.0,0.0,5.0682,0.0,0.0,5.5966,5.7043,0.0,0.0,0.0,5.9099,5.9099,5.9099,0.0,0.0,0.0,0.0,0.0,0.0,0.0,0.0,0.0,6.1376,6.3408,0.0,0.0,6.5699,6.6711,6.7692,6.8605,6.9519,7.0331,7.077,7.1109,7.1312,7.1312,7.1312,7.1312,7.1312,7.1312,7.183,7.3252,7.3928,7.4545,7.5139,7.5019,7.507,7.5487,7.4746,7.4296,7.4294,7.3607,7.2718,7.1622,7.1854,7.1992,7.1992,7.1992,7.1992,7.1992,7.1992,7.1906,7.1689,7.156,7.1365,7.1201,7.0979,7.0898,7.0937,7.1437,7.136,7.0937,7.1475,7.1668,7.1706,7.2052,7.2822,7.3745,0.0,0.0,0.0,0.0,0.0,0.0,0.0,0.0,0.0,0.0,0.0,0.0,0.0,0.0,0.0,0.0,3.0898,3.0898,3.0898,3.0898,3.0898,3.0898,3.3529,3.5178,3.5288,3.8031,3.9569,3.9697,3.9697,4.0224,4.1254,4.1304,4.1907,4.2911,4.3463,4.3828,4.4105,0.0,0.0,5.0098,5.0905,5.3267,0.0,0.0,5.6035,0.0,5.8231,5.862,5.9099,5.9099,5.9099,0.0,0.0,0.0,0.0,0.0,5.9039,0.0,0.0,0.0,0.0,0.0,6.5087,0.0,6.4613,6.5561,6.6508,6.6643,6.8335,6.9823,6.9925,7.0567,7.1109,7.1176,7.1176,7.121,7.1312,7.1312,7.2056,7.4082,7.4239,7.4619,7.5837,7.5308,7.4977,7.5336,7.4762,7.4137,7.3712,7.3812,7.3184,7.1767,7.1906,7.1992,7.1992,7.1992,7.1992,7.1992,7.1992,7.1861,7.1667,7.1536,7.137,7.1158,7.0876,7.0821,7.0898,7.0783,7.0821,7.0898,7.0898,7.0898,7.0975,7.1783,7.2129,7.2399,0.0,0.0,0.0,0.0,0.0,0.0,0.0,0.0,0.0,0.0,0.0,0.0,0.0,0.0,0.0,0.0,0.0,3.0898,3.0898,3.0898,3.0898,3.0898,3.2644,3.4069,3.5288,3.7049,3.8477,3.9697,3.9697,4.0023,4.0701,4.1128,4.1681,4.2333,4.2886,4.3755,4.4987,0.0,0.0,5.107,5.3245,0.0,5.7034,5.7761,5.8435,5.8919,5.8919,5.9009,5.9099,0.0,5.9099,5.9099,0.0,0.0,0.0,0.0,0.0,0.0,0.0,0.0,0.0,0.0,0.0,0.0,6.4613,6.4377,6.4478,6.5662,6.6745,6.7658,6.8233,6.9011,6.9722,7.0297,7.0398,7.0635,7.1244,7.1312,7.2056,7.4082,7.3744,7.3797,7.4995,7.4811,7.4611,7.4551,7.4595,7.4361,7.3734,7.3229,7.2561,7.1728,7.1906,7.1992,7.1992,7.1992,7.1992,7.1992,7.1854,7.1667,7.1524,7.1331,7.1137,7.0928,7.0233,7.0283,7.086,7.0206,7.0321,7.0898,7.0898,7.0898,7.0937,7.1091,7.1591,7.2245,0.0,0.0,0.0,0.0,0.0,0.0,0.0,0.0,0.0,0.0,0.0,0.0,0.0,0.0,0.0,0.0,0.0,0.0,0.0,0.0,0.0,3.0898,3.2985,3.4515,3.5288,3.7477,3.8921,3.9697,3.9697,3.9973,4.0526,4.1078,4.163,4.2183,4.2735,4.3713,4.5235,0.0,4.9896,5.1337,5.4358,0.0,5.7214,5.8231,5.883,5.9099,5.9099,5.9099,5.9099,5.9099,5.9099,0.0,0.0,5.9099,5.9039,0.0,5.9334,6.031,0.0,0.0,0.0,6.4942,0.0,0.0,0.0,6.3768,6.3734,6.4444,6.5493,6.6373,6.6711,6.7421,6.8199,6.8944,6.9045,6.9316,7.0094,7.0905,7.2022,7.3653,7.3476,7.3492,7.4249,7.4495,7.4458,7.4099,7.4107,7.3845,7.3237,7.2889,7.2451,7.1854,7.1951,7.1992,7.1992,7.1562,7.1562,7.1992,7.1373,7.1243,7.1471,7.0834,7.0683,7.0821,6.959,6.9744,7.0821,7.0014,7.0167,7.0898,7.0898,7.0898,7.0898,7.0898,7.1168,7.1591,0.0,0.0,0.0,0.0,0.0,0.0,0.0,0.0,0.0,0.0,0.0,0.0,0.0,0.0,0.0,0.0,0.0,0.0,0.0,0.0,0.0,3.1582,3.4038,3.5533,3.5863,3.8421,3.9697,3.9697,3.9697,3.9923,4.0375,4.1028,4.158,4.2032,4.2685,4.3907,4.5529,0.0,0.0,5.1744,0.0,5.6466,5.7004,5.7663,5.8261,5.871,5.871,5.88,5.889,5.877,0.0,5.9069,5.8949,5.9009,0.0,0.0,0.0,0.0,0.0,0.0,0.0,0.0,0.0,6.4613,0.0,0.0,0.0,6.3328,6.4343,6.5256,6.5256,6.5865,6.6542,6.6981,6.7286,6.7675,6.8184,6.9735,7.1237,7.2654,7.2885,7.3088,7.3373,7.3956,7.4139,7.3865,7.3492,7.307,7.274,7.256,7.2326,7.1992,7.1992,7.1992,7.1992,7.1289,7.1289,7.1911,7.0928,7.0697,7.1155,7.0099,6.9919,7.0321,6.8821,6.9013,7.036,6.9706,6.9937,7.0667,7.0821,7.0898,7.0898,7.0898,7.0898,7.1014,2.8848,2.8848,0.0,0.0,0.0,0.0,0.0,0.0,0.0,0.0,0.0,0.0,0.0,0.0,0.0,0.0,0.0,0.0,3.2559,0.0,0.0,0.0,3.5255,0.0,3.7925,3.9037,3.9697,3.9697,3.9697,3.9722,3.9798,4.0852,4.1379,4.148,4.2509,4.4427,0.0,0.0,5.0623,0.0,5.5359,5.6226,0.0,5.6974,5.7244,5.7334,5.7334,5.7723,5.8141,0.0,5.8112,5.9009,0.0,5.865,5.9099,0.0,0.0,0.0,0.0,0.0,0.0,0.0,6.6102,0.0,0.0,0.0,6.3328,6.2651,0.0,6.3768,6.3768,0.0,0.0,6.4106,6.5087,6.5786,6.5469,6.6658,6.8405,7.0663,7.1125,7.16,7.2344,7.2875,7.3265,7.3522,7.2794,7.2452,7.2701,7.2015,7.1741,7.1992,7.1992,7.1992,7.1992,7.1914,7.1791,7.1702,7.0697,7.0183,7.006,6.9022,6.8616,6.8629,6.7667,6.7782,6.8667,6.859,6.9052,6.9898,7.0629,7.0898,7.0898,7.0898,7.0898,7.0898,2.8926,2.9121,0.0,0.0,0.0,0.0,0.0,0.0,0.0,0.0,0.0,0.0,0.0,0.0,0.0,0.0,0.0,0.0,0.0,0.0,0.0,0.0,0.0,0.0,0.0,3.9062,4.0023,3.9697,3.9697,3.9697,3.9722,4.0827,4.1329,4.1379,4.2484,0.0,4.7177,0.0,0.0,0.0,0.0,0.0,0.0,5.6705,5.7094,5.7094,5.7094,5.7274,5.7483,0.0,5.7483,0.0,0.0,0.0,0.0,0.0,0.0,0.0,0.0,0.0,0.0,0.0,0.0,0.0,6.5125,0.0,6.4038,0.0,0.0,0.0,0.0,0.0,0.0,0.0,6.4038,6.4504,6.4708,6.5773,6.7069,6.853,6.9368,7.0314,7.1865,7.1733,7.1902,7.2688,7.1937,7.1626,7.1962,7.1679,7.1663,7.1992,7.1992,7.1992,7.1992,7.1015,7.089,7.1689,6.9663,6.9127,6.9866,6.8318,6.7936,6.8321,6.6974,6.7436,6.9129,6.8629,6.9206,7.0437,7.0783,7.0898,7.0898,7.0898,7.0681,7.0463,2.9167,0.0,0.0,0.0,0.0,0.0,0.0,0.0,0.0,0.0,0.0,0.0,3.3184,3.3926,0.0,0.0,0.0,3.3496,0.0,0.0,3.2922,0.0,0.0,0.0,0.0,0.0,4.0325,3.9923,3.9772,3.9772,3.9948,4.0752,4.1468,4.2093,4.2907,4.5102,4.8042,0.0,0.0,5.3563,5.473,5.5179,5.5299,5.6226,5.6585,5.6585,5.6585,5.6705,5.6825,5.6645,5.6795,0.0,5.6885,0.0,0.0,0.0,0.0,0.0,6.1905,0.0,0.0,0.0,0.0,0.0,0.0,0.0,0.0,0.0,0.0,0.0,0.0,0.0,6.2753,6.2888,0.0,6.3193,6.3091,6.4034,6.5244,6.6849,6.804,6.9222,7.0436,7.0282,7.0346,7.0891,7.0497,7.0506,7.1121,7.1134,7.139,7.1992,7.1992,7.1875,7.164,7.0583,7.0444,7.1252,6.9007,6.8446,6.943,6.76,6.7128,6.7667,6.6436,6.7051,6.8975,6.8552,6.9283,7.0591,7.0821,7.0898,7.0898,7.0898,7.0554,7.0095,2.9794,3.0176,0.0,0.0,0.0,0.0,0.0,0.0,0.0,0.0,0.0,0.0,0.0,0.0,0.0,0.0,0.0,3.5312,3.5312,0.0,3.4752,0.0,0.0,0.0,0.0,0.0,0.0,4.0501,3.9948,3.9973,4.0501,4.0526,4.1795,4.4151,4.4204,4.6387,5.014,5.0774,5.2281,5.4251,5.491,5.5179,5.5179,0.0,5.5239,5.5239,5.5239,0.0,0.0,5.5478,5.6077,0.0,0.0,0.0,0.0,0.0,0.0,0.0,0.0,0.0,0.0,6.4289,0.0,0.0,0.0,0.0,6.5459,0.0,0.0,0.0,0.0,0.0,0.0,0.0,6.1975,0.0,0.0,6.0452,6.2608,6.5579,6.7575,6.8371,6.7523,6.8565,6.883,6.7807,6.8206,6.8999,7.0187,7.0253,7.0775,7.1953,7.1992,7.1601,7.0742,7.1338,7.1174,7.0239,6.9144,6.858,6.8398,6.6705,6.5936,6.5974,6.5897,6.6397,6.7244,6.8052,6.8936,6.9821,7.0591,7.0898,7.0898,7.0898,7.0554,7.0095,0.0,0.0,0.0,0.0,0.0,0.0,0.0,3.2129,0.0,0.0,0.0,0.0,0.0,0.0,3.6953,0.0,0.0,3.6113,3.582,3.5273,0.0,0.0,0.0,3.8432,0.0,0.0,0.0,0.0,4.0877,4.0877,4.1053,4.1849,4.2736,4.3623,4.4927,4.6734,0.0,0.0,0.0,0.0,0.0,5.5179,5.5179,0.0,5.5179,5.5179,5.5179,5.5329,0.0,5.5269,5.5478,5.5807,5.5598,5.5658,5.5957,5.6645,5.7124,5.7858,0.0,0.0,6.0536,6.4012,0.0,0.0,0.0,0.0,0.0,0.0,0.0,0.0,0.0,0.0,0.0,0.0,0.0,6.1941,0.0,6.1493,6.261,6.3653,6.4769,6.6099,6.761,6.7193,6.6935,6.7257,6.746,6.784,6.8514,6.9046,6.9644,7.0312,7.0351,7.0153,6.9698,6.9366,6.945,6.998,6.7929,6.7476,6.8359,6.6667,6.5897,6.5936,6.6436,6.7167,6.8013,6.8898,6.9744,7.0514,7.0783,7.0898,7.0898,7.0898,7.033,6.9472,3.0626,0.0,0.0,0.0,0.0,0.0,0.0,0.0,0.0,0.0,3.6211,0.0,3.75,0.0,3.7988,0.0,3.7266,3.6875,3.6289,3.5859,0.0,3.4961,3.7023,0.0,0.0,0.0,0.0,0.0,0.0,4.143,4.163,4.2029,4.2944,4.4242,4.5395,4.7123,4.9376,0.0,5.2476,0.0,0.0,5.5179,0.0,0.0,5.5179,5.5179,0.0,5.5179,5.5179,5.5179,5.5179,5.5179,5.5179,5.5179,5.5329,5.5987,5.6466,5.7152,5.8929,5.9122,0.0,6.2683,6.2876,0.0,6.5559,0.0,6.6235,0.0,0.0,0.0,0.0,0.0,0.0,0.0,0.0,0.0,0.0,6.1466,6.199,6.2238,6.3536,6.5066,6.6716,6.5798,6.5343,6.5886,6.5909,6.6283,6.7204,6.7771,6.8507,6.9453,6.9765,6.9525,6.8769,6.8734,6.8981,6.9401,6.7402,6.7132,6.8359,6.6667,6.6051,6.6359,6.6859,6.7782,6.8898,6.9475,7.0167,7.0898,7.0898,7.0777,7.0622,7.0622,6.9957,6.8891,0.0,0.0,0.0,0.0,3.1269,0.0,0.0,0.0,3.4922,0.0,3.6973,3.8027,3.8047,3.8398,3.8476,3.8027,3.7969,0.0,3.6777,3.6328,0.0,0.0,3.6514,3.7995,3.9725,0.0,0.0,0.0,0.0,4.1656,4.2183,4.1134,4.258,4.6027,4.5746,0.0,5.1199,5.2606,5.3593,5.4311,5.494,5.5179,5.5179,5.5179,5.5179,5.5179,5.5179,5.5179,5.5179,5.5179,5.5179,5.5179,5.5179,5.5179,5.5329,5.5927,5.6137,5.6436,5.7693,5.8052,5.852,6.0496,6.0958,0.0,0.0,0.0,6.526,0.0,0.0,0.0,0.0,0.0,0.0,0.0,0.0,0.0,6.0393,6.0319,6.0715,6.1548,6.3691,6.5053,6.4778,6.4394,6.4026,6.3733,6.3608,6.4339,6.6166,6.6447,6.739,6.9297,7.0156,6.9681,6.7826,6.9312,6.9554,6.8509,6.7509,6.7513,6.8359,6.6667,6.6359,6.7167,6.7167,6.8129,6.9706,6.9744,7.0206,7.0871,7.0871,7.0524,7.0026,7.0026,6.9393,6.8416,3.0605,3.1133,3.1465,0.0,3.166,3.1777,0.0,0.0,0.0,0.0,3.832,3.9512,3.9824,3.9668,3.9375,3.8906,3.8594,0.0,0.0,0.0,0.0,3.6367,3.7146,3.8359,4.0114,4.0708,0.0,4.3589,0.0,4.2233,4.2735,4.2213,4.3136,4.542,4.6458,4.7963,4.9912,5.2217,5.3862,5.497,5.5119,5.5179,5.5179,0.0,5.5179,5.5179,5.5179,5.5179,5.5179,5.5179,5.5179,5.5179,5.5179,5.5179,5.5209,5.5388,5.5777,5.6256,5.6585,5.7004,5.7798,5.9818,6.0276,6.0902,6.3068,6.423,6.4688,0.0,0.0,0.0,0.0,0.0,0.0,0.0,0.0,0.0,0.0,0.0,6.129,6.1588,6.2485,6.3438,6.4322,6.32,6.2463,6.2528,6.2497,6.3052,6.4402,6.5111,6.612,6.7539,6.8398,6.8183,6.6808,6.7813,6.8053,6.7485,6.664,6.6974,6.8359,6.6667,6.6705,6.809,6.809,6.8706,6.9744,7.036,7.046,7.0298,7.0298,6.9738,6.8891,6.8891,6.875,6.8416,3.0757,0.0,0.0,3.2617,0.0,0.0,3.3555,0.0,0.0,3.7422,3.8926,0.0,4.0215,4.0195,4.0,3.9551,3.9297,0.0,0.0,0.0,0.0,3.6699,3.6924,3.822,4.0628,4.0509,0.0,4.4166,0.0,4.2308,4.2585,4.1872,4.2748,4.4814,4.6067,4.7572,4.9434,5.2067,5.3803,5.479,5.5089,5.5179,0.0,5.5179,5.5179,5.5179,5.5179,5.5179,5.5179,5.5179,5.5179,5.5179,5.5179,5.5179,5.5179,5.5179,5.5448,5.5807,5.6107,5.6436,5.7032,5.8461,5.9062,5.9676,6.1393,6.2459,6.3132,6.3004,6.4137,6.4883,6.3979,6.4042,0.0,0.0,0.0,0.0,0.0,0.0,0.0,6.1569,6.1806,6.2315,6.3125,6.2249,6.1735,6.2065,6.187,6.2189,6.3235,6.4216,6.5238,6.6289,6.793,6.8019,6.6426,6.7995,6.8213,6.709,6.7013,6.7475,6.8359,6.7436,6.7705,6.8975,6.8975,6.9436,7.0244,7.046,7.0362,7.0061,6.9588,6.9021,6.8464,6.821,6.8148,6.8097,0.0,0.0,0.0,0.0,0.0,0.0,0.0,3.6191,0.0,3.7988,0.0,4.0059,4.0059,4.0332,4.0351,3.9941,0.0,3.9297,3.8086,3.791,3.7519,3.6777,3.6289,3.7575,4.1181,4.007,0.0,0.0,0.0,4.2082,4.2133,4.0953,4.18,4.4318,4.5038,4.6909,0.0,5.2127,5.3593,5.4281,5.491,5.5179,5.5179,5.5179,5.5179,5.5179,5.5179,5.5179,5.5179,5.5179,5.5179,5.5179,5.5179,5.5179,5.5179,5.5179,5.5179,5.5329,5.5897,5.6047,5.6196,5.6915,5.7543,5.8309,5.9645,6.0515,6.1294,6.2291,6.2811,6.3099,6.3414,6.3612,0.0,0.0,0.0,0.0,0.0,0.0,0.0,0.0,6.1679,0.0,6.1808,6.1435,6.1411,6.1873,6.1513,6.1654,6.2534,6.3672,6.4687,6.5586,6.8125,6.8492,6.6426,6.8929,6.9123,6.6936,6.7936,6.8398,6.8398,6.8398,6.8936,6.986,6.9744,7.0167,7.0871,7.033,7.0026,6.9775,6.8795,6.8368,6.832,6.7863,6.7687,6.7687,0.0,0.0,0.0,0.0,0.0,3.6562,3.7246,3.8164,3.8809,3.8965,4.0137,4.0957,4.0957,4.0703,4.0351,3.9941,3.9551,0.0,0.0,0.0,0.0,3.7187,3.6445,3.7575,4.1181,4.007,4.1173,0.0,0.0,4.1706,4.2133,4.0576,4.1435,4.4318,4.4595,4.6967,5.099,5.2516,0.0,5.4281,5.491,5.5179,5.5179,5.5179,5.5179,5.5179,5.5179,5.5179,5.5179,5.5179,5.5179,5.5179,5.5179,5.5179,5.5179,5.5179,5.5179,5.5209,5.5329,5.5359,5.5628,5.6795,5.7184,5.7678,5.8971,6.0163,6.0815,5.997,6.1527,6.265,6.1739,6.2772,6.3935,0.0,0.0,0.0,0.0,0.0,0.0,0.0,0.0,6.2013,6.1845,6.116,6.0805,6.1003,6.106,6.1531,6.2534,6.3584,6.4591,6.5586,6.8086,6.8453,6.6426,6.8929,6.8812,6.6128,6.7667,6.8398,6.8398,6.8398,6.9244,7.0667,6.9975,7.0167,7.0871,7.033,6.9588,6.8705,6.8097,6.7863,6.781,6.7741,6.7687,6.7687,0.0,0.0,0.0,0.0,0.0,0.0,0.0,3.9668,0.0,3.9609,4.0117,4.0508,4.0508,4.0508,4.0351,3.9941,3.9687,3.9277,3.8613,3.7988,3.7519,3.7305,3.6484,0.0,4.1181,4.007,4.1173,4.4618,0.0,4.148,4.1706,4.0325,4.1175,4.3973,4.6044,4.86,5.1319,5.2606,5.3384,5.3773,5.479,5.5179,5.5179,5.5179,5.5179,5.5179,5.5179,5.5179,5.5179,5.5179,5.5179,5.5179,5.5179,5.5179,5.5179,5.5179,5.5179,5.5179,5.5179,5.5448,5.5837,5.6466,5.7124,5.7812,5.8441,5.9334,5.9864,5.9207,6.0075,6.0949,6.102,6.2554,6.3892,6.4114,0.0,0.0,0.0,0.0,6.338,0.0,0.0,0.0,6.1808,6.1089,6.0671,6.0772,6.0945,6.1252,6.19,6.3288,6.4349,6.4922,6.7765,6.8567,6.7048,6.9477,6.9517,6.7205,6.8898,6.9475,6.909,6.9513,7.0129,7.0898,7.0475,7.0364,7.0432,6.9626,6.8803,6.8047,6.781,6.7687,6.7687,6.7687,6.7687,6.7687,0.0,3.5137,0.0,0.0,3.7715,0.0,3.9746,4.0625,4.0937,4.0254,4.0176,4.0137,4.0039,4.0332,4.0312,3.9785,3.9746,3.9375,3.8496,3.8027,3.7598,3.7187,3.6426,3.7514,4.0896,4.0025,4.1103,0.0,4.2484,4.1455,4.1304,4.0325,4.1201,4.3847,4.7662,4.9912,5.1109,5.2576,5.3174,5.3294,5.464,5.5179,5.5179,5.5179,5.5179,5.5179,5.5179,5.5179,5.5179,5.5179,5.5179,5.5179,5.5179,5.5179,5.5179,5.5179,5.5179,5.5209,5.5359,5.5777,5.6226,5.6526,5.7363,5.8171,5.8291,5.874,5.9099,5.9099,5.9099,5.9499,6.0815,6.2397,6.3686,6.3956,6.4604,0.0,0.0,0.0,0.0,0.0,0.0,0.0,6.1653,6.1167,6.0823,6.0695,6.0906,6.1143,6.1277,6.3116,6.4167,6.4255,6.7464,6.8661,6.7564,7.0001,7.0258,6.8436,7.009,7.0475,6.9744,7.0514,7.0898,7.0898,7.0777,7.0362,6.9701,6.8847,6.8161,6.7687,6.7687,6.7687,6.7687,6.7687,6.7687,6.7724,0.0,0.0,0.0,0.0,0.0,0.0,3.9883,4.0625,4.1152,4.1055,4.1055,4.0898,4.0508,4.0508,4.0176,3.9336,3.9258,3.8906,3.8047,3.7598,3.7168,3.6758,3.6269,3.7371,4.036,3.9824,4.094,0.0,4.266,4.1831,4.1329,4.0727,4.1902,4.4525,4.7867,4.9673,5.0451,5.2366,5.3174,5.3294,5.464,5.5179,5.5179,5.5179,5.5179,5.5179,5.5179,5.5179,5.5179,5.5179,5.5179,5.5179,5.5179,5.5179,5.5179,5.5179,5.5179,5.5329,5.5927,5.6137,5.6466,5.7633,5.8022,5.8291,5.889,5.9069,5.9099,5.9099,5.9099,5.9499,6.0815,6.213,6.3447,6.4589,6.5775,6.6339,0.0,0.0,6.4247,6.3678,0.0,0.0,6.1267,6.1506,6.1316,6.0426,6.091,6.1265,6.1289,6.3208,6.4215,6.413,6.7436,6.8611,6.7425,6.9904,7.0258,6.8436,7.009,7.0475,6.9744,7.0514,7.0898,7.0871,7.0362,6.9626,6.866,6.8521,6.8161,6.7687,6.7687,6.7687,6.7687,6.7687,6.7687,6.7797,0.0,0.0,0.0,0.0,0.0,0.0,0.0,4.0957,4.1172,4.1172,4.0937,4.0723,4.0547,4.0039,3.959,3.9238,3.873,3.8281,3.7949,3.7305,3.6855,3.668,3.73,3.8387,4.0293,4.0815,4.2019,0.0,0.0,4.2057,4.1831,4.1279,4.2684,4.569,4.7721,4.9616,5.1498,5.2665,5.3414,5.3892,5.482,5.5179,5.5179,5.5179,5.5179,5.5179,5.5179,5.5179,5.5179,5.5179,5.5179,5.5179,5.5179,5.5179,5.5179,5.5179,5.5179,5.5329,5.5987,5.6436,5.6944,5.7902,5.8411,5.877,5.9039,5.9099,5.9099,5.9099,5.9099,5.9315,5.9758,6.1628,6.3196,6.3638,6.547,6.6542,6.5797,0.0,0.0,6.3819,0.0,6.2413,6.1886,6.1805,6.1561,6.0961,6.1041,6.1227,6.14,6.316,6.4176,6.4209,6.7321,6.8786,6.8319,7.0109,7.0645,6.9898,7.0591,7.0744,7.0437,7.0744,7.0748,7.0362,6.9847,6.919,6.8464,6.8148,6.7878,6.7687,6.7687,6.7687,6.7687,6.7687,6.8017,6.8458,3.5335,0.0,3.9238,0.0,4.0273,4.0469,4.1074,4.1172,4.1172,4.1172,4.0684,4.0332,4.0332,3.9551,3.8965,3.8828,3.8164,3.7676,3.7559,3.7012,3.6621,3.6484,3.775,0.0,4.0092,4.1196,4.2393,4.3564,4.2785,0.0,4.2133,4.2011,4.3441,4.6412,4.76,4.9735,5.2247,5.2905,5.3593,5.4281,5.491,5.5179,5.5179,5.5179,5.5179,5.5179,5.5179,5.5179,5.5179,5.5179,5.5179,5.5179,5.5179,5.5179,5.5179,5.5179,5.5329,5.5628,5.6256,5.6915,5.7573,5.8231,5.877,5.9099,5.9099,5.9099,5.9099,5.9099,5.9099,5.9099,5.9099,6.1255,6.3004,6.3004,6.5114,6.6643,6.6102,6.5189,0.0,6.4418,6.3312,6.257,6.2429,6.2326,6.1984,6.1568,6.1681,6.1779,6.1807,6.331,6.4404,6.4955,6.7586,6.9046,6.9205,7.038,7.0966,7.0898,7.0898,7.0898,7.0898,7.0898,7.0524,6.9847,6.9472,6.8891,6.821,6.7863,6.7687,6.7687,6.7687,6.7687,6.7724,6.7944,6.8421,6.8972,3.6318,3.8291,4.0156,4.1016,4.1152,4.1172,4.1172,4.1172,4.1172,4.1172,4.043,3.9902,3.9902,3.9121,3.8418,3.7969,3.7539,3.7129,3.6719,3.668,3.6484,0.0,0.0,3.8338,3.9454,4.0662,4.1837,4.2986,0.0,0.0,4.2242,4.2891,4.4318,4.6412,4.76,4.9735,5.2247,5.2905,5.3593,5.4281,5.491,5.5179,5.5179,5.5179,5.5179,5.5179,5.5179,5.5179,5.5179,5.5179,5.5179,5.5179,5.5179,5.5179,5.5179,5.5179,5.5658,5.6286,5.6915,5.7573,5.8261,5.8919,5.9099,5.9099,5.9099,5.9099,5.9099,5.9099,5.9099,5.9099,5.9099,6.1255,6.3004,6.3004,6.5114,6.6812,6.6812,6.5527,0.0,6.5897,6.3948,6.2617,6.2764,6.2981,6.2813,6.214,6.2991,6.3291,6.2612,6.3681,6.4994,6.6505,6.8294,6.9429,6.9866,7.0756,7.1108,7.0898,7.0898,7.0898,7.0898,7.0898,7.0298,6.9313,6.9313,6.8705,6.7687,6.7687,6.7687,6.7687,6.7687,6.7687,6.7797,6.8605,6.8898,6.9155,3.4823,3.8135,4.0859,4.1133,4.0918,4.0723,4.0723,4.0488,4.0293,4.0293,3.9785,3.9316,3.9023,3.8476,3.8086,0.0,3.7285,3.6816,0.0,3.6133,3.5742,3.5605,3.7824,3.9081,3.9087,4.1707,4.2921,4.2986,4.2986,4.2886,4.271,4.295,4.4387,4.6818,4.7225,4.9437,5.2875,5.3084,5.3832,5.491,5.5089,5.5179,5.5179,5.5179,5.5179,5.5179,5.5179,5.5179,5.5179,5.5179,5.5179,5.5179,5.5179,5.5179,5.5269,5.5718,5.6017,5.6406,5.7513,5.7962,5.8291,5.8949,5.9099,5.9099,5.9099,5.9099,5.9099,5.9099,5.9099,5.9099,5.9099,6.1255,6.3004,6.3004,6.5114,6.6812,6.6812,6.5527,6.4923,6.5933,6.4442,6.3714,6.4412,6.4134,6.3804,6.361,6.3676,6.369,6.3639,6.5067,6.6162,6.6791,6.8804,6.9941,7.0098,7.0689,7.0966,7.0898,7.0898,7.0898,7.0898,7.0524,6.9992,6.9272,6.8891,6.832,6.7687,6.7687,6.7687,6.7687,6.7687,6.8017,6.8568,6.8825,6.9596,7.0624,3.4288,3.8068,4.1113,4.0957,4.0703,4.0469,4.0312,4.0059,3.9902,3.9902,3.9492,3.9101,3.8828,3.8144,0.0,3.7461,3.6816,3.6426,3.6426,3.5781,3.5391,3.5391,3.7932,3.9276,3.8864,4.191,4.3313,4.2986,4.2986,4.2986,4.2986,4.2986,4.4427,4.7094,4.7094,4.9209,5.2815,5.2815,5.3593,5.482,5.482,5.497,5.5179,5.5179,5.5179,5.5179,5.5179,5.5179,5.5179,5.5179,5.5179,5.5239,5.5478,5.5568,5.5658,5.6047,5.6526,5.7094,5.7902,5.8291,5.859,5.9009,5.9099,5.9099,5.9099,5.9099,5.9099,5.9099,5.9099,5.9315,5.9789,6.1527,6.3196,6.3671,6.547,6.6812,6.6812,6.5527,6.506,6.6355,6.4933,6.4322,6.562,6.544,6.5124,6.4822,6.4949,6.5164,6.5455,6.6238,6.7213,6.8281,6.9607,7.0407,7.0693,7.0909,7.0953,7.0898,7.0898,7.0898,7.0898,7.033,6.9811,6.9272,6.875,6.8161,6.7687,6.7687,6.7687,6.7724,6.8017,6.8458,6.8972,6.9596,7.044,7.1358,3.4585,3.8073,4.088,4.0644,4.0527,4.0351,3.9961,3.9844,3.9785,3.9766,3.9375,3.9082,3.9043,3.7969,3.709,3.666,0.0,0.0,3.6016,3.5605,3.5332,3.5465,3.7591,3.8918,3.9039,4.1686,4.2986,4.2986,4.2986,4.2986,4.2986,4.2986,4.4427,4.7094,4.7094,4.8981,5.2187,5.2187,5.2965,5.4221,5.4221,5.461,5.5179,5.5179,5.5179,5.5179,5.5179,5.5209,5.5269,5.5269,5.5299,5.5418,5.6047,5.6256,5.6316,5.6316,5.7184,5.8141,5.8171,5.865,5.9099,5.9099,5.9099,5.9099,5.9099,5.9099,5.9099,5.9099,5.9099,5.9499,6.0815,6.2094,6.3387,6.4688,6.5942,6.6779,6.6745,6.5493,6.5275,6.7024,6.5286,6.4679,6.6462,6.6866,6.6671,6.5916,6.6667,6.7398,6.7852,6.7425,6.8242,7.0625,7.0631,7.0883,7.1485,7.1299,7.1085,7.0898,7.0898,7.0898,7.0843,7.0298,6.9738,6.9231,6.866,6.8161,6.7687,6.7687,6.7724,6.7834,6.8605,6.8972,6.9265,7.077,7.1358,7.1505,0.0,0.0,3.9179,4.0705,4.0488,4.0019,3.9902,3.9316,3.8769,3.8437,3.8301,3.7988,3.7344,3.6992,3.6641,3.6211,3.6074,3.6016,3.6016,3.5293,3.5369,3.6629,3.7718,3.8999,4.0177,4.2086,4.2986,4.2986,4.2986,4.2986,4.2986,4.2986,4.4427,4.7094,4.7094,4.8981,5.2187,5.2187,5.2965,5.4221,5.4221,5.461,5.5179,5.5179,5.5179,5.5179,5.5179,5.5508,5.5927,5.5927,5.6256,5.6675,5.6825,5.7244,5.7663,5.7663,5.7872,5.8231,5.874,5.8979,5.9099,5.9099,5.9099,5.9099,5.9099,5.9099,5.9099,5.9099,5.9099,5.9499,6.0815,6.2094,6.3387,6.4688,6.5942,6.6609,6.6034,6.5189,6.5069,6.6248,6.5955,6.6352,6.8147,6.8502,6.8555,6.8367,6.8282,6.8626,6.9578,6.9631,6.998,7.0664,7.1082,7.1329,7.1485,7.1137,7.094,7.0898,7.0898,7.0681,7.0266,6.9738,6.919,6.866,6.8148,6.781,6.7687,6.7687,6.8054,6.8641,6.8825,6.9669,7.0807,7.1174,7.1688,7.2239,3.4327,3.6442,3.8493,4.0589,4.0332,3.9824,3.9609,3.9004,3.8496,3.8262,3.8047,3.7754,3.7285,3.6894,3.6582,3.6348,3.6133,3.5937,3.5742,3.5078,3.5371,3.6792,3.768,3.8935,4.0592,4.215,4.2986,4.2986,4.2986,4.2986,4.2986,4.2986,4.4126,4.6188,4.6785,4.8509,5.0913,5.1453,5.2516,5.3743,5.3743,5.4311,5.5179,5.5179,5.5179,5.5179,5.5179,5.5598,5.6166,5.6166,5.6585,5.7154,5.7453,5.7812,5.8171,5.8471,5.859,5.865,5.9009,5.9099,5.9099,5.9099,5.9099,5.9099,5.9099,5.9099,5.9315,5.9864,5.997,6.0536,6.2456,6.3355,6.4322,6.5559,6.6051,6.617,6.5764,6.4783,6.4761,6.6424,6.638,6.6925,6.8696,6.9435,6.9498,6.8706,6.8953,6.942,7.0162,7.0286,7.0636,7.1289,7.1447,7.1485,7.1485,7.1108,7.1091,7.1475,7.1091,7.0814,7.0667,6.9739,6.9021,6.8464,6.793,6.7907,6.8238,6.8238,6.8715,6.9486,6.9853,7.055,7.1358,7.1725,7.2129,7.2496,3.4148,3.6121,3.8104,4.0106,4.0176,3.9746,3.9277,3.8848,3.8555,3.8476,3.8105,3.7812,3.7734,3.7031,3.6562,3.6562,3.623,3.584,3.543,3.4961,3.54,3.6812,3.7769,3.9053,4.0937,4.2263,4.2986,4.2986,4.2986,4.2986,4.2986,4.2986,4.3713,4.5048,4.6265,4.7707,4.9259,5.0383,5.1757,5.3174,5.3174,5.3982,5.5179,5.5179,5.5179,5.5209,5.5299,5.5777,5.6316,5.6436,5.6885,5.7513,5.8082,5.8261,5.8381,5.8949,5.9099,5.9099,5.9099,5.9099,5.9099,5.9099,5.9099,5.9099,5.9099,5.9315,5.9683,6.0815,6.1193,6.2063,6.4505,6.4869,6.5349,6.661,6.617,6.5662,6.5527,6.4478,6.4556,6.6882,6.6769,6.7282,6.9062,7.0266,7.0215,6.8669,6.9496,7.0158,7.0381,7.0408,7.0892,7.1953,7.1681,7.1457,7.1397,7.1062,7.1283,7.1975,7.1245,7.1083,7.1353,6.9928,6.9096,6.865,6.8114,6.8274,6.8898,6.9045,6.9559,7.033,7.1027,7.1394,7.1578,7.2275,7.2496,7.2496,3.379,3.4975,3.632,3.9952,4.0176,3.9746,3.9277,3.8848,3.8437,3.8066,3.7656,3.7266,3.6894,3.6426,3.6113,3.6113,3.6055,3.584,3.543,3.4961,3.5875,3.8376,3.8372,3.9639,4.2625,4.2849,4.2986,4.2986,4.2986,4.2986,4.2986,4.2986,4.3713,4.5074,4.5262,4.6785,4.9259,4.9455,5.0925,5.3174,5.3174,5.3982,5.5179,5.5179,5.5179,5.5269,5.5807,5.6406,5.7034,5.7633,5.8261,5.88,5.8919,5.8949,5.8979,5.9069,5.9099,5.9099,5.9099,5.9099,5.9099,5.9099,5.9099,5.9099,5.9099,5.997,6.0815,6.0989,6.1896,6.3164,6.4597,6.4869,6.5349,6.661,6.617,6.5459,6.485,6.458,6.4932,6.6211,6.7475,6.8929,7.0747,7.1984,7.2175,7.1195,7.1527,7.1665,7.1301,7.129,7.1507,7.1992,7.1681,7.1353,7.0979,7.0914,7.0975,7.1091,7.0975,7.1083,7.1353,6.9928,6.9397,6.9554,6.8963,6.8788,6.8972,6.9633,7.0403,7.1138,7.1248,7.1725,7.2349,7.2459,7.2496,7.2496,3.3774,3.4503,3.56,3.9759,3.9961,3.9453,3.9238,3.8848,3.8496,3.8301,3.7695,3.7226,3.7031,3.6426,3.6016,3.6016,3.582,3.5488,3.5039,3.4824,3.5901,3.8363,3.8335,3.9756,4.2961,4.2986,4.2986,4.2986,4.2986,4.2986,4.2986,4.2986,4.3295,4.4042,4.4752,4.6188,4.8139,4.8837,5.0525,5.2665,5.2665,5.3443,5.467,5.467,5.488,5.5239,5.5538,5.6256,5.7154,5.7453,5.8261,5.9099,5.9099,5.9099,5.9099,5.9099,5.9099,5.9099,5.9099,5.9099,5.9099,5.9099,5.9099,5.9285,5.997,6.0609,6.1395,6.2844,6.3638,6.4414,6.5646,6.5942,6.6014,6.6187,6.5595,6.4986,6.4647,6.4275,6.4864,6.7164,6.8148,6.9287,7.1113,7.2358,7.2628,7.1841,7.2477,7.2684,7.2157,7.2132,7.2092,7.1992,7.1681,7.155,7.1591,7.1129,7.136,7.2283,7.1822,7.2003,7.2688,7.1253,7.0561,7.0411,6.9811,6.9779,7.022,7.0587,7.1211,7.1945,7.1945,7.2165,7.2496,7.2496,7.2496,7.2496,3.3774,3.442,3.5463,3.9606,3.9824,3.9297,3.9082,3.8789,3.8574,3.8574,3.7832,3.7305,3.7305,3.6523,3.6016,3.6016,3.5644,3.5195,3.4726,3.4609,3.5697,3.8127,3.8935,4.0476,4.2986,4.2986,4.2986,4.2986,4.2986,4.2986,4.2986,4.2986,4.2986,4.3098,4.4126,4.5449,4.7197,4.8239,5.0028,5.2217,5.2366,5.3144,5.4221,5.4371,5.476,5.5209,5.5359,5.6047,5.6915,5.7244,5.8022,5.889,5.9069,5.9099,5.9099,5.9099,5.9099,5.9099,5.9099,5.9099,5.9207,5.9499,5.9576,5.9864,6.1224,6.1665,6.2456,6.4505,6.5171,6.5646,6.661,6.6812,6.6609,6.6034,6.5324,6.485,6.485,6.4377,6.5138,6.8258,6.8751,6.9573,7.1369,7.2619,7.2973,7.2142,7.3127,7.3534,7.3013,7.2988,7.2938,7.2759,7.1916,7.1822,7.2476,7.1629,7.1975,7.3514,7.2822,7.3061,7.4045,7.2507,7.1702,7.1424,7.0676,7.0734,7.1321,7.1505,7.1945,7.2496,7.2496,7.2496,7.2496,7.2496,7.2496,7.2496,3.3774,3.4635,3.5703,3.928,3.9883,3.957,3.875,3.8594,3.8574,3.8574,3.7832,3.7305,3.7305,3.6523,3.6016,3.6016,3.5644,3.5195,3.4726,3.4336,3.5371,3.8127,4.1076,4.2737,4.2961,4.2986,4.2986,4.2986,4.2986,4.2986,4.2986,4.2986,4.2986,4.2986,4.3073,4.4643,4.7094,4.7197,4.9209,5.2247,5.2875,5.3563,5.4281,5.488,5.5149,5.5269,5.5867,5.6166,5.6436,5.7633,5.8112,5.8291,5.8919,5.9099,5.9099,5.9099,5.9099,5.9099,5.9099,5.9099,5.9392,6.0536,6.0918,6.1193,6.2585,6.3732,6.4688,6.4869,6.5855,6.6728,6.6812,6.6812,6.6779,6.6745,6.6102,6.5595,6.5595,6.5561,6.6268,6.8364,6.9177,7.0396,7.2212,7.3478,7.384,7.2967,7.3934,7.4383,7.3907,7.3897,7.4251,7.5041,7.2744,7.2132,7.3399,7.2552,7.2552,7.3514,7.3437,7.3832,7.461,7.2662,7.2218,7.2768,7.1701,7.1248,7.1358,7.2092,7.2459,7.2496,7.2496,7.2496,7.2496,7.2496,7.2496,7.2496,3.1976,3.3499,3.4953,3.7448,3.8708,3.9258,3.8672,3.8574,3.8574,3.8574,3.7832,3.7305,3.7305,3.6523,3.6016,3.6016,3.5371,3.4883,3.4707,3.4043,3.5044,3.8104,4.1305,4.2986,4.2986,4.2986,4.2986,4.2986,4.2986,4.2986,4.2986,4.2986,4.2986,4.2986,4.2986,4.4016,4.5872,4.6682,4.8352,5.0505,5.1988,5.2965,5.3653,5.4311,5.485,5.5209,5.5478,5.5837,5.6316,5.7184,5.7782,5.8231,5.889,5.9099,5.9099,5.9099,5.9099,5.9099,5.9099,5.9683,6.0432,6.0918,6.1596,6.2585,6.3826,6.4597,6.5171,6.5942,6.644,6.6812,6.6812,6.6812,6.6643,6.6203,6.5865,6.5696,6.5696,6.6165,6.7288,6.9071,7.005,7.1095,7.2343,7.359,7.418,7.384,7.4886,7.5272,7.4841,7.4546,7.4648,7.5259,7.3858,7.3219,7.3514,7.3168,7.3168,7.3514,7.4014,7.4707,7.5447,7.4326,7.3833,7.3759,7.2957,7.2391,7.2092,7.2386,7.2496,7.2496,7.2496,7.2496,7.2496,7.2496,7.2496,7.2496,3.0866,3.2344,3.3963,3.6177,3.7574,3.8437,3.8506,3.8457,3.8418,3.8555,3.7715,3.7148,3.7285,3.6523,3.6016,3.6016,3.5351,3.4863,3.4707,3.4378,3.5335,3.8104,4.1305,4.2986,4.2986,4.2986,4.2986,4.2986,4.2986,4.2986,4.2986,4.2986,4.2986,4.2986,4.2986,4.3713,4.5048,4.6474,4.7909,4.9415,5.1647,5.2785,5.3264,5.4192,5.479,5.5179,5.5179,5.5598,5.6256,5.6885,5.7543,5.8231,5.889,5.9099,5.9099,5.9099,5.9099,5.9207,5.9576,6.064,6.1596,6.1596,6.2585,6.3952,6.5171,6.547,6.5734,6.661,6.6812,6.6812,6.6812,6.6812,6.6643,6.6136,6.6034,6.6034,6.6034,6.6872,6.8014,6.9494,7.0535,7.1537,7.2705,7.3699,7.4379,7.4547,7.5451,7.589,7.5735,7.5506,7.5521,7.5687,7.5142,7.4499,7.386,7.3899,7.4014,7.4284,7.4861,7.5438,7.5976,7.5379,7.4828,7.4249,7.3651,7.305,7.2496,7.2496,7.2496,7.2496,7.2496,7.2496,7.2496,7.2496,7.2496,7.2496,3.091,3.1392,3.2476,3.592,3.6569,3.7062,3.8399,3.8203,3.8086,3.8516,3.7461,3.6836,3.7246,3.6523,3.6016,3.6016,3.5644,3.5195,3.4726,3.535,3.6539,3.8104,4.1305,4.2986,4.2986,4.2986,4.2986,4.2986,4.2986,4.2986,4.2986,4.2986,4.2986,4.2986,4.2986,4.3713,4.5048,4.6474,4.7937,4.9375,5.2121,5.3174,5.3324,5.467,5.5179,5.5179,5.5179,5.5598,5.6256,5.6885,5.7543,5.8231,5.889,5.9099,5.9099,5.9099,5.9099,5.9392,6.0609,6.1995,6.3004,6.3004,6.3952,6.526,6.6525,6.6812,6.6812,6.6812,6.6812,6.6812,6.6812,6.6812,6.6812,6.6812,6.6812,6.6812,6.6812,6.7662,6.8572,6.9565,7.0535,7.1709,7.3252,7.3934,7.4547,7.5054,7.5686,7.6185,7.6567,7.699,7.7005,7.6597,7.6582,7.5973,7.4707,7.4707,7.513,7.5976,7.6015,7.6015,7.5976,7.5379,7.479,7.4249,7.3651,7.3066,7.2496,7.2496,7.2496,7.2496,7.2496,7.2496,7.2496,7.2496,7.2496,7.2496,2.8909,3.0252,3.1726,3.3975,3.5397,3.6751,3.836,3.8457,3.832,3.8144,3.7519,3.7051,3.6875,3.6348,3.6016,3.6016,3.5644,3.5078,3.4316,3.5167,3.6539,3.8104,4.0245,4.1785,4.2986,4.2986,4.2986,4.2986,4.2986,4.2986,4.2986,4.2986,4.2986,4.2986,4.2986,4.3184,4.3713,4.6083,4.7652,4.8742,5.1876,5.3473,5.4012,5.485,5.5179,5.5179,5.5179,5.5329,5.5658,5.6735,5.7244,5.7603,5.874,5.9099,5.9099,5.9099,5.9099,5.9207,5.9576,6.1325,6.3164,6.4137,6.526,6.632,6.6728,6.6812,6.6812,6.6812,6.6812,6.6812,6.6812,6.6812,6.6812,6.6812,6.6812,6.6812,6.6812,6.8258,6.9386,6.9708,7.1095,7.2443,7.3341,7.3934,7.4547,7.5054,7.5903,7.6493,7.6582,7.699,7.7005,7.6597,7.6582,7.6284,7.563,7.563,7.5438,7.5091,7.5707,7.6015,7.5976,7.5818,7.5413,7.4828,7.4255,7.3699,7.3066,7.2686,7.2496,7.2496,7.2496,7.2496,7.2496,7.2496,7.2496,7.2496,2.811,2.9133,3.0647,3.3046,3.4348,3.5879,3.8213,3.8418,3.8281,3.8203,3.7519,3.7012,3.6934,3.6387,3.6016,3.6016,3.5469,3.4883,3.4355,3.4599,3.5581,3.7122,3.8817,4.0707,4.2961,4.2986,4.2986,4.2986,4.2986,4.2986,4.2986,4.2986,4.2986,4.2986,4.2986,4.2986,4.3184,4.5978,4.7453,4.8375,5.1836,5.3593,5.4281,5.494,5.5179,5.5179,5.5179,5.5508,5.6047,5.6825,5.7453,5.8022,5.883,5.9099,5.9099,5.9099,5.9099,5.9285,6.0359,6.1828,6.3482,6.5171,6.6235,6.6812,6.6812,6.6812,6.6812,6.6812,6.6812,6.6812,6.6812,6.6812,6.6812,6.6812,6.6812,6.6812,6.6812,6.8454,6.9708,6.9708,7.1386,7.2742,7.3341,7.3934,7.4634,7.5487,7.6204,7.6611,7.6727,7.7005,7.7052,7.6738,7.6624,7.6457,7.6121,7.6062,7.5745,7.5207,7.5745,7.6015,7.6015,7.6015,7.5686,7.5091,7.4547,7.398,7.3341,7.2761,7.2496,7.2496,7.2496,7.2496,7.2496,7.2496,7.2496,7.2496,2.8136,2.8123,2.9229,3.2602,3.3247,3.4539,3.7773,3.8078,3.8105,3.8418,3.7441,3.6836,3.7148,3.6484,3.6016,3.6016,3.5215,3.4707,3.4707,3.3906,3.4133,3.5683,3.7363,3.9639,4.2737,4.2961,4.2986,4.2986,4.2986,4.2986,4.2986,4.2986,4.2986,4.2986,4.2986,4.2986,4.3184,4.582,4.7432,4.8458,5.1725,5.3584,5.4371,5.497,5.5179,5.5179,5.5179,5.5987,5.7034,5.7154,5.8052,5.9099,5.9099,5.9099,5.9099,5.9099,5.9099,5.9576,6.2027,6.2811,6.3576,6.5855,6.661,6.6812,6.6812,6.6812,6.6812,6.6812,6.6812,6.6846,6.6914,6.6846,6.6846,6.6914,6.6914,6.6914,6.6914,6.8559,6.9814,6.9814,7.1422,7.2761,7.3442,7.4072,7.4978,7.6204,7.6493,7.669,7.6864,7.7097,7.7103,7.6926,7.6715,7.651,7.6295,7.6095,7.6015,7.6015,7.6015,7.6015,7.6015,7.6015,7.5686,7.5127,7.4629,7.4026,7.3442,7.2816,7.2553,7.2496,7.2496,7.2496,7.2496,7.2496,7.2496,7.2496,2.8096,2.7949,2.8483,3.0656,3.2094,3.377,3.5885,3.7416,3.8223,3.7656,3.7324,3.6934,3.6367,3.6133,3.6016,3.6016,3.5215,3.4707,3.4707,3.3906,3.4133,3.5683,3.7363,3.917,4.1076,4.2375,4.2986,4.2986,4.2986,4.2986,4.2986,4.2986,4.2986,4.2986,4.2986,4.2986,4.3123,4.5249,4.7244,4.9125,5.1345,5.3406,5.4999,5.5149,5.5179,5.5179,5.5179,5.5688,5.6526,5.7543,5.8441,5.9099,5.9099,5.9099,5.9099,5.9099,5.9099,5.9207,5.9789,6.1426,6.31,6.3671,6.5293,6.6812,6.6812,6.6812,6.6812,6.6812,6.6812,6.6981,6.7557,6.7184,6.7015,6.7557,6.7658,6.7658,6.7658,6.9358,7.0593,7.0593,7.1685,7.2889,7.398,7.5018,7.5749,7.6052,7.6381,7.6597,7.6638,7.7,7.7103,7.6926,7.6715,7.6488,7.6295,7.6095,7.6015,7.6015,7.6015,7.6015,7.6015,7.6015,7.5917,7.5787,7.5201,7.4591,7.4072,7.3442,7.2943,7.2496,7.2496,7.2496,7.2496,7.2496,7.2496,7.2422,2.7923,2.7802,2.8249,2.9998,3.0928,3.2504,3.522,3.6553,3.7264,3.7533,3.7422,3.7051,3.6406,3.6152,3.6016,3.6016,3.5215,3.4707,3.4707,3.3906,3.3776,3.4612,3.6173,3.7843,3.9405,4.1076,4.2263,4.2986,4.2986,4.2986,4.2986,4.2986,4.2986,4.2986,4.2986,4.2986,4.3123,4.5051,4.7136,4.9214,5.1233,5.3275,5.5179,5.5179,5.5179,5.5179,5.5179,5.5807,5.6825,5.8141,5.883,5.9099,5.9099,5.9099,5.9099,5.9099,5.9099,5.9177,5.9864,6.1426,6.3196,6.3732,6.5382,6.6812,6.6812,6.6812,6.6812,6.6812,6.7083,6.7455,6.7827,6.759,6.7455,6.7827,6.7895,6.8065,6.8583,7.0224,7.1552,7.2047,7.3052,7.3942,7.4764,7.5284,7.5741,7.6109,7.6419,7.6624,7.6738,7.7048,7.7147,7.7052,7.6749,7.6537,7.6457,7.6135,7.6015,7.6015,7.6015,7.6015,7.6015,7.6015,7.6015,7.5947,7.534,7.4943,7.4629,7.3747,7.3224,7.2889,7.2573,7.2496,7.2496,7.2496,7.2496,7.2386,2.7762,2.7696,2.8071,2.9456,2.9804,3.1011,3.4349,3.5281,3.5962,3.723,3.7416,3.7148,3.6719,3.6289,3.6016,3.6016,3.5293,3.4785,3.4707,3.3965,3.3496,3.3418,3.4964,3.6539,3.8223,3.9756,4.1419,4.2986,4.2986,4.2986,4.2986,4.2986,4.2986,4.2986,4.2986,4.2986,4.3123,4.496,4.6917,4.8893,5.0897,5.3053,5.4845,5.5078,5.5179,5.5179,5.5179,5.6017,5.7274,5.853,5.9009,5.9099,5.9099,5.9099,5.9099,5.9099,5.9099,5.9285,6.0432,6.1796,6.3292,6.4322,6.568,6.6812,6.6812,6.6812,6.6812,6.6812,6.7387,6.7929,6.8064,6.7996,6.7996,6.8233,6.8199,6.8523,6.9738,7.1236,7.2549,7.3591,7.4604,7.5325,7.5668,7.5665,7.5909,7.6482,7.6687,7.6819,7.6919,7.71,7.7187,7.7187,7.679,7.6582,7.6582,7.621,7.6015,7.6015,7.6015,7.6015,7.6015,7.6015,7.6015,7.5947,7.5446,7.5201,7.5017,7.3989,7.3492,7.3341,7.2742,7.2496,7.2496,7.2496,7.2422,7.2202,2.7762,2.7696,2.7687,2.7284,2.8719,2.9994,3.0314,3.3264,3.5519,3.5267,3.6523,3.7148,3.6719,3.6289,3.6016,3.6016,3.5586,3.5137,3.4726,3.4258,3.3809,3.3437,3.4964,3.6539,3.8223,3.9756,4.1419,4.2986,4.2986,4.2986,4.2986,4.2986,4.2986,4.2986,4.2986,4.2986,4.3037,4.4295,4.5752,4.7451,4.9913,5.1858,5.3413,5.4743,5.5179,5.5179,5.5179,5.6017,5.7214,5.7992,5.865,5.9099,5.9099,5.9099,5.9099,5.9099,5.9099,5.9099,5.9285,6.1153,6.3004,6.3164,6.4992,6.6812,6.6812,6.6812,6.6812,6.6812,6.7387,6.8098,6.8808,6.8368,6.8335,6.9654,6.935,6.9544,7.1145,7.2283,7.3294,7.4316,7.5643,7.6488,7.6512,7.7451,7.7862,7.745,7.7541,7.7443,7.6919,7.71,7.7187,7.7187,7.679,7.6582,7.6582,7.621,7.6015,7.6015,7.6015,7.6015,7.6015,7.6015,7.6015,7.6015,7.5917,7.5584,7.5054,7.4426,7.3888,7.3341,7.2742,7.2496,7.2496,7.2496,7.2055,7.1468,2.7482,2.7321,2.7175,2.7081,2.7575,2.8289,2.9561,3.2009,3.4012,3.4827,3.6361,3.7148,3.6719,3.6289,3.6016,3.6016,3.5644,3.5195,3.4726,3.4297,3.3887,3.3437,3.4133,3.5211,3.676,3.8439,4.0012,4.1672,4.2625,4.2986,4.2986,4.2986,4.2986,4.2986,4.2986,4.3162,4.3489,4.4292,4.5668,4.7483,4.8846,5.0851,5.3069,5.3727,5.4509,5.5239,5.5598,5.6107,5.6735,5.7782,5.8321,5.862,5.8979,5.9099,5.9099,5.9099,5.9099,5.9315,5.997,6.1527,6.3196,6.3826,6.547,6.6914,6.732,6.7421,6.7421,6.7421,6.8368,6.9282,6.9654,6.9417,6.9383,7.0094,6.9925,7.0191,7.149,7.2879,7.4331,7.5887,7.684,7.7387,7.7387,7.8061,7.8412,7.8128,7.836,7.8401,7.8141,7.8415,7.8594,7.8594,7.7869,7.7428,7.7322,7.6549,7.6095,7.6015,7.6015,7.6015,7.6015,7.6015,7.6015,7.6015,7.6015,7.5848,7.5551,7.498,7.4384,7.3841,7.3224,7.2816,7.2496,7.2496,7.2275,7.1982]}]]